GFSGL_250_spd_000.txt.gz
Wind_Speed
78 81 84 88 89 90 90 91 93 94 96 98 98 102 106 109 105 104 98 88 84 80 78 78 80 82 84 89 96 101 103 106 105 100 107 107 106 105 103 96 82 65 58
87 88 89 90 91 94 97 100 103 104 104 105 109 110 112 112 107 98 94 84 84 82 81 83 85 87 90 95 101 105 108 109 111 106 109 109 106 104 98 89 80 65 57
90 92 95 97 100 104 108 109 108 108 110 111 114 116 118 116 107 98 90 86 85 86 86 86 89 92 94 98 103 109 113 113 116 112 106 110 104 101 92 82 75 65 58
100 103 106 108 111 112 113 112 112 112 115 118 114 107 101 101 99 96 92 91 88 89 92 96 96 99 101 103 106 109 115 118 120 115 113 109 101 92 81 74 72 64 59
105 108 110 116 117 115 114 116 118 120 118 110 103 99 94 91 95 98 97 95 96 98 101 105 107 108 109 111 112 111 117 118 117 115 109 105 98 84 71 68 70 65 59
117 120 122 121 117 118 120 120 119 110 99 100 98 99 101 105 104 105 104 102 105 108 109 112 114 116 118 117 118 118 117 113 111 108 100 99 86 76 64 65 67 62 58
121 122 123 124 122 123 121 118 112 108 110 110 111 113 112 115 116 117 117 115 115 116 118 119 120 122 124 123 119 114 113 105 101 103 96 89 78 66 61 62 63 61 58
120 118 119 122 123 122 120 119 118 120 122 121 120 123 123 123 125 123 122 122 122 123 123 122 123 122 122 121 116 109 102 102 100 93 89 79 67 57 51 60 59 59 57
124 127 130 130 129 127 126 125 125 126 128 130 130 130 130 130 128 126 126 125 124 122 122 122 120 116 112 109 106 103 101 98 87 82 76 63 58 58 57 55 57 54 62
133 135 136 138 135 132 132 131 131 130 129 128 128 129 129 128 130 131 131 125 121 115 112 112 114 115 107 101 98 93 87 76 75 73 63 54 56 54 52 51 52 54 63
138 138 139 139 137 133 134 132 130 127 125 126 126 125 126 125 123 125 125 121 116 110 107 106 100 97 86 80 82 76 72 69 66 58 53 53 52 48 46 50 51 59 64
136 136 139 138 136 136 135 131 131 128 127 129 128 126 126 125 121 119 116 113 110 100 97 92 86 81 77 71 69 60 55 55 52 51 52 47 46 44 46 50 55 61 69
137 138 138 136 134 133 129 130 127 125 126 123 118 114 111 110 108 108 107 100 93 83 77 72 70 68 67 64 60 57 53 50 49 51 48 45 43 41 42 47 56 58 63
133 130 131 128 125 123 121 115 110 109 109 107 106 103 99 93 95 95 93 89 84 79 72 66 63 62 62 58 54 50 49 49 49 47 44 41 39 42 45 51 58 60 65
120 119 118 115 113 113 110 106 104 102 100 96 94 90 87 85 84 82 80 78 76 73 68 62 58 55 53 48 48 47 49 45 43 42 39 37 44 49 53 58 60 67 69
108 109 108 107 105 102 99 95 96 94 92 89 85 78 74 72 69 73 70 65 63 59 57 54 52 50 46 44 44 46 44 40 39 38 36 40 45 54 57 62 64 63 62
103 103 100 99 97 93 88 85 80 83 85 83 79 73 67 61 62 63 66 62 56 51 50 47 46 45 43 42 42 42 39 37 34 32 33 37 42 45 50 52 50 49 54
97 97 95 90 87 85 83 81 79 74 73 80 73 64 58 52 52 53 56 53 48 43 41 39 41 42 41 39 39 38 37 34 30 32 29 22 25 41 40 39 38 44 48
91 90 88 85 83 80 76 74 72 71 70 69 69 64 57 55 53 52 55 53 46 39 37 34 34 35 36 36 36 35 33 32 31 31 29 33 42 40 32 31 38 41 48
87 87 85 80 76 74 73 71 69 67 66 64 63 60 57 55 52 49 50 49 45 37 36 32 31 31 31 29 32 33 32 31 27 27 27 23 26 26 31 32 36 42 45
83 81 79 77 72 69 68 67 66 65 63 62 59 54 49 48 44 42 41 44 41 36 36 33 30 30 29 28 32 32 31 29 29 25 25 27 22 22 28 33 38 44 47
80 77 75 73 70 68 67 64 63 61 57 54 52 48 43 43 38 35 37 38 35 33 34 31 31 31 30 32 34 34 33 34 32 31 25 18 22 27 30 36 41 43 49
78 76 73 70 66 64 62 60 56 53 51 48 46 42 40 40 35 33 34 34 28 30 30 29 33 31 33 36 35 35 34 32 28 22 17 21 25 31 35 39 41 42 45
75 71 67 64 61 59 57 55 52 49 47 44 42 39 36 35 31 31 33 30 24 28 29 31 34 34 38 38 37 38 35 32 25 23 26 27 30 34 35 38 37 40 45
69 67 63 59 56 54 53 50 48 46 41 38 36 34 32 31 29 30 31 25 26 27 30 33 34 38 41 40 41 39 35 28 24 26 26 24 25 27 30 33 38 42 48
65 61 57 53 50 47 45 44 44 42 35 33 31 29 28 26 27 30 28 25 27 28 31 36 38 42 43 44 43 38 32 27 28 29 26 25 25 28 30 34 40 41 46

GFSGL_250_spd_003.txt.gz
Wind_Speed
75 78 81 84 88 90 92 95 97 99 101 103 104 107 110 112 114 121 116 113 111 114 116 101 90 88 86 83 86 86 88 91 91 82 89 94 97 98 99 103 107 107 106
85 89 92 95 98 100 102 104 107 108 111 114 116 116 119 122 122 122 121 117 115 112 105 89 80 77 81 83 84 86 90 95 100 97 95 101 102 105 107 108 109 105 104
92 95 98 101 105 106 109 112 115 118 121 123 124 125 124 123 121 118 116 111 112 104 91 93 94 93 88 87 88 89 93 96 101 104 101 105 105 106 111 113 111 103 100
98 101 103 106 108 112 115 119 122 125 126 126 127 128 127 122 120 120 120 118 114 106 103 101 101 104 100 101 102 102 103 102 102 104 107 108 110 110 112 112 109 102 98
106 109 112 114 117 122 124 127 128 127 127 126 125 127 129 129 130 129 127 123 119 117 114 113 113 114 113 112 112 111 113 113 112 111 111 113 113 107 104 111 105 101 94
115 118 120 123 124 124 124 124 125 128 130 132 134 134 134 136 137 138 134 125 123 124 123 122 121 120 121 122 121 118 117 116 114 112 107 104 100 99 94 95 95 91 87
117 118 120 121 124 126 130 132 133 134 134 137 140 140 138 137 136 133 133 131 127 122 120 119 121 119 118 115 113 110 109 108 105 102 95 87 89 91 90 88 88 83 75
123 126 128 129 130 133 135 137 137 141 142 142 141 138 137 132 127 126 119 114 113 115 113 112 107 103 103 101 99 98 100 99 95 93 85 84 83 83 79 83 81 73 71
130 132 135 135 136 138 138 138 139 139 138 139 138 137 132 131 126 124 122 118 118 115 113 111 110 105 101 98 91 84 82 82 83 81 79 77 73 67 68 69 66 67 66
134 137 138 139 141 141 143 142 139 136 135 134 135 134 129 127 125 122 117 112 102 100 102 102 97 89 88 86 81 77 71 72 74 72 69 63 60 59 61 61 59 58 57
135 135 137 139 140 138 140 139 131 128 127 125 118 115 112 109 105 105 100 93 88 83 86 87 83 81 76 72 73 66 61 59 60 57 55 51 53 54 52 52 50 51 52
129 136 136 136 136 137 128 121 117 111 108 103 99 97 97 97 96 91 91 89 86 79 79 75 74 71 67 67 63 58 53 52 53 51 47 45 47 46 46 45 47 49 51
131 131 130 126 121 113 109 105 102 102 98 93 92 92 92 92 90 87 84 82 78 71 68 67 64 62 60 61 58 54 50 47 47 45 44 46 45 42 43 43 46 50 53
118 117 114 110 106 106 103 101 97 95 93 92 90 89 86 85 81 76 75 75 71 68 63 61 59 58 56 57 57 53 49 45 43 42 43 42 38 39 40 42 47 51 52
112 110 109 108 106 102 100 99 98 97 95 90 88 84 81 80 77 73 72 71 68 65 61 55 51 48 47 47 46 45 42 41 39 36 35 35 37 37 41 44 44 45 49
108 106 104 102 101 100 98 95 97 96 92 89 84 78 75 71 68 66 65 63 62 57 55 52 49 46 44 43 43 40 39 37 34 33 33 35 36 37 40 46 48 51 55
105 102 101 101 100 97 95 92 85 86 89 85 81 76 69 66 62 60 61 60 55 50 44 42 41 38 37 39 38 35 35 34 33 33 32 31 34 37 42 48 49 52 55
101 101 99 98 95 91 87 83 80 78 77 82 82 73 67 62 56 53 54 54 51 50 46 44 42 38 35 34 34 32 33 33 32 30 29 31 35 38 45 50 50 49 52
98 98 95 91 88 85 81 79 79 78 77 75 75 73 65 62 56 51 52 53 49 45 42 40 39 35 31 30 28 31 33 32 30 28 30 31 35 37 45 46 32 24 30
95 92 88 83 79 78 78 78 76 74 72 69 65 62 59 55 48 43 44 42 39 36 35 34 33 30 26 25 26 28 27 27 27 28 30 30 34 33 32 25 29 34 37
88 84 80 78 77 75 74 72 70 68 66 62 56 51 48 47 40 35 37 35 31 28 29 27 26 24 23 22 23 23 24 24 25 27 28 30 30 26 16 24 27 28 34
83 80 77 75 74 72 71 68 66 64 61 57 52 47 43 42 38 32 32 30 27 24 23 23 22 22 23 24 24 24 24 27 27 27 27 25 15 15 16 18 25 30 37
81 78 74 72 70 68 66 64 62 59 56 53 48 45 39 38 34 28 27 25 23 20 20 21 21 22 24 24 25 25 27 26 27 25 18 13 12 12 18 20 25 35 44
79 76 73 70 67 63 59 58 57 54 51 47 42 39 34 31 27 23 22 19 19 19 19 21 22 24 26 27 27 28 27 26 23 21 19 13 12 12 17 24 32 39 41
75 72 70 66 62 58 55 53 51 49 46 42 36 32 28 26 22 19 17 16 17 19 20 22 25 27 27 29 29 28 28 24 24 26 19 10 10 15 20 26 33 37 44
74 70 67 62 58 54 50 49 48 47 43 39 34 30 25 23 18 16 14 16 20 21 23 25 28 29 31 31 31 31 27 24 23 17 12 11 14 17 22 30 34 40 46

GFSGL_250_spd_006.txt.gz
Wind_Speed
74 77 81 84 88 90 94 97 99 102 104 107 109 112 115 117 120 122 124 126 127 126 127 126 120 118 112 109 112 106 110 106 103 85 90 90 93 94 93 95 97 97 98
82 85 88 91 95 99 102 105 108 110 113 116 120 123 125 127 129 131 132 133 130 126 125 124 123 121 122 122 117 114 112 109 108 97 97 98 101 102 101 101 105 105 105
88 92 96 99 103 106 110 113 116 118 121 125 127 129 130 131 132 135 135 133 131 132 133 131 130 129 127 127 123 116 116 114 111 109 103 106 106 108 107 107 108 111 109
95 99 102 105 109 113 117 120 124 126 128 129 131 133 134 134 136 137 138 138 137 135 133 132 131 128 121 119 114 111 106 104 105 104 103 98 106 110 110 105 103 105 104
102 105 108 113 117 120 121 123 126 128 131 134 136 137 137 141 143 140 139 135 134 133 126 123 124 118 117 113 104 100 94 93 92 92 92 91 91 95 99 100 96 95 92
107 111 113 113 117 118 122 127 131 134 139 142 143 143 144 145 144 141 136 128 129 128 127 128 122 117 113 105 102 99 95 91 91 92 88 86 88 87 88 87 87 88 81
105 107 110 114 120 125 130 135 139 140 144 148 147 145 143 142 140 138 137 129 128 125 123 116 109 106 101 97 92 90 88 87 85 83 79 78 78 81 83 82 82 82 80
109 113 118 121 127 132 137 140 146 147 143 141 140 137 139 136 130 127 126 120 112 106 99 98 91 89 89 88 85 81 79 78 81 77 73 69 73 72 73 76 76 77 76
113 117 123 127 130 133 138 143 142 141 141 138 132 124 122 118 115 113 108 103 98 93 88 89 87 83 82 77 72 68 66 68 70 69 70 68 64 64 65 64 67 69 65
117 120 125 130 131 132 138 144 144 135 127 118 111 109 105 102 101 97 92 86 81 79 79 81 80 79 75 73 67 63 56 60 62 61 57 56 56 57 55 55 57 55 53
122 125 127 128 131 137 135 128 124 118 111 104 102 98 94 90 85 84 80 76 73 70 71 72 72 69 66 64 60 54 50 53 56 50 52 53 48 45 47 46 45 46 47
127 127 127 130 133 129 122 117 111 104 98 93 89 85 84 82 80 75 73 71 70 65 65 67 67 65 63 60 56 52 47 45 45 46 48 46 43 42 44 43 42 42 40
126 125 126 123 120 115 109 103 99 95 91 87 83 78 76 79 78 74 73 72 70 67 63 60 61 60 58 56 53 50 46 43 43 44 44 42 40 40 41 41 40 38 39
123 123 122 117 112 107 103 98 94 92 87 82 77 74 75 76 76 73 71 70 68 65 60 56 53 52 51 49 46 42 39 38 38 38 39 38 38 38 40 39 38 38 37
123 120 116 111 104 98 96 94 93 90 85 80 78 77 75 74 74 71 68 67 65 63 60 53 50 48 46 43 40 38 38 38 37 36 35 33 32 32 34 35 35 34 35
118 115 111 102 96 93 90 88 91 91 89 84 80 76 74 72 70 69 66 63 58 58 55 51 47 43 41 37 33 32 33 33 33 32 28 27 27 27 28 31 33 34 37
114 109 101 95 91 89 86 83 81 88 92 87 81 78 74 70 66 63 62 59 55 53 50 48 43 39 37 35 32 30 29 29 28 25 23 23 24 25 28 32 34 37 38
108 101 93 91 88 86 85 85 85 84 86 87 84 74 69 62 56 53 51 51 47 46 44 40 39 37 33 32 30 28 27 25 23 22 22 22 23 25 29 31 35 36 41
100 94 90 89 87 86 85 85 84 84 83 78 73 69 62 56 50 46 43 41 38 38 35 32 31 30 29 27 25 25 24 22 21 19 18 19 22 26 27 31 35 39 38
94 90 87 85 83 83 83 82 81 78 75 71 64 59 58 52 45 40 39 35 31 29 26 24 23 21 21 21 22 22 20 19 18 17 17 20 23 27 30 34 37 40 43
89 87 85 83 82 81 80 78 74 70 68 65 59 53 51 49 41 34 33 30 26 23 21 20 18 15 16 18 18 16 16 16 16 17 18 20 22 25 29 36 38 38 37
87 84 82 81 80 78 76 71 66 64 61 58 54 49 45 41 36 29 26 24 21 19 17 16 14 13 16 16 14 13 13 15 16 16 17 18 22 26 31 28 26 28 31
84 83 83 82 79 75 70 64 60 58 56 54 48 43 39 35 30 24 20 17 15 15 15 13 13 15 16 15 15 13 14 14 14 14 17 16 14 16 17 20 24 27 29
83 82 81 79 75 68 63 59 57 55 52 50 47 40 34 29 25 18 15 12 12 14 14 14 14 15 16 16 14 14 16 18 17 16 14 15 15 13 12 16 20 26 34
82 81 79 75 69 64 60 56 53 52 48 44 41 35 29 24 21 14 11 11 14 16 15 15 16 16 17 16 16 18 21 22 18 18 16 14 9 8 13 19 27 33 39
82 79 75 70 64 60 56 53 50 47 42 38 35 30 23 18 13 11 9 13 16 18 17 17 18 19 18 18 20 24 23 20 18 18 14 9 5 11 18 26 32 37 38

GFSGL_250_spd_009.txt.gz
Wind_Speed
66 69 72 75 80 84 87 92 96 101 105 108 111 114 118 122 126 129 133 135 137 137 140 140 138 138 136 137 137 135 132 129 125 113 114 113 116 117 117 118 115 110 109
70 75 79 84 88 93 97 101 105 107 111 115 119 124 127 131 133 136 137 140 140 140 141 141 143 138 134 129 126 125 124 123 116 104 107 110 111 112 107 107 106 103 103
79 82 86 91 96 99 102 105 109 113 115 119 121 125 129 132 137 141 144 144 146 149 146 140 138 138 138 135 131 125 121 112 110 104 98 100 105 110 104 102 101 100 98
84 88 94 97 100 104 108 112 114 117 120 122 127 132 136 139 145 147 150 150 145 144 143 142 140 138 129 123 121 113 110 104 99 98 91 86 91 92 92 91 90 93 91
90 96 99 104 107 107 109 110 116 119 123 127 132 136 139 143 149 150 149 148 145 141 138 128 125 120 114 109 105 102 98 92 87 89 85 83 81 82 82 85 84 88 88
97 101 104 99 101 107 110 114 116 122 126 128 130 136 141 143 147 143 143 139 130 122 115 113 109 108 103 99 96 91 83 81 80 79 76 75 75 76 78 77 78 81 80
98 93 97 100 104 109 112 118 122 126 130 131 133 137 137 140 141 132 125 120 110 106 104 100 97 96 95 93 87 83 78 76 73 71 70 71 70 76 77 77 77 74 72
94 97 101 104 112 116 121 123 126 129 131 131 133 141 135 127 122 117 110 105 101 98 93 91 89 87 86 85 80 78 78 75 75 70 63 63 68 70 70 69 69 68 66
96 106 111 115 117 123 127 127 127 128 130 134 133 124 117 117 112 108 101 96 93 90 88 88 85 81 79 77 72 68 67 68 69 64 58 57 58 63 66 63 61 58 58
104 107 113 117 121 127 127 127 130 136 133 120 118 115 111 107 102 96 94 91 86 83 80 81 82 78 73 70 67 62 60 61 64 63 59 54 50 51 52 52 53 50 50
112 115 119 123 127 128 127 128 130 124 116 112 109 106 103 100 95 91 88 84 79 73 72 73 73 70 67 65 60 56 54 55 59 58 59 52 47 44 45 45 45 45 46
117 120 122 126 127 126 126 126 119 114 109 106 102 97 96 94 89 85 83 79 74 66 65 66 66 65 62 60 54 51 48 49 53 54 51 50 45 41 39 39 39 39 40
118 121 125 125 125 126 120 113 112 110 103 98 94 90 87 86 84 82 80 77 72 67 64 62 62 61 59 56 49 47 46 45 45 45 45 41 38 35 36 36 34 34 34
124 126 127 123 122 117 112 112 109 103 95 92 88 85 83 82 81 80 79 77 72 68 62 58 56 55 53 50 44 44 42 39 39 38 36 33 32 30 29 29 29 28 28
127 126 123 119 115 108 109 108 100 97 92 85 82 81 80 81 80 78 74 70 66 63 58 54 51 48 46 43 40 38 34 34 32 31 31 32 30 29 26 24 24 23 25
125 121 119 114 108 105 102 96 99 94 93 89 83 80 79 77 75 72 66 62 58 55 52 49 46 43 39 37 34 31 30 27 25 25 26 26 25 24 22 21 20 21 24
123 120 115 109 104 102 96 92 88 90 93 95 89 84 78 72 70 66 59 53 48 49 45 43 41 37 34 29 28 27 23 24 24 22 22 21 19 18 17 18 18 18 18
122 116 106 104 102 96 92 90 87 86 87 91 91 82 73 66 63 57 51 46 38 39 40 37 34 30 26 24 23 22 21 20 21 20 17 14 13 14 15 14 14 15 19
117 110 105 102 98 93 90 87 86 86 85 83 81 76 66 60 54 49 47 41 33 33 32 31 27 23 20 18 17 18 17 17 16 13 11 11 11 12 13 14 13 16 20
112 106 101 97 91 88 86 85 84 83 82 77 72 64 59 57 51 42 41 37 32 29 27 25 21 18 15 12 12 13 13 11 9 10 10 11 10 11 13 15 18 21 24
106 101 97 91 87 85 84 82 82 79 77 72 65 58 53 49 49 39 36 33 29 25 21 19 16 13 10 9 7 7 7 9 10 10 11 10 10 13 15 20 24 27 31
101 96 90 86 85 84 82 81 77 73 70 64 59 56 50 46 41 38 32 30 26 21 16 12 11 9 7 5 5 8 9 11 11 9 9 10 12 17 21 23 28 33 32
96 89 85 85 84 82 79 77 73 69 63 56 54 51 45 38 34 32 28 25 21 16 11 8 7 6 4 6 9 10 11 10 10 11 11 12 14 16 20 23 20 23 27
89 85 84 83 82 78 75 73 69 64 57 53 48 43 39 32 29 25 24 20 15 11 7 7 6 5 8 11 11 12 12 12 12 10 10 11 11 9 10 15 20 25 29
85 84 82 80 78 74 72 70 65 59 54 46 40 36 31 27 24 21 18 14 10 8 8 7 8 11 14 14 14 15 13 12 11 10 9 7 7 10 15 21 23 24 26
85 83 81 78 74 71 67 64 58 55 46 38 33 31 24 22 19 18 13 9 8 11 11 11 12 16 17 18 18 16 15 15 13 8 3 4 10 16 20 22 25 27 27

GFSGL_250_spd_012.txt.gz
Wind_Speed
58 60 62 65 69 74 78 82 86 90 95 100 104 107 110 112 115 115 120 124 128 135 139 142 145 147 149 149 147 145 144 144 135 121 114 112 104 105 104 104 106 106 107
62 65 69 73 76 80 84 88 94 98 101 101 105 106 108 112 118 122 125 130 134 137 140 146 146 144 145 146 143 141 139 132 119 105 102 100 96 94 89 92 94 96 94
69 70 73 77 82 86 91 95 98 102 103 102 103 110 115 121 125 129 134 136 139 145 148 145 143 143 140 134 128 125 120 114 112 103 92 93 91 92 87 87 86 87 88
71 76 79 83 87 92 95 100 101 98 99 105 113 119 123 125 128 134 138 143 143 139 144 142 135 130 124 121 118 115 106 101 101 98 92 87 86 89 89 84 83 84 83
76 80 84 89 93 97 99 98 97 101 106 113 115 118 123 128 133 137 138 143 142 138 135 128 123 120 117 111 106 102 97 93 92 90 86 80 78 80 82 82 76 77 78
82 87 90 93 96 94 96 99 102 106 111 115 120 123 127 133 135 138 142 143 137 128 121 119 116 112 106 101 100 97 93 89 85 83 77 74 74 75 77 76 74 72 70
88 91 93 92 93 98 99 101 105 110 115 122 126 127 130 136 140 140 137 131 123 117 111 106 100 99 99 97 93 89 84 83 78 74 70 68 67 70 68 69 71 70 72
92 92 91 91 95 97 103 108 112 116 122 127 129 133 134 138 136 132 125 119 112 106 102 99 95 91 90 88 84 81 81 79 78 75 69 59 61 63 63 63 64 63 64
89 89 90 92 98 105 113 118 121 126 131 131 129 135 135 132 126 121 116 108 103 100 98 94 90 87 87 83 78 72 71 74 73 73 68 63 53 56 58 56 56 53 57
89 92 97 100 105 114 118 121 127 132 130 127 129 131 128 121 117 112 106 101 98 95 92 89 87 85 82 79 75 70 65 64 65 65 61 55 52 50 49 47 49 49 51
94 99 103 110 113 118 126 129 131 128 128 128 125 121 115 113 108 104 101 98 95 92 87 81 80 80 76 72 68 64 60 59 60 58 57 50 46 45 44 42 40 44 45
100 105 109 114 121 121 126 129 131 127 126 123 116 110 109 106 103 99 97 96 93 87 79 73 71 72 70 64 60 56 53 52 53 54 51 45 41 40 38 36 36 38 40
106 109 113 118 123 126 129 130 127 127 122 114 107 103 101 100 96 95 94 92 89 81 73 70 65 64 63 58 52 49 46 45 46 45 43 40 36 33 34 30 29 30 33
108 110 118 122 126 128 130 128 126 122 115 107 100 98 96 93 90 90 89 88 82 74 72 69 63 59 55 52 45 43 40 37 38 38 35 32 30 30 25 23 23 25 26
110 117 121 126 126 129 129 125 121 117 109 102 95 92 88 86 85 84 81 79 71 66 66 64 60 54 48 44 40 36 34 32 30 28 27 26 25 21 20 21 21 21 22
115 120 125 127 130 130 122 116 116 109 106 102 97 92 85 82 80 77 75 73 65 61 61 56 52 46 40 37 34 31 27 25 23 22 21 18 17 16 17 17 15 16 18
121 124 127 130 131 123 116 110 101 102 101 97 96 92 86 80 76 71 69 69 61 57 56 48 44 39 35 30 26 23 21 19 17 17 17 16 14 12 12 10 12 13 15
126 129 131 129 120 113 108 102 99 93 87 89 93 90 84 78 72 67 63 64 61 51 46 43 37 33 28 24 21 18 16 14 13 13 12 10 9 7 8 8 10 12 14
131 131 126 120 114 107 101 96 92 87 86 86 85 84 82 77 70 62 57 56 56 48 42 37 31 27 23 20 16 12 10 10 9 8 7 7 7 8 9 12 14 15 15
132 124 120 113 108 99 95 90 85 84 84 84 82 79 75 73 66 61 55 50 45 40 36 30 24 21 18 14 10 8 8 7 6 6 8 9 10 12 13 13 13 12 11
122 118 110 104 97 94 88 83 81 79 79 80 79 75 70 63 60 58 51 44 38 32 27 23 19 14 10 8 6 5 4 5 6 7 8 10 12 12 11 8 9 10 10
115 108 101 96 92 86 83 80 77 75 75 75 74 70 64 57 55 50 44 37 30 24 20 16 11 8 6 3 2 3 4 6 7 7 9 11 11 10 10 11 12 14 15
108 100 96 91 84 81 78 75 73 72 72 71 68 63 57 53 48 43 36 30 24 19 14 8 4 3 2 1 2 3 4 6 6 6 6 6 8 10 12 14 15 16 19
97 92 88 83 80 77 73 70 70 70 68 66 62 55 51 46 41 36 29 23 18 13 6 2 1 1 2 5 5 6 6 4 2 3 5 7 9 10 13 16 19 23 26
90 85 81 80 76 73 70 69 68 67 64 61 54 48 45 39 33 27 22 17 11 5 2 4 4 5 6 6 6 6 4 2 2 5 9 12 14 16 20 23 26 28 29
83 81 79 76 73 69 67 66 64 62 59 53 45 42 37 31 24 19 15 10 4 3 6 6 8 9 7 7 8 8 7 5 9 12 15 16 18 19 18 20 24 24 21

GFSGL_250_spd_015.txt.gz
Wind_Speed
57 58 59 62 65 68 69 72 75 78 82 87 91 95 100 104 105 104 105 108 113 118 124 130 136 143 146 149 153 150 149 144 128 107 108 105 103 101 102 99 99 99 98
64 65 67 70 68 68 72 76 80 85 89 92 97 100 102 101 104 105 110 112 117 124 131 138 142 146 149 150 146 137 129 122 116 99 97 96 92 92 90 92 89 90 90
68 69 69 70 69 74 77 81 86 89 94 97 100 100 102 104 106 111 115 121 126 133 140 143 146 145 144 142 132 117 115 110 104 93 81 87 85 84 82 82 83 81 79
70 70 69 70 74 78 84 88 92 95 97 99 101 102 103 108 113 116 123 128 136 141 144 144 143 140 132 120 117 112 105 101 98 92 83 78 78 80 77 76 75 74 75
67 68 72 75 80 85 89 94 97 98 100 101 101 103 110 114 120 128 130 134 138 141 144 143 137 125 119 115 107 101 98 95 91 86 79 74 73 73 74 72 66 69 71
70 74 78 82 87 91 94 97 99 100 101 101 103 107 116 123 127 130 135 135 142 142 139 131 122 116 113 106 102 96 92 88 85 82 78 76 73 70 69 66 64 61 62
76 78 84 88 92 95 97 96 97 98 98 103 110 116 122 125 133 135 137 143 142 136 126 118 115 111 105 99 95 94 93 92 87 81 75 73 68 67 61 60 59 59 58
81 85 89 93 95 96 93 96 95 99 107 111 117 120 126 132 133 136 138 138 132 124 117 114 109 103 99 93 91 91 90 90 87 82 73 65 61 61 55 54 56 55 54
87 91 93 94 91 92 95 97 103 109 115 121 122 125 130 134 136 139 138 130 121 114 111 107 102 97 92 90 88 85 82 80 76 68 62 59 54 52 51 51 50 47 50
91 93 90 87 92 95 100 104 111 117 118 122 122 129 134 138 138 136 129 120 112 107 103 100 97 91 89 86 79 73 69 68 64 60 51 49 48 45 46 45 44 44 47
88 85 89 92 96 101 107 112 117 118 119 126 128 132 137 137 134 128 120 113 107 100 98 95 90 86 84 78 72 64 59 58 55 49 46 41 41 41 39 39 39 38 37
85 89 94 99 103 108 113 117 119 123 128 132 133 133 134 131 126 117 111 108 101 96 93 88 82 79 74 70 65 60 54 49 47 44 41 38 34 34 33 32 32 32 31
91 96 101 106 110 114 118 121 125 131 134 132 131 130 126 121 113 107 104 99 96 92 89 83 76 71 67 64 58 52 47 43 40 37 34 30 27 25 26 25 24 27 27
99 103 107 111 114 119 123 127 132 135 132 131 127 124 115 109 103 99 94 92 89 87 84 79 69 65 61 57 53 44 40 38 34 30 26 23 21 19 19 20 21 20 21
104 108 112 115 119 122 128 133 134 132 128 125 120 112 103 98 94 91 87 86 81 78 75 67 61 59 55 48 43 38 37 34 29 24 19 17 14 13 14 16 17 18 19
109 114 116 118 122 128 132 132 131 128 124 119 113 105 99 93 89 85 82 79 75 71 66 60 55 51 46 41 35 34 33 28 22 18 14 11 10 10 11 14 15 16 18
114 115 119 123 128 133 131 123 118 118 113 109 105 101 94 91 87 82 77 73 69 63 60 55 49 43 38 33 29 29 26 21 16 13 10 9 8 9 12 14 16 15 14
119 121 124 130 133 129 122 115 111 105 101 99 98 94 91 87 83 78 71 68 62 56 50 46 41 37 31 26 24 24 21 16 12 9 8 7 8 10 12 12 11 10 11
123 127 130 132 129 121 115 108 103 99 95 90 88 89 86 83 79 73 67 59 54 50 45 40 35 29 24 22 21 19 15 12 9 8 7 6 6 8 9 8 8 7 7
128 130 129 124 115 112 106 101 97 93 88 86 86 81 79 76 72 68 59 51 47 42 38 32 28 23 19 18 16 13 12 10 8 7 7 5 6 7 8 9 9 10 10
129 125 120 113 106 102 98 94 92 87 84 83 80 77 73 68 65 58 49 45 41 35 29 25 21 17 14 13 12 11 10 8 7 7 7 7 8 7 9 10 9 10 10
118 112 108 104 100 97 92 89 85 81 78 75 73 71 66 62 56 47 42 39 33 26 21 19 14 12 11 10 9 8 7 7 7 8 9 9 8 6 5 6 8 9 10
111 106 101 98 94 90 87 83 79 75 72 69 67 63 60 55 47 41 37 31 24 18 15 11 9 9 8 7 7 6 6 7 7 8 8 8 7 7 9 10 11 12 14
103 100 95 91 88 83 80 76 72 69 66 64 60 55 52 45 39 34 29 22 16 13 9 6 5 5 6 5 5 6 7 8 8 8 9 10 11 12 14 16 17 18 20
96 92 88 84 80 78 73 70 67 65 62 58 53 48 44 37 32 26 19 13 10 6 3 2 2 5 5 5 6 8 10 9 9 11 13 14 15 16 17 18 16 18 21
89 84 80 77 75 70 67 64 62 59 56 50 45 40 35 30 24 17 10 7 3 3 3 4 5 6 7 7 10 12 12 13 14 14 15 18 18 16 15 12 9 9 7

GFSGL_250_spd_018.txt.gz
Wind_Speed
56 58 60 63 67 70 72 76 79 80 81 84 85 84 87 93 97 100 103 105 106 107 109 113 118 122 128 135 138 143 149 151 152 141 123 111 107 104 101 99 96 93 92
64 65 67 70 72 73 76 80 81 83 85 82 87 89 95 97 101 102 104 104 106 108 113 118 124 131 136 140 145 146 149 150 140 118 104 103 101 97 90 88 88 87 87
69 71 74 74 75 77 80 81 79 82 87 90 91 97 98 101 101 102 103 105 110 115 120 126 132 137 143 147 147 148 146 130 119 109 98 95 91 91 84 82 82 82 81
72 73 75 79 79 78 80 79 81 86 90 91 97 100 101 100 100 103 106 112 115 121 127 133 139 145 147 148 145 140 124 114 109 101 95 91 90 89 83 78 76 79 77
73 76 79 79 76 78 81 84 86 89 95 98 99 98 97 100 103 108 113 118 123 128 132 140 146 149 146 144 132 119 112 108 101 95 93 90 87 87 83 78 72 73 75
76 78 78 77 80 81 83 88 91 96 98 96 93 96 99 105 110 116 121 124 130 135 140 145 148 144 139 125 116 110 106 101 97 91 88 81 79 79 74 71 67 65 66
77 74 73 75 79 85 88 91 95 94 89 92 96 101 106 113 119 123 127 131 137 141 143 144 142 133 118 110 107 102 100 100 93 84 73 71 69 71 65 64 59 56 58
70 72 77 81 85 88 92 93 89 89 92 98 101 107 116 122 126 130 133 138 141 143 143 139 129 117 108 102 95 94 95 92 86 77 69 62 61 58 56 56 52 50 48
74 76 80 85 89 91 92 87 90 94 100 105 111 118 125 129 132 136 139 142 143 141 136 126 116 107 101 94 89 86 86 83 77 70 62 56 56 50 49 48 46 43 39
78 82 85 88 91 88 89 93 98 101 106 113 121 125 129 133 138 141 143 143 137 129 121 112 105 99 95 89 84 80 77 72 68 66 56 48 48 44 41 40 39 36 34
82 85 89 89 87 91 96 98 104 110 116 121 125 130 134 138 141 143 141 134 125 115 107 102 96 94 89 84 79 73 66 62 61 56 51 47 43 39 36 34 32 29 28
85 87 84 88 91 95 101 107 113 117 122 126 130 135 139 141 142 136 128 122 113 105 99 96 91 86 83 78 71 65 60 55 52 47 44 41 37 34 30 26 24 23 24
82 84 88 92 96 103 109 115 120 125 128 131 134 138 140 138 130 123 117 110 104 97 93 91 87 82 76 70 64 59 54 49 44 39 36 33 29 25 23 21 21 21 22
84 88 93 99 105 111 117 122 126 130 133 137 138 137 133 124 118 111 104 100 95 91 88 85 81 75 68 62 59 52 48 43 37 32 29 25 23 21 20 19 18 17 18
90 96 101 107 113 118 124 127 130 136 138 137 133 126 116 110 105 99 94 92 89 83 79 77 72 66 60 54 50 44 40 36 32 27 23 20 18 17 17 16 15 14 14
97 103 110 114 119 122 124 129 135 135 134 130 122 113 107 101 95 92 88 87 81 75 74 69 64 57 52 46 41 38 34 29 26 22 19 16 15 14 13 12 12 13 13
105 111 115 118 121 124 128 128 126 127 122 115 109 106 101 95 92 87 83 79 73 69 65 60 54 48 43 38 35 31 26 24 21 18 15 14 13 11 11 11 12 12 11
112 116 117 121 126 127 125 124 120 113 107 107 107 101 96 91 87 81 75 70 66 62 58 52 46 41 36 31 26 22 20 19 17 14 12 12 11 11 11 11 11 9 7
116 118 122 126 126 124 120 115 108 105 104 100 96 93 89 86 80 73 68 63 59 55 50 43 38 34 28 24 20 18 17 16 13 11 11 11 10 10 10 9 7 4 2
120 124 124 123 119 115 110 106 104 100 97 93 88 85 82 77 72 67 60 54 51 46 41 35 31 27 22 18 16 16 15 12 10 9 9 10 10 10 10 8 7 7 7
123 123 121 114 112 106 104 100 95 92 87 85 82 78 71 67 64 58 50 46 42 37 31 28 25 20 16 15 14 13 11 10 8 8 9 10 10 9 9 8 8 8 7
121 114 109 107 103 101 95 92 88 82 80 78 75 70 65 60 55 48 43 38 33 27 24 21 17 13 12 13 12 10 10 9 10 9 9 9 9 10 11 11 11 11 11
109 108 103 100 96 92 89 85 80 77 75 71 66 63 59 53 47 41 36 31 25 21 17 13 10 10 11 10 10 10 10 11 12 12 12 13 13 15 16 17 17 17 17
105 100 97 94 89 86 82 79 76 72 68 63 60 55 51 46 40 34 28 22 18 14 9 7 7 9 9 10 11 12 12 13 14 16 17 18 17 17 17 17 18 19 19
99 95 91 87 84 80 78 74 70 65 60 57 52 48 44 38 31 25 18 14 10 6 4 5 7 10 11 11 12 13 15 18 20 20 18 15 15 15 14 15 16 16 17
94 89 84 82 79 75 71 68 63 59 55 49 46 42 36 29 22 16 11 8 3 2 3 5 8 10 10 12 14 17 22 24 22 20 17 15 11 8 8 7 6 6 7

GFSGL_250_spd_021.txt.gz
Wind_Speed
61 63 64 65 67 68 70 71 73 75 77 81 82 83 84 85 87 90 94 97 100 104 105 101 104 110 113 117 122 127 132 138 141 136 137 138 135 123 115 108 102 98 96
66 68 69 70 72 73 74 74 76 78 82 84 84 83 85 90 92 94 99 103 103 98 100 106 111 115 120 125 129 133 138 142 142 141 134 124 112 105 98 94 91 89 89
71 72 73 75 76 76 76 77 79 82 84 84 83 86 89 92 97 99 101 98 97 103 108 112 116 122 126 131 135 139 140 141 143 131 110 103 96 96 88 85 85 86 86
76 76 78 79 78 78 78 80 83 84 83 84 86 90 94 97 99 98 95 99 104 110 114 120 125 130 134 138 140 141 142 134 123 111 99 93 89 89 83 83 83 85 83
79 81 80 79 79 79 80 83 83 82 84 88 91 94 98 98 95 98 102 106 111 117 122 127 132 137 140 141 141 138 127 117 107 99 92 87 84 83 81 82 77 76 77
82 82 79 79 79 81 82 84 83 85 88 91 95 96 95 97 100 104 109 115 121 126 130 134 138 141 142 140 130 122 113 103 97 90 86 81 80 79 78 75 70 66 68
80 78 77 79 81 82 82 84 85 89 94 95 95 95 99 103 106 113 119 125 130 133 137 138 140 141 134 120 114 105 100 97 92 84 78 76 72 73 69 68 64 58 56
76 77 79 80 81 82 83 87 90 93 93 93 96 101 103 109 117 123 128 132 136 139 142 142 135 124 116 108 98 93 92 92 87 82 75 71 66 63 61 58 54 53 47
76 77 79 79 80 84 89 91 91 91 92 98 102 106 111 119 127 131 134 137 140 143 140 130 119 110 103 96 89 86 86 85 82 76 70 64 61 57 52 51 46 43 40
75 76 76 79 85 89 90 89 89 94 98 103 108 115 121 127 132 136 139 142 140 134 123 115 107 98 94 89 85 80 77 77 74 72 66 58 53 50 46 44 40 36 34
72 77 83 86 87 86 85 90 95 99 104 110 117 123 128 132 136 141 143 139 128 115 111 103 97 92 87 84 80 76 71 68 66 62 57 52 47 43 41 39 35 30 29
79 82 83 83 82 85 91 97 102 106 112 119 125 129 132 137 141 140 135 124 115 107 99 94 89 85 81 77 74 71 66 61 57 52 48 43 39 38 36 32 28 24 23
78 80 78 82 87 93 98 103 109 116 121 127 129 133 137 140 137 128 118 111 106 97 93 88 84 79 76 74 69 64 59 55 49 44 39 35 32 32 29 25 22 18 18
76 78 82 89 95 100 105 112 118 123 127 130 135 138 136 131 121 113 107 101 96 90 87 83 78 75 71 68 62 56 51 45 41 37 32 28 27 25 22 19 17 14 13
78 83 90 95 101 107 114 119 124 128 132 136 137 131 121 115 110 104 97 91 86 82 78 75 72 69 65 59 53 48 42 38 34 29 25 23 21 18 17 15 14 12 10
84 90 97 102 109 114 118 122 127 133 135 133 125 116 110 106 100 96 90 86 80 75 72 70 66 61 55 49 45 40 36 31 26 22 19 17 16 16 14 13 12 11 10
92 98 103 109 115 119 122 127 131 131 126 120 113 108 103 98 93 87 83 79 74 70 68 64 59 52 45 41 37 32 28 24 20 17 15 14 14 13 12 12 11 10 8
99 104 109 114 118 123 128 130 124 117 112 107 106 103 97 92 86 81 75 73 71 66 62 57 50 43 38 33 29 25 20 17 15 14 13 13 11 10 10 10 9 7 5
105 109 114 119 124 127 123 115 113 109 103 101 98 96 91 86 80 74 71 68 64 59 54 47 41 35 30 26 21 17 15 14 12 11 10 10 8 7 7 6 4 4 3
110 114 120 124 122 114 110 109 106 101 100 97 92 87 82 77 74 70 65 61 55 50 44 38 33 27 22 19 17 15 13 12 11 11 11 10 9 8 7 5 4 3 2
115 120 122 118 113 110 106 102 99 98 94 90 86 79 75 71 68 63 57 52 47 42 35 29 25 21 17 16 15 14 14 14 14 14 14 15 15 13 11 10 10 8 5
119 119 115 111 106 102 99 98 97 91 86 82 78 74 69 66 61 56 50 44 39 33 26 23 19 16 15 14 14 15 15 15 16 17 17 17 17 16 16 14 12 11 11
117 111 108 103 99 96 97 94 89 83 79 75 72 68 64 60 54 48 42 37 31 25 22 19 16 15 14 14 15 17 19 21 21 21 19 18 17 17 17 17 16 16 15
110 106 101 96 94 94 92 88 81 76 72 69 67 62 58 52 46 40 35 30 24 20 17 15 14 13 13 15 17 19 21 22 21 20 18 16 15 14 15 16 17 17 18
103 97 94 91 91 88 85 78 73 70 67 65 60 55 50 44 38 33 28 23 19 15 13 12 12 13 15 16 18 21 23 21 21 22 16 13 13 13 14 14 16 18 19
94 91 90 89 86 81 75 70 66 64 62 58 53 47 42 35 31 26 21 16 13 11 11 12 12 13 14 15 18 22 26 30 29 28 25 19 13 9 8 9 10 8 8

GFSGL_250_spd_024.txt.gz
Wind_Speed
56 60 63 67 69 72 74 78 79 80 82 83 83 83 82 83 86 88 87 89 91 93 98 101 105 108 107 109 112 114 119 126 130 123 127 131 134 136 134 130 123 116 111
63 66 69 72 75 77 81 83 83 84 85 84 84 84 85 88 89 90 91 94 96 99 104 105 105 107 111 113 117 122 128 132 137 136 132 131 127 119 111 105 101 99 96
68 71 74 77 80 82 85 86 87 88 86 85 85 86 88 90 92 93 95 97 103 105 106 105 109 113 115 120 126 130 133 135 138 134 124 116 107 103 96 94 91 93 94
73 75 79 82 84 86 88 89 89 87 86 87 88 89 92 95 95 97 101 104 105 104 108 112 115 119 124 129 132 134 135 132 127 118 109 103 99 94 90 85 86 91 89
77 80 83 86 88 89 89 88 87 86 88 89 91 92 94 97 101 103 103 101 104 108 113 118 122 126 131 134 136 133 126 116 111 106 101 97 92 88 85 83 78 81 83
82 85 89 90 89 89 88 86 87 88 89 91 91 93 99 102 103 101 102 107 112 116 119 124 128 131 136 135 128 118 114 111 105 97 92 88 85 81 77 77 75 71 70
86 90 90 90 89 85 86 86 87 88 89 91 96 99 99 99 101 105 111 115 120 124 127 131 135 137 129 118 110 109 107 106 101 92 84 81 74 73 70 70 65 61 60
90 90 89 85 84 85 86 85 85 89 92 97 97 96 97 102 107 113 118 122 126 131 135 137 133 121 115 110 105 100 97 95 91 85 78 70 69 67 62 59 55 54 53
87 82 81 82 83 83 83 86 90 93 95 95 95 99 103 109 115 121 125 129 132 136 138 128 119 114 108 102 95 88 85 84 81 75 68 64 61 57 53 51 47 46 44
79 79 80 81 81 84 87 90 92 93 93 96 100 106 111 116 124 128 132 133 134 130 122 117 112 107 100 93 86 81 77 75 72 70 63 57 53 49 45 42 39 38 37
77 77 78 80 84 87 89 90 91 92 97 103 108 113 119 124 129 134 136 135 127 116 110 104 101 95 90 86 80 75 70 67 65 60 56 50 43 38 36 35 34 31 29
75 76 80 84 87 87 88 89 93 98 104 110 115 120 125 129 135 136 133 124 117 108 102 96 90 87 82 77 72 69 65 60 56 53 47 41 36 33 32 31 28 24 22
77 81 84 83 81 82 87 93 99 106 112 118 122 125 130 135 135 129 120 111 105 100 95 90 85 79 74 71 66 61 57 53 48 43 38 34 31 30 28 26 23 20 16
80 80 77 78 83 88 95 101 107 113 118 123 127 132 134 133 126 117 106 101 96 93 91 84 78 73 68 64 60 55 51 45 39 34 31 28 27 26 23 21 19 15 12
69 73 78 83 89 96 102 109 115 120 124 129 133 133 127 119 111 102 98 92 88 85 80 76 71 66 60 55 52 47 42 37 32 28 26 24 23 21 19 17 15 13 11
72 78 84 90 96 102 108 114 120 126 131 135 133 125 116 108 99 94 90 88 83 80 74 69 64 60 54 49 44 39 34 31 28 25 23 22 20 19 17 14 12 11 9
79 85 91 97 103 109 113 118 123 129 132 127 120 114 106 99 93 87 85 83 76 73 68 63 58 54 49 44 38 33 31 28 25 23 21 19 18 16 14 12 11 9 6
86 92 98 104 109 113 119 125 127 124 116 113 109 103 98 93 86 81 79 76 70 64 60 56 51 47 43 37 32 30 28 26 24 22 20 18 16 13 12 10 9 7 4
93 99 104 109 114 120 124 124 118 115 108 102 98 96 92 87 82 76 72 68 64 58 53 49 44 40 36 31 29 28 26 25 23 21 19 16 15 13 12 11 8 6 5
100 104 109 115 120 122 119 114 110 104 99 96 94 88 83 80 77 72 65 60 55 51 47 42 37 33 30 28 26 25 24 23 22 21 19 17 16 14 12 11 10 9 7
105 111 116 119 119 116 112 106 101 98 94 92 88 81 77 73 69 64 58 52 48 44 39 34 31 28 26 25 24 24 23 22 20 19 19 18 16 13 11 10 10 9 8
112 116 118 116 112 109 103 99 95 92 90 84 80 76 72 67 62 55 50 45 41 37 32 29 26 24 24 25 25 25 24 22 21 20 19 19 19 16 13 11 10 9 9
116 116 111 110 104 100 98 94 91 88 82 77 74 70 66 59 53 48 43 39 34 30 27 25 24 24 25 25 25 24 23 20 21 22 22 19 18 18 16 14 13 12 11
114 110 107 101 98 95 92 90 86 80 75 73 69 64 58 51 45 41 37 33 28 25 23 22 22 24 23 24 22 23 25 24 22 19 18 18 14 13 15 15 15 15 14
108 104 99 96 94 90 88 84 78 74 71 67 63 57 50 43 39 35 31 27 24 22 20 21 22 23 23 24 25 27 31 30 26 20 16 12 12 11 10 10 10 11 12
101 96 95 92 88 86 81 75 71 68 65 61 55 49 42 37 32 29 26 22 19 18 19 20 21 22 25 26 28 33 31 29 24 18 19 16 12 9 7 8 7 6 6

GFSGL_250_spd_027.txt.gz
Wind_Speed
48 50 54 59 62 66 69 72 75 78 81 85 90 92 92 92 91 89 90 92 94 96 98 98 99 103 106 107 108 108 110 115 117 111 120 124 127 130 134 137 139 137 133
53 56 59 64 68 72 75 78 82 84 87 92 96 95 94 92 91 92 94 94 96 96 97 101 106 106 107 108 110 114 118 123 129 129 125 129 131 129 125 120 116 114 111
60 63 66 71 75 79 81 84 87 90 94 98 96 95 93 93 95 95 95 96 97 101 104 103 104 106 110 114 119 122 126 129 133 134 127 120 113 110 105 103 101 101 99
65 68 73 77 81 83 86 89 91 96 99 98 95 93 95 95 95 95 97 99 101 102 103 104 109 114 118 122 125 128 131 131 127 121 112 103 101 98 96 91 91 92 89
71 75 79 82 85 87 91 93 98 99 98 95 94 94 96 96 97 99 99 100 101 102 107 112 118 122 125 129 132 131 124 116 111 105 100 97 95 91 88 87 83 82 83
76 80 83 85 89 92 95 98 99 95 93 94 95 94 96 98 99 101 100 101 104 110 114 119 124 127 132 133 126 116 113 107 102 96 94 88 84 83 81 78 76 75 76
80 82 86 90 93 96 99 97 91 91 92 92 94 96 99 101 100 101 103 108 113 118 122 125 130 135 130 117 112 108 106 105 101 92 84 83 77 75 74 73 69 68 66
82 87 90 94 97 97 91 89 90 90 90 93 96 99 99 98 101 106 112 116 120 124 128 133 133 124 114 109 102 100 98 96 92 87 79 75 72 69 67 64 61 59 57
88 91 94 95 91 86 87 88 89 90 93 96 98 95 98 104 110 116 120 122 126 128 133 130 119 110 106 102 96 92 89 86 82 77 73 69 66 61 57 55 52 52 53
90 92 87 82 83 85 86 87 89 92 94 94 94 99 105 112 118 122 124 128 130 129 123 116 110 105 101 95 90 84 80 76 73 70 65 59 55 51 48 47 47 45 44
83 79 80 81 82 83 85 89 90 89 88 95 100 108 114 120 123 127 130 133 127 118 112 105 102 97 91 86 81 76 71 69 65 60 55 51 47 45 42 38 37 35 33
77 77 79 80 81 84 87 85 84 89 94 101 107 114 120 125 130 132 133 127 120 111 105 101 93 88 84 78 73 69 65 60 57 52 47 44 43 39 36 33 31 29 27
74 77 77 81 84 82 79 85 90 96 101 107 112 117 123 129 131 129 122 114 107 104 101 93 87 81 76 70 66 62 58 52 47 44 41 38 36 33 31 30 27 24 22
75 77 80 79 76 79 85 90 97 103 108 113 119 125 128 129 124 115 108 104 99 96 90 86 80 74 70 64 59 54 49 44 41 38 33 31 30 29 28 26 24 21 17
75 75 72 73 79 85 92 98 104 110 114 120 127 128 125 119 111 103 100 95 89 85 81 77 73 67 61 57 51 45 41 38 33 30 29 28 28 27 25 24 21 18 15
69 68 73 78 84 91 97 103 110 116 123 130 129 125 119 112 103 97 94 89 83 80 75 71 65 60 55 48 43 38 34 31 28 28 27 26 25 24 24 21 18 16 14
67 73 78 84 90 97 101 106 111 121 129 129 123 117 110 104 96 91 87 82 76 74 69 63 58 53 46 41 37 32 30 28 27 26 24 23 22 21 19 19 18 14 12
72 78 84 90 96 101 107 113 119 124 121 117 114 107 102 96 90 84 80 76 71 66 61 56 51 45 39 35 31 30 28 27 26 23 22 22 21 20 18 17 17 13 10
78 85 90 96 101 107 113 119 122 118 113 108 103 99 94 91 86 78 72 69 65 59 55 49 43 37 32 30 29 28 28 28 26 24 22 21 19 19 18 17 16 13 11
85 90 96 101 107 113 118 119 114 111 106 102 96 90 87 83 78 73 67 63 57 52 47 41 36 32 30 29 28 29 28 27 27 26 25 23 22 19 17 17 15 14 12
92 97 102 107 113 117 116 111 108 104 99 95 91 84 79 74 69 65 61 55 50 45 39 35 31 30 29 29 28 26 23 22 22 22 22 23 23 22 19 17 16 14 12
98 102 108 114 117 114 109 106 102 97 93 89 84 78 72 67 63 59 53 47 42 37 32 30 29 29 29 29 26 21 21 20 23 22 23 25 24 23 20 18 16 15 13
104 109 115 117 111 106 104 99 96 90 88 83 76 70 65 62 57 52 46 40 35 31 28 28 28 29 28 25 22 18 19 21 20 20 23 26 23 17 15 14 15 16 15
110 115 115 107 104 100 96 94 89 85 80 74 68 63 60 55 50 44 38 32 28 26 25 26 28 27 27 25 22 27 26 25 21 17 18 20 18 13 9 8 9 11 13
115 111 105 101 97 93 91 87 83 78 72 66 62 58 54 48 42 36 31 26 24 22 24 26 26 26 28 28 28 31 30 25 19 16 14 12 11 11 8 5 4 7 9
108 103 99 94 91 87 83 81 76 69 64 61 57 52 46 40 33 29 24 22 21 21 22 23 25 26 29 33 33 32 29 21 17 17 15 10 8 6 6 6 4 2 3

GFSGL_250_spd_030.txt.gz
Wind_Speed
51 52 54 56 57 58 61 64 67 72 77 81 84 88 91 93 97 101 101 97 95 97 99 101 102 101 102 102 102 102 105 110 111 106 113 118 122 125 127 130 132 132 129
53 55 58 59 61 64 67 70 73 79 83 87 90 94 96 100 104 102 97 96 98 99 101 102 102 101 102 104 106 109 114 119 123 124 122 126 128 129 126 122 117 116 112
56 59 61 63 66 69 73 75 81 85 89 91 96 99 103 105 101 97 97 99 100 101 101 102 101 102 106 111 116 120 124 127 130 132 127 122 116 114 109 106 105 105 103
60 63 64 67 70 74 77 82 86 90 93 97 100 104 105 99 97 98 99 100 100 102 101 102 107 112 117 121 124 127 129 129 126 121 114 106 103 99 98 95 94 94 90
63 65 68 71 75 79 82 87 91 94 98 102 105 103 96 96 97 98 97 98 98 99 106 111 117 122 126 128 130 129 125 117 112 105 100 96 93 90 88 88 85 83 82
67 70 72 76 80 83 87 90 94 99 103 105 98 95 96 98 97 97 96 95 102 108 114 119 124 128 130 131 126 120 115 107 99 95 91 87 87 83 81 78 76 75 73
71 74 78 80 83 87 90 94 99 102 102 94 94 96 97 96 95 93 98 104 111 118 122 125 129 130 126 118 110 107 104 100 94 86 85 84 81 77 74 71 66 65 64
75 78 81 83 87 90 95 99 102 96 92 93 95 94 94 92 94 99 106 113 119 125 128 131 129 119 114 107 102 99 96 90 87 83 79 77 73 71 67 62 59 57 55
78 80 83 86 90 95 99 98 91 91 92 92 93 91 89 96 101 108 114 119 124 129 132 129 119 110 105 100 96 89 86 83 80 74 71 68 65 62 59 56 52 50 46
79 82 86 91 95 97 93 89 88 90 90 90 88 90 96 102 110 116 120 125 128 128 126 119 112 107 100 94 87 82 79 76 72 67 62 58 56 53 50 47 46 43 42
82 86 91 94 93 87 86 87 87 87 87 85 90 96 103 110 115 121 127 131 129 122 117 109 103 98 92 86 82 77 72 68 64 61 57 51 46 43 40 39 38 36 32
87 90 90 85 83 83 85 84 84 81 83 89 95 102 109 116 122 127 131 130 123 116 109 102 96 89 85 81 77 69 64 60 57 53 48 44 40 37 35 32 30 28 28
87 81 79 80 82 82 81 80 79 83 89 95 101 107 113 120 125 129 128 120 113 108 101 95 88 83 80 74 67 62 58 54 49 44 40 38 35 31 28 28 26 25 24
76 77 79 79 78 78 75 77 83 88 94 101 105 111 118 124 126 123 115 109 103 99 94 88 83 79 74 67 61 56 52 46 41 39 36 32 30 28 26 24 23 22 21
75 76 75 73 70 72 77 83 89 96 101 105 110 116 122 123 120 111 105 99 95 90 84 82 78 71 64 60 55 50 44 39 36 34 31 29 26 25 25 23 22 22 20
73 68 64 65 70 76 83 90 96 100 106 111 118 123 123 118 108 102 98 94 88 83 80 76 70 64 58 52 47 43 38 34 32 30 28 26 26 24 24 22 20 20 18
58 59 64 70 76 83 88 93 99 108 113 119 124 122 116 109 100 94 92 86 80 79 75 69 62 56 52 46 41 37 34 31 29 27 27 27 27 26 23 22 19 18 17
59 64 70 76 83 88 93 99 104 109 116 123 120 114 108 102 94 89 84 80 76 73 68 62 56 50 45 39 35 33 31 29 27 26 25 25 26 26 25 21 19 18 14
65 71 77 83 88 93 99 105 110 117 121 114 111 106 100 94 89 82 77 75 72 66 60 55 49 44 39 35 33 31 29 27 26 26 27 26 24 24 24 24 20 17 13
72 78 83 89 95 100 106 111 117 118 111 108 103 96 89 87 82 77 73 70 64 58 53 48 43 38 34 32 31 30 27 27 27 28 29 28 27 26 24 23 22 16 15
78 84 90 96 101 106 111 116 115 108 106 101 96 88 83 78 74 70 67 62 56 51 45 41 37 34 33 31 30 28 27 30 31 32 33 31 28 25 25 22 21 19 13
85 91 97 102 107 113 116 112 104 101 97 94 87 84 77 72 68 65 60 54 49 44 39 35 34 32 30 28 26 26 29 29 30 29 30 30 28 25 20 19 17 18 14
92 98 102 107 112 116 109 102 97 94 92 86 81 76 70 66 63 58 53 48 43 38 34 33 32 32 30 27 30 31 30 29 27 25 26 27 26 22 16 13 12 14 14
98 103 107 112 115 105 98 94 92 90 84 80 74 68 63 60 55 50 45 41 36 32 31 30 30 32 31 29 33 31 29 27 26 25 25 24 22 18 12 8 8 10 12
104 108 111 114 102 95 92 90 88 83 79 71 65 60 57 52 47 43 38 34 29 28 27 27 29 31 34 37 38 34 28 25 24 23 22 19 17 14 10 6 5 8 11
108 111 114 103 94 91 88 86 82 77 70 63 58 55 49 45 41 36 31 27 25 25 24 24 28 32 37 39 38 34 28 23 22 21 19 16 14 12 9 6 4 5 7

GFSGL_250_spd_033.txt.gz
Wind_Speed
53 53 54 55 57 58 60 62 64 67 71 73 76 80 83 88 93 98 100 106 110 115 110 103 105 103 100 101 99 102 107 113 114 110 115 120 122 124 125 124 122 119 118
54 53 55 56 59 60 62 66 70 72 75 78 81 84 89 94 99 102 107 112 116 109 106 105 101 100 97 100 106 111 117 122 126 125 123 125 124 122 116 111 109 105 102
54 55 56 58 60 63 66 70 72 76 78 81 85 90 94 99 104 108 112 116 107 106 103 99 97 98 104 110 116 121 125 127 132 131 119 116 111 107 102 100 98 97 94
54 56 59 61 64 66 70 73 75 78 81 85 91 95 99 104 108 112 115 105 106 103 100 96 102 108 114 119 123 127 130 130 126 116 110 104 102 98 95 90 89 87 84
57 59 62 64 67 71 74 77 81 83 87 92 96 100 103 107 112 112 103 104 100 96 98 104 111 117 122 127 130 131 130 122 111 103 102 98 94 89 86 84 79 79 78
59 62 65 69 71 75 79 82 84 88 91 96 100 103 108 112 107 104 101 97 95 99 105 112 119 124 127 131 132 127 120 108 99 94 94 90 89 82 81 75 72 69 70
61 65 68 72 75 79 81 84 88 92 96 99 102 108 110 102 102 97 93 94 100 107 114 120 124 129 131 129 121 116 110 103 96 89 88 84 82 76 73 70 64 61 59
64 68 71 75 78 81 84 87 92 95 98 103 107 106 100 99 92 91 93 100 107 115 122 127 129 131 127 117 109 105 101 96 89 85 81 77 73 70 66 62 60 55 49
67 70 73 76 78 81 85 89 93 98 103 107 99 99 94 92 89 94 99 106 113 120 126 130 130 123 114 107 100 96 92 88 83 76 72 69 66 62 60 58 54 49 43
69 71 73 76 80 84 89 93 98 103 100 95 96 91 88 89 94 100 107 113 118 124 130 129 121 113 107 99 94 88 85 81 77 71 65 62 58 54 49 47 47 44 40
70 74 77 81 85 89 94 99 98 92 93 91 86 85 90 94 100 106 113 119 124 127 126 117 110 105 98 93 87 82 78 74 68 64 60 55 49 46 43 40 39 39 36
73 77 81 85 90 94 95 89 88 89 85 80 82 90 96 102 107 112 119 126 128 124 115 107 101 98 92 86 81 76 71 65 61 57 53 47 43 40 38 36 35 34 32
76 81 86 89 90 85 85 85 82 75 75 81 87 94 100 106 112 118 125 128 123 115 107 100 95 89 83 79 73 69 63 58 54 49 45 41 38 36 34 31 31 30 30
82 83 83 80 81 82 79 72 70 76 81 87 93 99 105 110 117 122 125 121 113 105 98 94 87 82 77 74 68 61 56 51 46 42 39 37 35 33 31 28 29 27 24
76 74 76 78 76 68 66 69 75 82 87 92 98 104 108 115 120 121 117 109 99 94 90 84 80 76 70 66 60 55 49 45 42 40 37 36 35 32 30 27 26 27 25
71 74 74 68 63 64 70 76 81 87 94 100 105 110 117 122 119 115 107 100 92 89 82 78 74 69 65 59 54 48 45 42 40 39 38 37 36 33 29 26 23 23 22
71 67 61 61 64 69 75 81 88 97 103 107 111 118 122 118 112 105 99 93 86 81 76 73 68 63 57 53 48 45 43 41 40 38 37 35 33 32 31 26 20 20 20
61 59 60 63 69 74 81 87 93 99 105 111 117 119 115 110 104 95 90 88 81 75 73 68 62 57 52 48 45 43 41 40 39 38 37 36 36 35 30 28 22 16 17
56 59 63 69 74 81 87 93 100 105 110 115 114 110 106 103 95 87 84 79 75 71 66 61 56 51 47 44 42 39 41 42 41 38 37 37 35 33 33 28 22 16 14
59 64 69 75 82 88 93 99 105 109 115 111 107 103 97 92 87 83 76 72 69 64 59 55 51 46 43 40 38 38 39 40 40 40 41 40 37 32 26 24 21 17 11
64 70 76 82 88 93 98 104 108 113 105 103 101 94 88 83 80 74 70 67 62 57 53 50 45 43 39 36 32 36 40 41 40 37 34 31 27 24 18 19 20 15 9
71 76 82 88 93 99 105 107 113 102 99 96 92 88 82 76 71 67 65 60 55 51 48 44 42 40 37 33 31 33 36 37 35 33 31 30 29 25 19 17 15 12 8
77 83 89 94 100 104 107 113 99 96 94 91 87 82 75 69 65 62 58 53 48 45 42 40 39 36 34 35 36 37 36 33 33 32 31 29 26 20 15 13 12 9 7
84 90 95 101 104 109 114 98 93 93 90 86 81 73 67 62 60 55 50 45 43 40 38 37 35 33 35 37 39 38 34 31 31 31 30 26 22 19 15 11 9 6 5
91 97 101 103 109 112 98 92 90 89 86 80 72 64 60 58 52 47 42 40 37 35 35 33 31 33 38 41 41 37 34 31 28 27 26 23 20 15 12 10 7 5 4
98 101 104 109 110 95 90 88 88 85 80 70 62 58 55 49 44 39 37 34 32 31 30 29 31 36 40 41 40 36 32 29 26 23 22 19 16 13 10 8 6 1 3

GFSGL_250_spd_036.txt.gz
Wind_Speed
49 48 49 51 53 53 55 56 58 60 63 66 70 73 77 79 82 86 89 93 96 101 105 109 114 118 123 114 115 109 106 109 109 105 114 119 123 125 127 121 114 108 106
49 49 51 52 54 55 57 58 60 63 67 70 73 78 81 84 88 92 95 98 101 106 110 115 120 120 114 112 105 106 110 116 121 121 121 125 131 129 120 111 106 101 97
49 50 51 52 53 55 58 61 63 66 70 74 78 82 85 89 93 95 97 101 107 111 115 120 115 112 105 103 107 113 119 123 128 130 129 130 122 116 106 100 94 92 89
49 49 52 53 55 57 60 64 67 70 73 78 82 86 89 92 94 97 102 107 111 116 120 111 110 104 103 109 115 121 126 129 131 131 126 118 110 103 96 90 88 85 80
48 50 53 54 57 60 63 67 71 74 78 83 87 89 92 94 97 102 106 111 115 115 110 105 100 103 110 117 122 126 131 132 127 120 112 106 98 92 89 85 81 78 74
50 52 54 56 60 63 67 70 74 78 83 87 90 92 93 97 101 106 110 114 109 109 100 97 103 111 117 123 129 133 136 127 115 106 100 94 91 85 83 77 74 68 70
51 53 56 60 63 67 71 74 78 82 86 89 90 93 98 101 106 110 110 105 103 95 98 104 110 118 124 129 132 132 125 114 106 97 92 87 85 79 76 71 67 61 56
52 55 58 62 66 70 74 78 82 85 88 89 93 97 102 106 109 103 103 94 91 98 105 113 118 124 130 132 126 118 111 103 97 91 86 81 75 70 67 64 61 57 50
56 57 59 62 67 71 76 79 83 85 89 93 97 102 105 104 101 95 88 91 97 104 113 120 126 129 129 121 111 105 99 95 88 83 78 72 67 62 59 58 55 52 49
55 59 62 66 70 74 77 81 85 89 93 98 102 102 96 97 87 86 91 97 104 110 118 125 130 129 118 110 102 96 92 87 83 77 70 64 59 55 51 49 49 50 44
57 61 66 70 74 77 82 86 89 94 98 99 95 95 89 82 85 91 97 105 112 117 124 128 127 115 108 102 96 91 84 80 75 69 63 59 53 50 47 45 43 44 43
61 66 69 73 77 80 85 89 93 95 94 90 90 83 82 86 91 96 106 113 119 124 128 125 113 106 100 96 90 83 79 73 67 62 57 52 50 48 43 41 41 39 38
64 68 72 76 81 86 89 91 90 87 88 83 77 80 86 92 99 106 114 119 125 129 126 115 104 98 93 86 81 77 71 66 60 55 51 50 47 45 43 38 36 37 34
68 72 77 81 85 86 85 84 86 82 76 75 78 84 90 98 105 112 118 124 127 123 112 102 95 90 82 78 76 70 64 59 54 51 48 46 45 43 41 37 32 33 31
74 78 80 80 79 79 82 82 76 73 74 78 84 90 96 103 110 115 122 124 117 106 98 93 87 79 75 71 66 61 57 52 50 47 47 44 42 39 35 33 30 27 31
75 73 73 74 78 79 77 72 70 74 78 83 89 96 102 109 114 122 123 115 103 95 91 85 78 74 71 65 58 52 49 48 46 45 43 42 39 35 33 31 29 25 26
66 70 74 76 76 71 68 69 75 81 85 90 97 103 109 116 122 120 113 103 94 89 82 76 72 69 63 57 51 48 47 46 45 43 42 41 38 36 35 33 29 24 22
71 73 73 70 66 65 68 73 78 83 90 98 105 109 116 122 118 110 100 94 88 80 74 72 68 62 56 50 46 45 44 45 42 42 43 42 39 37 32 29 26 18 16
68 65 61 61 63 68 72 78 84 89 95 102 106 115 119 113 108 97 90 86 81 74 70 66 61 55 48 44 43 41 43 45 46 45 42 37 33 27 23 20 19 14 11
58 56 59 63 67 72 78 84 90 95 101 106 113 114 106 101 96 91 84 77 71 69 65 59 53 47 44 41 39 40 42 43 43 42 38 33 26 21 18 16 16 13 11
55 59 64 68 74 79 84 90 96 100 106 113 110 103 96 88 86 81 75 69 66 62 57 52 46 42 40 36 37 39 41 41 39 37 32 27 24 22 17 14 15 12 10
61 65 70 75 80 85 92 96 101 107 110 103 98 94 87 82 77 71 67 64 60 55 49 43 41 40 38 38 39 41 40 38 37 36 32 29 26 20 14 11 10 6 7
66 71 76 81 86 92 97 103 108 106 97 93 89 85 80 74 68 64 61 57 53 47 43 39 37 36 37 39 41 40 37 36 34 34 32 28 25 20 11 8 6 4 4
72 77 82 88 93 98 103 108 101 92 89 86 83 77 71 65 60 58 53 49 45 40 37 36 35 36 38 41 42 38 35 33 32 32 30 27 24 19 13 5 4 1 3
80 85 90 94 98 104 107 98 89 87 84 80 75 69 62 57 55 50 45 41 37 34 34 33 33 35 39 41 39 38 36 33 33 29 27 25 23 17 10 5 2 3 9
87 92 95 100 105 105 93 85 84 82 78 73 67 59 55 52 48 42 38 35 32 32 31 31 34 37 40 40 38 37 35 31 28 28 27 23 19 16 12 6 3 5 11

GFSGL_250_spd_039.txt.gz
Wind_Speed
59 57 54 54 54 53 53 55 55 57 59 62 63 65 66 68 71 75 79 83 88 92 96 100 101 102 105 109 114 119 122 115 110 94 104 109 115 119 124 128 124 119 115
59 57 55 55 54 54 54 55 57 58 61 63 65 67 69 71 75 79 84 88 93 98 101 101 103 106 111 116 121 118 113 106 105 106 110 118 123 129 131 128 118 110 101
58 56 54 54 54 54 54 55 58 60 62 64 67 69 72 76 79 83 88 93 98 103 102 104 108 113 118 121 114 109 100 108 115 119 119 126 130 131 123 114 106 100 94
59 56 53 53 54 55 55 56 58 61 63 66 68 72 75 80 84 89 93 99 103 104 105 109 114 118 117 112 100 103 109 116 122 125 128 132 127 118 109 99 95 90 85
58 55 53 53 54 55 55 56 59 61 64 68 71 75 80 85 89 94 99 103 104 107 111 116 118 113 107 98 103 110 118 124 126 129 129 119 112 103 97 92 85 84 78
56 54 53 53 53 54 54 56 60 63 67 72 76 80 85 89 93 98 99 103 107 111 116 114 111 98 99 106 112 121 128 130 130 124 115 106 100 94 90 85 81 76 75
54 52 50 50 51 53 54 58 61 66 70 74 78 82 86 91 94 98 102 107 111 113 109 108 96 100 107 112 120 127 133 135 125 113 104 97 93 86 84 81 75 69 63
50 49 49 49 52 53 56 60 65 70 74 78 81 85 90 93 98 101 107 111 108 108 99 96 100 107 115 121 124 130 133 122 111 103 95 89 83 79 75 72 69 66 59
47 47 48 51 53 56 61 65 70 74 77 80 85 88 93 97 101 108 106 104 103 93 96 103 109 115 122 125 129 129 117 108 101 95 86 81 77 71 66 64 60 54 56
43 46 50 53 55 60 65 69 72 76 80 85 88 93 96 103 105 102 102 92 90 94 102 109 116 123 125 129 124 111 105 100 94 86 80 75 69 64 58 52 52 51 50
44 46 49 53 58 62 67 71 75 80 84 89 93 97 103 99 99 97 88 89 93 100 108 117 122 125 128 121 109 104 98 90 84 79 74 69 63 56 49 44 44 44 48
43 47 52 57 61 66 71 75 80 84 88 92 99 100 97 98 89 86 89 95 102 109 117 123 125 127 118 107 102 96 88 81 77 72 67 62 57 52 47 42 40 37 40
47 51 56 61 66 70 75 80 83 88 93 96 92 94 93 87 85 89 95 102 110 117 125 128 127 115 106 100 92 85 80 75 69 65 61 55 51 47 45 41 34 32 31
52 56 60 66 71 75 79 84 89 93 90 89 90 86 81 84 88 94 101 109 115 122 126 125 112 102 97 89 82 78 74 68 64 61 57 51 47 41 39 38 32 26 24
56 61 66 71 75 80 85 88 86 85 87 84 78 79 83 87 93 99 106 114 119 121 118 107 99 94 85 77 73 68 65 61 58 55 51 47 40 40 40 40 36 29 28
62 67 72 76 81 82 82 82 82 79 74 73 77 81 87 92 97 104 114 120 118 113 103 96 90 82 76 73 68 62 56 53 51 48 45 44 44 45 42 37 35 32 27
69 73 75 75 75 77 78 75 72 71 73 77 82 88 94 100 105 113 118 116 109 100 94 87 78 73 71 65 61 56 53 49 46 45 48 49 47 43 38 34 29 27 27
67 67 70 73 75 72 69 66 69 74 80 87 92 95 100 107 114 116 110 105 98 91 84 75 70 67 62 59 53 50 47 45 45 49 50 49 42 35 29 28 26 24 21
66 69 72 70 66 63 64 69 74 79 84 89 94 100 106 113 113 106 100 95 89 81 72 67 64 60 56 52 47 42 44 47 50 50 45 39 32 25 26 24 23 24 19
68 67 62 58 59 64 69 74 80 84 90 94 98 104 108 106 103 98 93 86 77 69 66 61 57 54 50 46 41 42 45 48 47 43 39 34 26 22 22 22 22 21 17
55 54 56 59 65 70 75 80 85 90 94 99 105 104 99 95 92 88 81 73 65 63 59 54 50 47 44 40 42 44 46 44 41 38 33 30 24 21 18 16 17 15 12
52 56 61 66 71 76 81 86 91 95 100 103 99 95 92 87 83 76 68 63 59 56 51 47 44 42 40 40 43 45 45 41 37 34 32 27 22 20 16 13 12 9 7
58 62 67 72 78 83 89 93 97 100 100 95 91 89 86 80 71 65 60 57 53 50 45 40 38 38 41 43 45 43 38 36 32 30 28 24 20 17 10 8 6 4 4
64 69 74 79 84 90 95 99 99 96 90 87 84 81 75 67 61 58 55 50 46 44 38 36 34 38 41 44 43 40 37 35 32 28 26 23 19 16 9 4 2 1 6
72 77 81 86 91 96 100 98 94 86 83 79 77 71 64 58 55 52 48 44 40 36 34 33 36 38 42 43 41 38 36 33 32 29 25 23 18 13 7 3 2 5 11
79 84 89 93 97 98 96 89 84 81 78 73 67 60 55 52 49 45 41 36 31 30 30 34 37 40 42 40 38 39 35 31 30 29 25 21 17 11 6 6 8 9 13

GFSGL_250_spd_042.txt.gz
Wind_Speed
48 54 55 55 56 58 60 60 60 59 59 59 59 61 63 65 67 70 72 76 78 80 82 86 89 93 97 101 104 107 110 111 112 115 116 113 111 108 110 113 118 123 128
49 51 56 57 56 58 61 60 60 59 59 60 61 63 66 68 70 71 74 77 80 83 86 90 94 98 102 105 108 110 114 118 119 110 109 104 109 113 116 122 128 131 126
47 49 54 55 57 60 62 61 59 60 60 61 63 65 66 69 71 74 76 79 82 86 90 94 99 102 105 108 112 115 119 116 115 107 101 108 114 121 125 131 130 121 109
48 49 50 56 59 61 62 61 59 59 60 62 64 66 68 70 73 76 79 82 86 90 95 99 101 104 108 112 117 118 114 109 105 108 110 113 120 127 130 123 114 107 98
49 49 48 57 58 61 61 60 58 59 61 62 65 66 69 72 75 78 81 86 91 95 98 100 104 109 114 118 114 113 104 107 111 114 117 122 128 127 119 108 100 95 90
50 49 48 55 58 61 60 58 57 59 61 62 65 68 70 74 78 81 86 90 94 98 101 106 110 116 116 113 109 104 110 114 116 119 124 130 126 114 105 99 91 86 84
49 51 50 55 56 56 57 57 58 59 61 63 67 70 74 78 82 86 90 94 98 103 108 112 117 112 112 102 103 109 115 121 124 126 130 123 111 102 96 91 85 81 77
51 50 48 51 53 54 56 57 57 59 61 65 70 74 78 82 86 90 94 99 104 108 114 115 112 108 99 103 108 115 121 126 130 129 119 107 99 92 86 83 79 76 70
48 47 44 48 50 52 53 56 58 60 64 69 74 77 82 86 89 94 99 104 109 114 110 111 101 100 105 111 115 120 125 130 128 115 104 97 90 86 81 77 70 66 65
41 41 41 44 46 49 53 55 59 63 68 72 76 81 85 89 95 101 105 110 110 107 107 98 100 105 113 117 121 125 129 125 111 103 95 87 82 78 72 66 61 60 57
33 34 37 39 43 47 51 56 60 65 71 75 80 84 89 95 100 105 109 106 106 98 95 99 105 113 118 121 126 127 118 108 102 95 87 82 76 70 64 57 51 50 49
28 31 34 39 44 49 54 59 64 69 74 80 85 90 95 99 104 103 102 99 93 95 99 106 113 118 122 126 125 113 106 99 92 86 81 74 69 62 56 52 44 42 37
28 33 38 43 48 53 58 63 69 74 79 85 90 95 100 101 98 97 92 93 96 102 109 115 120 123 126 121 109 103 96 89 83 79 74 68 61 57 52 47 36 37 35
34 38 43 48 52 58 64 69 74 80 85 89 95 97 94 95 91 89 93 96 101 108 115 120 123 123 114 105 100 92 85 81 76 72 68 62 58 52 46 46 44 40 39
38 44 48 54 60 65 70 75 80 85 89 92 91 91 89 86 86 91 96 101 107 114 118 120 116 106 100 96 88 81 77 71 67 62 59 56 51 51 50 51 47 43 41
45 51 56 61 66 71 75 80 84 86 86 87 85 81 81 85 89 94 101 108 113 116 117 109 100 96 91 84 79 74 67 63 58 55 51 50 52 53 51 46 43 41 38
53 58 63 67 71 75 79 79 81 82 78 74 74 80 85 89 94 100 106 112 114 111 102 97 93 86 80 76 71 66 61 55 52 49 49 51 52 49 45 42 39 36 35
59 62 66 69 71 73 76 75 71 69 73 78 81 86 91 97 101 105 108 109 104 97 93 88 81 76 73 67 62 57 53 51 49 49 52 52 48 43 38 35 35 33 31
60 62 65 67 68 65 61 63 67 71 76 81 87 93 97 102 107 108 104 98 93 89 83 77 73 69 64 59 56 52 49 48 51 53 51 46 41 36 34 31 30 28 23
59 61 60 56 56 59 63 68 72 77 82 88 92 96 99 104 104 100 94 90 85 79 72 68 65 61 57 54 50 48 49 53 53 49 43 38 35 32 26 25 25 20 14
53 51 52 55 60 64 68 74 79 84 89 94 97 99 100 98 93 88 84 80 73 68 64 61 57 53 51 49 47 48 52 50 48 45 40 34 31 26 22 20 20 13 9
49 53 57 61 66 71 76 81 86 90 95 97 98 96 93 88 84 79 75 69 62 59 56 52 49 47 47 47 49 51 49 46 43 37 32 29 26 20 19 15 13 8 5
54 59 64 68 73 78 83 88 92 95 97 96 90 88 86 81 76 71 63 57 56 52 48 44 43 43 44 48 51 48 44 43 38 32 28 25 20 13 13 8 6 4 2
60 65 70 75 80 85 90 94 96 95 92 86 85 82 75 71 65 58 52 51 49 44 42 39 38 41 45 48 44 41 40 39 36 31 27 22 14 11 8 5 4 1 6
67 72 77 83 87 92 94 94 93 88 84 81 76 71 67 60 54 48 47 44 40 38 36 35 38 43 45 40 39 38 37 35 32 28 24 19 15 12 8 7 6 8 12
74 79 84 89 93 93 92 89 83 80 77 71 68 63 56 49 45 44 40 37 34 32 31 34 40 42 40 37 38 36 36 32 30 27 24 20 15 12 10 10 12 14 15

GFSGL_250_spd_045.txt.gz
Wind_Speed
63 59 57 58 58 55 53 52 58 60 63 65 66 67 67 67 67 69 70 72 73 75 77 80 83 85 87 89 91 94 96 99 99 104 109 113 118 121 122 120 118 107 108
59 57 55 57 56 55 53 52 57 59 61 64 65 67 67 66 69 70 72 73 76 78 80 82 85 87 90 92 95 98 101 103 105 106 114 120 122 121 121 111 109 112 116
58 57 54 54 55 54 51 50 56 59 61 62 64 66 66 67 69 71 73 75 77 80 82 85 88 90 94 96 99 102 105 108 112 116 118 119 121 118 109 111 114 121 125
57 54 52 52 53 51 50 49 53 57 60 62 64 65 67 68 70 72 74 77 79 82 85 88 91 95 97 100 103 107 110 115 120 122 117 116 110 111 112 115 121 127 123
55 52 51 52 51 51 50 48 49 55 58 62 64 66 68 70 71 73 76 78 80 84 88 91 95 98 101 105 109 113 118 123 122 120 114 108 111 113 118 124 123 117 110
49 48 50 50 52 52 50 50 51 50 55 61 64 66 68 70 72 74 77 79 83 87 91 95 99 103 106 110 114 119 124 121 119 110 111 112 115 121 125 125 114 105 98
45 48 50 51 50 51 52 52 52 50 54 58 63 66 68 70 72 75 79 83 87 91 95 100 103 107 111 115 120 120 119 113 113 112 113 119 123 127 121 111 103 94 85
45 45 48 48 48 50 53 53 51 49 53 57 60 64 67 70 73 78 82 86 91 95 100 104 108 112 118 120 116 112 111 116 117 118 121 124 123 112 103 99 91 86 80
40 43 44 47 48 50 51 51 49 48 52 56 59 62 66 72 77 81 85 90 95 99 105 109 113 118 117 116 109 110 115 117 120 124 124 119 107 100 90 85 82 76 75
38 41 44 45 47 48 48 47 44 47 50 54 58 64 70 74 78 84 89 94 99 104 109 115 118 115 113 107 111 114 116 121 125 125 114 103 94 85 80 75 71 68 63
40 42 42 41 42 41 38 38 41 45 49 55 61 67 73 78 83 89 95 100 104 109 114 113 112 106 107 112 115 118 123 126 123 108 101 89 82 78 73 67 61 53 53
33 33 34 32 30 30 33 37 42 49 55 61 67 72 77 83 89 96 101 106 110 109 109 105 103 107 112 116 120 125 127 115 103 95 86 81 77 71 64 59 52 45 42
20 20 21 23 28 32 38 44 50 55 61 67 73 79 85 90 95 100 105 105 105 102 99 103 108 114 118 122 126 121 107 99 90 84 81 76 69 63 57 53 47 46 46
17 21 25 30 35 40 46 51 56 62 68 74 81 87 92 97 100 100 100 97 95 99 104 110 116 119 123 124 113 101 94 87 81 79 74 68 63 57 52 50 51 52 51
24 28 32 37 42 47 53 59 64 70 76 82 87 91 94 95 93 89 91 95 100 104 109 116 119 121 116 104 95 89 83 78 74 69 65 60 55 52 52 54 52 49 47
31 35 40 45 50 55 60 67 73 77 82 85 88 88 85 82 85 89 96 100 105 110 115 117 114 104 96 91 87 80 75 71 65 61 57 54 53 54 54 50 46 43 43
38 42 46 51 57 63 68 73 77 80 82 81 77 77 81 85 90 95 100 105 110 113 111 102 94 91 87 83 77 74 70 64 58 54 54 55 55 51 47 44 41 37 38
43 48 52 57 63 68 71 74 76 73 70 73 76 81 87 92 97 100 105 108 108 100 92 88 85 82 77 72 69 66 62 57 55 55 55 53 48 46 42 36 36 34 31
48 52 58 63 67 69 68 66 65 68 73 78 83 89 95 99 103 104 103 98 92 88 85 82 77 71 67 64 62 58 55 55 57 57 54 50 45 40 33 33 32 27 23
52 57 61 63 61 60 60 64 69 74 80 85 90 94 97 101 100 98 93 90 87 82 77 71 66 63 60 58 55 52 54 56 54 50 47 44 39 34 29 28 26 21 16
54 59 59 56 57 60 65 70 75 81 87 92 95 98 97 92 89 88 85 82 79 72 65 60 58 57 53 51 49 52 53 50 48 45 41 38 33 28 25 22 19 12 9
58 59 55 57 61 66 72 77 83 88 93 96 98 94 88 85 84 80 78 73 65 59 56 54 52 49 46 47 52 52 48 47 45 40 33 29 25 24 20 16 10 8 7
55 54 58 63 68 74 79 85 90 94 97 97 90 84 82 80 76 73 67 59 54 52 49 46 45 43 44 48 49 46 45 43 39 34 29 25 21 18 14 10 9 9 7
55 59 65 71 76 81 86 91 95 96 96 85 81 80 77 72 67 60 54 49 47 45 42 39 39 39 44 46 43 42 41 38 34 30 25 21 18 16 13 12 10 11 12
61 67 73 78 83 88 92 95 96 93 83 77 78 74 68 61 56 50 46 43 41 39 35 34 35 39 42 41 40 39 36 33 29 24 22 21 19 17 15 12 13 15 16
69 74 79 84 89 92 94 96 91 83 76 74 69 64 58 52 46 42 40 37 35 32 30 31 35 38 40 39 38 36 32 30 26 24 23 21 19 17 17 16 17 18 17

GFSGL_250_spd_048.txt.gz
Wind_Speed
73 69 70 70 71 65 63 61 62 57 54 54 56 56 58 65 69 70 73 76 77 77 77 78 80 81 83 84 86 88 91 92 92 94 98 101 103 107 111 115 119 122 125
71 69 66 63 60 61 62 60 59 55 53 53 56 56 58 64 68 69 70 73 76 78 80 81 83 83 85 87 89 91 94 97 98 98 103 106 109 112 117 119 123 124 121
68 72 67 56 51 55 57 57 55 54 54 55 55 53 55 60 64 65 69 71 74 77 79 81 83 84 87 89 91 94 96 99 102 104 105 109 113 120 121 123 121 113 110
63 64 63 59 50 51 53 53 54 55 54 55 54 52 51 54 60 65 68 71 73 76 79 81 84 86 88 91 93 96 100 103 105 107 110 114 120 124 122 117 109 115 118
55 54 54 52 48 49 49 51 54 55 55 55 54 53 55 55 58 64 69 71 73 76 79 81 84 86 88 92 96 100 103 107 110 114 117 121 124 123 115 110 115 117 122
44 47 49 47 45 46 49 51 53 54 56 56 57 58 58 59 59 62 67 70 73 75 78 82 83 86 91 95 99 104 108 113 116 119 122 121 119 107 110 116 120 120 120
38 43 44 44 44 46 48 49 51 55 56 58 59 61 61 60 59 60 65 68 71 74 77 80 85 91 95 99 104 109 114 121 125 125 121 109 107 113 116 118 119 112 105
33 37 39 38 40 43 45 50 52 54 55 57 59 60 59 59 56 58 62 66 70 74 78 85 89 95 100 104 109 115 121 126 127 121 111 111 114 117 117 113 105 102 98
24 26 30 36 39 42 47 50 51 54 55 56 56 57 56 53 54 58 62 66 72 79 85 91 96 100 105 111 115 120 122 121 116 114 115 116 117 116 106 98 95 88 86
23 27 31 34 38 43 47 50 52 52 52 53 52 50 49 52 57 62 67 73 79 85 92 98 103 108 113 117 118 116 112 113 114 118 120 117 109 101 96 86 79 76 73
22 25 25 31 40 42 47 47 46 46 44 44 46 49 54 59 64 69 75 80 85 91 98 105 110 113 114 112 111 113 113 114 119 120 115 106 100 92 83 78 71 65 62
24 29 33 38 45 47 43 40 37 38 42 46 51 56 61 66 71 78 83 89 95 100 105 109 109 106 107 111 114 115 117 120 114 106 100 94 86 80 76 70 63 59 52
33 39 39 38 35 31 31 35 39 44 48 53 59 64 69 73 79 85 91 96 100 103 102 100 102 107 112 116 115 119 117 107 101 95 87 80 75 71 67 63 57 53 52
23 22 22 24 26 30 36 41 45 50 56 61 66 72 77 81 86 91 95 97 96 95 99 104 109 115 117 119 117 108 100 94 87 81 75 72 67 65 60 58 59 57 55
16 20 24 28 32 38 42 47 52 57 63 68 73 78 83 87 90 91 89 90 94 98 104 110 115 117 116 107 100 93 87 82 76 72 68 63 61 58 59 58 56 55 50
22 26 30 34 38 42 47 52 58 64 69 74 79 82 84 81 81 85 89 94 99 104 110 114 114 108 99 95 88 84 76 73 69 65 60 58 59 57 54 50 48 46 43
29 31 34 39 43 48 54 60 65 70 74 77 76 75 77 80 85 90 95 100 104 109 111 106 96 91 87 84 78 73 71 67 63 59 58 58 55 50 46 44 41 36 33
33 37 42 45 50 55 59 64 69 73 71 70 72 76 82 87 91 95 101 105 106 104 96 90 86 82 78 72 69 66 63 60 58 59 57 54 52 48 42 37 34 30 26
40 43 46 50 55 59 63 67 70 67 69 73 78 84 89 94 99 101 101 99 96 89 84 82 79 73 67 64 60 57 55 56 57 55 51 49 46 41 35 31 27 22 20
45 49 52 55 59 63 65 67 65 70 75 81 86 91 97 102 101 96 93 89 85 80 77 73 67 62 60 56 53 52 55 54 52 49 46 43 38 33 27 22 19 18 14
52 54 57 59 62 64 62 65 71 77 84 90 94 98 100 96 87 86 85 80 76 72 68 61 57 55 51 49 48 51 51 49 46 44 40 35 29 26 22 19 15 12 9
53 54 55 55 55 60 66 73 79 85 91 96 100 99 93 86 83 80 76 72 67 61 55 52 50 45 43 44 47 49 47 45 42 38 33 29 25 21 18 15 12 11 12
40 44 49 55 62 68 74 80 87 93 97 98 96 90 84 80 77 73 67 61 55 50 48 45 41 39 39 42 44 45 44 40 36 31 27 23 21 19 17 14 15 17 16
49 53 58 64 70 76 82 89 94 98 97 93 88 82 78 75 69 62 56 49 47 44 40 37 36 35 39 40 41 40 38 34 30 27 24 22 20 18 17 18 19 18 17
56 61 66 71 77 83 89 95 99 97 92 87 80 75 71 64 57 51 46 44 40 37 34 33 31 35 36 37 37 36 31 28 25 21 21 21 20 18 18 19 20 19 18
63 67 72 77 83 89 94 98 97 91 87 79 73 68 60 53 47 43 40 37 34 31 30 29 30 33 34 33 32 31 27 25 21 20 19 19 18 17 18 19 19 18 17

GFSGL_250_spd_051.txt.gz
Wind_Speed
77 76 74 72 72 72 72 71 69 69 69 68 65 65 62 60 60 60 62 63 64 65 67 71 74 76 78 80 81 85 88 89 89 91 93 96 98 100 102 104 107 110 113
79 82 79 71 70 69 68 65 64 65 65 65 64 65 63 59 60 61 65 65 65 65 66 69 73 76 78 80 83 86 88 91 92 93 96 98 100 102 103 105 108 110 112
75 76 78 78 74 71 65 61 57 55 57 60 63 64 61 59 60 64 65 65 65 65 66 69 73 76 79 81 83 84 87 90 93 93 94 98 100 104 104 105 109 114 118
74 68 64 66 62 61 58 56 54 51 51 56 58 59 57 59 62 65 67 68 68 66 66 69 72 75 78 81 83 85 87 89 92 94 95 98 102 106 109 111 115 121 126
58 55 52 49 48 51 48 52 52 48 50 52 54 55 58 61 63 66 69 69 67 66 67 69 70 71 73 76 80 83 86 90 93 95 98 103 108 113 116 119 119 117 114
38 43 42 38 41 42 42 49 48 48 48 47 51 56 58 61 65 67 68 68 67 69 70 69 68 68 71 75 79 83 88 93 96 100 105 109 114 118 117 111 108 110 117
33 37 35 34 34 34 41 44 43 42 42 47 52 57 59 61 65 66 66 67 68 68 67 66 67 70 74 78 83 89 95 102 106 110 113 115 114 110 108 110 113 113 114
24 24 23 23 26 33 37 37 37 40 44 48 53 57 60 62 63 63 64 66 65 65 65 69 72 76 82 86 90 97 105 111 114 116 114 109 108 111 112 111 109 105 103
21 16 17 17 26 28 30 33 39 43 47 50 53 57 60 62 62 62 61 61 63 68 72 76 79 84 90 96 101 106 110 112 112 111 110 112 113 112 108 103 98 95 92
17 18 15 18 21 27 31 36 41 45 45 49 52 54 56 57 57 58 60 65 69 75 81 85 90 95 100 104 105 106 106 109 113 115 117 116 111 105 98 93 87 84 81
7 10 15 21 19 23 30 38 38 40 45 46 48 52 52 54 57 62 66 71 76 83 88 94 98 102 105 104 104 106 110 114 117 117 115 110 103 98 92 86 78 74 73
20 18 20 22 26 27 29 34 40 45 49 53 52 51 55 59 64 69 75 79 84 89 94 98 99 100 100 104 108 112 117 117 115 110 103 99 94 87 80 77 72 67 62
6 13 18 20 25 29 35 41 49 53 50 50 51 56 60 65 70 76 82 86 90 92 93 95 97 101 105 110 114 116 115 110 101 97 94 88 80 76 72 67 64 61 61
17 23 27 30 33 38 43 44 44 45 47 51 55 61 66 71 76 81 86 87 88 91 94 100 104 109 113 115 114 110 102 96 92 87 80 76 73 69 64 61 62 60 58
28 26 27 29 30 32 35 39 43 47 51 56 61 67 72 76 81 84 85 86 90 96 101 106 111 113 113 109 102 94 89 84 78 72 69 67 64 62 61 56 53 52 47
17 20 24 27 31 35 40 44 47 52 57 62 66 71 76 79 81 82 86 91 96 102 107 110 111 107 101 93 87 81 76 71 67 65 60 59 61 58 54 50 44 40 35
23 27 30 33 37 41 45 48 53 58 61 66 72 76 77 78 83 88 93 99 103 105 106 102 97 91 85 79 75 70 66 62 59 57 59 57 55 52 45 39 35 29 25
29 32 36 40 44 47 51 55 58 61 65 69 71 72 78 84 89 95 99 103 101 96 92 89 83 79 73 67 63 60 57 53 53 56 54 52 48 44 39 33 27 22 20
33 38 42 47 51 55 57 59 61 62 62 66 74 79 86 92 97 99 97 92 89 86 82 78 71 66 61 57 55 51 48 50 53 51 48 45 42 37 31 26 22 18 15
39 43 46 45 45 45 46 47 51 58 67 73 80 86 94 99 101 94 86 83 79 75 70 64 60 55 52 50 47 44 45 48 47 44 41 38 33 29 25 21 18 15 13
39 40 41 44 44 46 49 54 61 69 75 82 88 95 98 98 89 84 79 74 70 64 59 54 50 48 45 42 41 42 44 43 40 38 35 30 28 25 22 19 16 11 9
41 42 44 46 50 54 58 64 69 76 82 89 97 98 97 87 81 75 71 66 60 54 48 46 43 40 38 37 39 41 40 37 35 32 28 25 22 20 17 14 12 11 12
44 46 48 52 56 60 65 70 76 83 89 96 98 97 90 81 75 69 63 56 49 46 42 39 36 35 34 38 39 37 35 32 29 25 20 18 17 16 15 14 14 15 16
48 51 54 58 62 66 71 76 83 89 96 100 98 89 81 75 69 62 54 48 44 40 37 33 31 31 34 36 35 33 31 28 24 20 18 16 14 14 15 15 15 16 16
51 54 59 63 68 72 77 82 88 94 100 100 91 83 74 69 62 53 46 42 38 35 32 29 30 33 34 33 32 29 27 23 19 15 14 13 12 13 14 15 15 16 18
54 59 63 68 72 77 83 87 93 98 99 93 84 77 69 62 54 45 41 37 33 31 28 28 31 32 32 31 29 26 23 19 15 12 11 11 11 12 15 14 14 17 19

GFSGL_250_spd_054.txt.gz
Wind_Speed
96 95 94 97 95 92 87 83 73 63 63 63 62 62 64 64 66 69 73 75 73 72 72 73 71 69 70 72 74 75 76 76 76 79 83 86 88 90 92 94 96 99 102
94 94 93 92 91 85 76 70 67 65 62 62 62 64 65 66 69 72 75 75 73 74 72 72 68 72 74 74 75 76 78 80 81 80 81 81 84 88 91 93 96 99 102
99 95 93 92 90 86 81 73 66 61 58 62 64 64 62 61 64 67 67 68 68 69 71 72 71 72 75 76 77 78 79 82 82 78 75 77 81 86 88 92 96 99 102
79 81 83 82 82 81 77 71 68 64 62 59 58 56 58 60 60 59 61 63 65 71 68 71 74 77 79 79 79 80 81 80 78 76 76 79 84 88 92 94 99 105 110
60 64 66 67 67 70 68 60 54 55 59 59 57 53 59 61 58 56 58 61 65 70 72 73 77 80 80 80 80 79 78 78 80 82 84 88 92 96 100 104 106 110 114
35 38 43 48 49 47 45 36 41 46 51 51 45 40 53 55 55 56 59 62 66 68 71 76 80 80 81 79 77 78 82 86 89 92 95 97 101 104 107 107 103 102 107
19 22 26 28 31 30 29 32 31 35 38 38 34 47 55 55 55 59 60 64 67 70 75 78 79 78 75 77 81 86 91 96 99 100 101 103 103 102 102 104 107 108 111
12 17 23 28 25 20 18 19 20 13 24 33 41 45 49 52 55 59 63 66 70 74 76 74 72 76 81 85 89 93 99 103 106 108 105 103 104 105 105 108 109 107 106
30 32 31 30 24 18 17 15 11 25 36 38 42 45 48 51 56 61 65 69 74 69 69 73 77 82 87 91 96 101 104 107 106 106 107 108 110 111 110 107 105 99 96
40 34 28 22 18 13 16 16 22 30 35 40 43 46 49 55 58 62 65 64 64 70 74 79 83 88 93 97 100 100 101 105 109 113 115 115 115 111 105 98 93 89 84
26 28 26 25 18 23 22 28 32 35 38 39 43 47 48 50 53 56 59 64 71 77 81 87 91 95 98 99 99 104 108 112 116 118 118 113 106 101 97 90 83 77 73
19 17 16 17 18 21 25 28 32 33 34 37 39 41 47 54 58 61 67 70 74 80 87 92 95 97 97 102 107 111 115 117 116 113 106 101 96 92 86 79 73 69 66
5 1 8 10 11 16 20 24 27 31 37 40 45 50 57 60 64 66 70 75 80 86 91 91 93 98 104 109 112 113 113 109 103 99 95 90 85 79 74 69 67 65 67
10 12 14 17 21 24 26 29 33 38 44 49 52 55 57 60 65 70 75 81 85 86 89 96 101 106 110 112 110 105 101 95 91 88 82 77 73 70 66 64 64 62 60
18 20 23 22 23 26 28 32 36 41 45 48 51 55 59 64 70 75 79 80 84 92 98 104 108 108 104 101 96 91 85 83 77 71 67 65 63 62 64 59 56 52 48
20 19 21 23 25 28 32 36 41 45 48 51 55 59 64 69 72 73 79 85 91 99 105 104 98 96 93 87 82 78 72 67 62 61 59 57 58 60 57 50 45 41 39
20 23 25 28 30 34 37 41 46 50 54 55 57 58 60 64 72 78 86 94 101 101 95 91 86 82 77 73 68 63 58 56 55 53 53 54 55 51 47 45 41 37 34
25 26 28 31 34 38 40 40 40 42 44 48 53 60 66 71 78 86 93 100 95 86 82 79 74 69 64 59 55 53 50 49 48 49 50 49 47 45 41 35 32 29 26
27 30 33 35 37 38 42 44 44 47 52 56 62 67 73 80 87 93 96 85 82 78 72 67 62 57 54 51 47 45 43 44 46 47 45 43 41 37 32 30 28 26 23
32 35 38 40 39 41 44 46 48 53 58 64 69 74 81 88 96 96 83 77 72 67 61 56 53 51 48 43 40 38 40 41 41 40 38 37 33 30 27 25 23 21 19
37 43 43 43 44 46 49 52 55 60 65 70 75 82 88 94 97 85 78 72 66 58 53 50 47 44 40 36 35 37 38 38 37 35 33 29 26 24 21 20 19 19 18
43 49 45 44 45 49 52 56 60 65 70 76 83 89 94 96 86 78 72 66 58 52 48 45 41 37 34 33 35 36 35 34 31 28 26 24 22 19 18 18 18 18 18
47 48 45 46 49 52 55 59 64 70 75 82 90 94 94 86 78 73 67 59 52 48 44 39 35 33 33 35 35 34 33 31 28 24 21 18 17 16 16 17 17 17 17
51 51 48 50 52 56 60 64 69 75 80 88 93 93 86 79 74 70 63 53 48 44 39 34 30 31 33 35 34 32 31 28 24 20 19 17 15 14 14 14 14 16 17
54 54 52 52 57 61 64 68 74 79 86 91 93 88 81 78 71 68 58 48 44 41 35 30 28 31 32 35 33 30 28 25 21 18 16 13 11 12 12 12 13 16 18
56 54 55 57 61 64 69 73 80 84 88 93 90 82 80 75 69 63 53 45 41 37 33 27 26 30 32 34 32 28 26 23 19 15 13 10 9 10 11 11 13 16 19

GFSGL_250_spd_057.txt.gz
Wind_Speed
122 119 116 113 110 106 103 101 96 92 89 83 82 82 80 80 78 74 71 70 66 65 70 72 77 78 82 82 81 80 78 78 77 79 81 84 86 89 89 89 89 88 87
110 107 104 103 103 101 98 96 92 91 87 83 81 79 75 71 67 65 67 65 65 67 70 73 76 79 77 78 77 76 77 81 82 82 83 87 88 89 86 84 84 85 86
99 100 98 96 96 95 93 92 88 86 82 74 74 71 65 61 62 66 65 64 65 69 69 69 72 75 74 75 75 79 84 85 85 85 87 87 85 84 83 84 86 91 95
83 83 80 80 79 82 83 85 84 82 79 74 72 68 62 61 59 59 63 64 66 67 67 71 72 72 72 75 79 83 86 89 92 94 88 84 86 89 92 94 97 102 104
62 66 71 71 69 68 69 70 71 70 69 67 64 66 64 62 62 62 61 65 66 65 69 70 70 71 74 79 83 88 91 93 94 89 88 92 96 99 102 104 103 103 102
44 49 53 54 55 56 56 56 57 58 59 57 60 56 51 52 55 58 56 64 65 63 63 67 69 72 78 83 85 89 92 91 88 92 97 100 102 104 104 102 100 102 103
29 31 35 37 37 37 36 35 35 38 41 39 37 39 44 44 46 52 54 59 61 62 69 72 75 77 80 85 88 91 87 93 96 99 101 102 101 102 103 106 109 109 112
11 16 16 18 19 20 18 18 20 19 15 13 18 26 32 32 39 43 47 53 60 66 70 74 78 82 86 87 82 86 93 99 101 104 105 105 106 109 110 110 112 110 106
14 7 13 22 25 29 30 28 20 15 13 12 21 22 27 34 41 46 52 57 62 67 73 77 82 84 80 84 88 93 97 101 104 106 108 111 113 115 113 109 104 98 95
31 34 37 35 33 27 29 32 21 12 21 22 29 31 33 40 45 48 53 61 67 71 76 79 76 78 84 89 92 96 99 102 107 112 116 117 116 113 106 98 93 89 85
22 23 27 24 21 18 15 12 13 19 23 27 29 33 39 42 47 54 59 63 65 66 69 75 80 84 89 93 95 98 103 108 113 117 119 117 111 102 97 91 84 77 73
19 19 16 13 10 7 4 8 14 18 21 27 34 40 42 48 53 52 52 58 64 70 76 81 85 90 94 96 100 106 111 115 117 116 109 103 98 92 86 80 75 69 63
18 15 12 8 5 5 9 14 19 24 28 33 35 38 40 44 50 56 61 67 71 75 80 83 87 91 96 102 105 110 112 112 104 99 94 90 84 77 73 70 66 65 65
12 14 11 13 13 16 18 20 22 24 28 34 38 43 48 53 58 62 65 69 72 74 79 85 91 95 100 105 107 106 98 94 89 85 81 75 71 69 64 63 64 63 57
17 18 19 21 20 20 22 25 28 31 34 38 41 45 49 51 54 57 61 67 73 79 86 92 96 99 100 99 93 89 85 78 74 69 66 64 61 59 59 59 55 52 49
15 17 18 19 21 23 26 29 32 35 38 40 41 46 51 54 57 61 66 72 79 87 91 94 93 93 87 84 80 74 67 63 62 60 57 54 54 55 53 48 45 43 38
17 19 22 23 26 29 32 34 37 36 38 43 45 47 51 56 61 69 74 82 88 90 87 84 81 77 73 69 63 58 56 55 53 50 49 51 50 46 44 40 36 33 31
21 21 23 26 29 32 35 38 38 38 42 46 51 55 59 63 67 73 81 88 86 80 77 73 70 66 59 55 52 50 49 48 46 46 46 45 42 39 36 33 30 28 28
23 24 26 28 32 36 43 42 42 45 48 51 55 58 62 67 72 79 86 87 75 73 69 66 60 54 51 48 46 45 43 43 45 44 41 39 36 33 30 28 28 27 26
27 29 31 34 39 44 46 43 43 46 50 53 56 61 66 72 77 84 88 82 70 67 64 58 52 48 45 43 41 40 41 42 41 38 36 33 31 29 26 25 23 23 24
31 33 35 39 42 47 47 45 47 50 52 56 59 65 72 78 82 88 82 73 68 63 60 53 48 45 41 39 38 38 39 38 36 34 31 29 27 23 22 23 22 24 23
34 37 40 44 46 50 51 50 50 53 56 60 66 71 79 84 84 83 76 71 64 61 55 48 44 41 38 36 35 37 37 34 32 29 27 24 22 20 20 19 21 21 21
37 41 45 48 51 53 53 52 54 58 62 68 73 80 86 86 84 78 73 70 62 58 50 44 39 37 35 34 34 36 35 32 30 26 23 20 17 17 18 19 19 19 21
42 45 47 50 53 54 55 58 60 64 69 74 79 85 88 86 81 75 72 67 60 54 46 41 36 34 33 33 34 35 33 30 28 24 20 18 17 16 16 18 17 19 19
46 49 51 53 56 59 60 62 65 70 76 80 85 88 88 83 76 71 69 61 57 50 42 38 34 31 30 32 33 32 30 28 26 21 18 16 14 13 14 14 14 15 15
49 53 55 58 61 63 65 68 71 75 81 86 89 89 86 80 71 68 64 58 54 46 40 34 30 28 27 30 31 30 28 25 24 19 14 12 11 11 11 10 12 12 14

GFSGL_250_spd_060.txt.gz
Wind_Speed
115 118 121 123 123 123 122 120 117 116 115 110 106 104 102 100 95 92 87 84 82 83 82 82 80 79 78 76 75 73 75 78 78 80 81 82 81 83 87 88 88 89 90
114 115 115 114 112 111 111 111 110 109 108 106 104 101 97 92 88 87 86 83 82 80 77 77 78 75 73 73 77 76 78 79 79 80 81 82 84 88 89 91 94 93 90
101 102 104 104 105 106 104 100 97 96 95 93 92 90 88 87 86 84 82 80 76 72 72 73 72 73 74 74 76 80 79 80 81 82 84 87 89 93 95 96 95 94 95
89 85 84 88 91 92 93 93 95 91 89 88 87 86 85 82 79 77 74 75 74 68 68 69 71 71 72 75 80 81 79 80 82 86 88 91 95 97 98 99 95 99 102
54 55 61 69 71 73 75 75 75 74 73 72 71 71 67 65 63 60 61 63 63 64 67 71 74 74 76 78 78 81 82 82 87 91 94 96 98 100 98 99 102 105 108
36 34 39 41 44 47 48 52 57 60 66 67 67 62 60 57 55 54 55 57 59 64 63 68 71 74 74 75 79 81 84 90 93 95 96 99 104 101 103 107 107 106 106
34 29 27 30 30 30 29 30 36 44 52 55 57 52 52 50 53 52 54 59 58 55 58 59 64 68 73 77 78 81 86 92 95 99 102 105 105 109 107 105 108 112 116
35 26 20 16 13 12 12 13 18 24 29 32 34 34 30 29 33 40 44 46 47 51 55 56 59 63 67 74 79 85 89 95 99 103 103 104 106 104 106 110 114 117 118
33 29 18 9 9 11 18 21 20 19 19 17 8 7 13 17 26 32 38 45 50 51 54 55 61 68 73 78 84 89 91 93 99 103 104 104 106 111 114 115 117 114 108
33 35 26 22 25 25 26 25 26 17 14 13 15 22 21 26 28 33 39 42 45 50 55 61 67 74 78 80 82 87 92 96 98 101 106 110 114 116 115 114 108 101 94
24 25 27 29 28 20 16 12 7 8 4 9 11 19 23 28 32 37 41 47 52 57 64 68 71 73 77 81 85 87 91 97 103 108 113 116 116 114 110 102 93 84 78
20 20 23 22 23 21 19 16 13 11 13 14 17 21 26 32 38 44 50 54 57 60 63 66 70 73 79 83 88 94 101 106 111 114 115 112 106 98 93 84 76 72 65
20 22 21 20 22 22 21 21 21 20 20 23 26 30 33 36 39 44 48 52 55 59 63 68 75 81 86 90 95 103 108 110 109 105 99 95 88 79 74 72 65 62 60
16 17 19 19 19 19 19 19 21 24 27 29 31 33 36 39 42 46 50 54 58 61 67 74 81 86 90 96 102 104 103 97 92 89 82 74 69 65 60 58 59 59 56
15 15 16 17 19 19 21 22 24 26 29 31 34 36 38 43 46 49 53 58 63 69 76 82 87 91 97 101 99 93 86 82 77 70 66 62 56 53 53 54 50 47 41
17 17 19 20 19 18 20 24 27 31 35 37 40 41 43 47 51 56 60 64 68 73 81 88 91 97 96 89 82 78 72 66 62 58 53 51 50 51 48 44 39 38 36
20 20 20 20 22 23 23 28 32 36 40 41 41 43 46 51 55 59 63 65 72 79 87 92 91 85 80 75 71 63 56 55 51 47 47 48 47 44 39 35 32 32 32
24 22 23 26 26 26 29 33 35 41 46 46 45 46 48 54 58 62 65 71 79 85 90 86 78 73 68 64 58 51 48 46 44 45 46 44 40 35 32 30 31 30 29
24 26 29 29 30 31 33 37 42 45 48 48 46 48 50 55 60 67 72 78 82 85 84 73 68 64 60 54 48 45 43 42 43 44 42 38 34 29 27 28 28 27 28
28 31 32 32 32 35 37 41 45 48 50 49 51 54 57 60 65 73 78 80 81 81 73 65 62 58 51 46 43 41 39 40 41 41 37 32 28 25 24 24 24 25 25
33 35 35 34 35 38 41 44 46 50 52 55 57 61 64 67 73 78 81 81 78 74 62 60 56 51 44 41 39 38 37 40 40 35 32 27 23 21 22 21 23 23 22
35 36 36 37 40 41 44 47 51 54 57 60 63 67 71 75 77 81 81 79 73 67 58 55 52 46 42 38 36 34 36 36 35 29 27 23 19 18 19 19 20 21 22
37 38 40 42 44 45 48 52 56 58 61 64 68 72 76 79 80 80 78 70 69 62 54 51 47 42 39 35 34 32 35 33 30 26 22 18 16 15 15 16 18 20 20
38 40 43 45 47 50 54 56 59 62 66 69 73 77 79 82 82 78 73 68 67 59 52 48 42 38 36 32 30 31 33 32 28 24 20 15 12 12 13 15 17 18 17
41 43 46 48 51 55 57 60 62 65 69 73 78 80 83 83 79 74 72 67 63 55 49 45 39 36 33 29 26 28 29 28 25 22 18 13 11 11 12 14 15 16 15
45 46 49 53 56 58 60 63 66 70 74 78 82 82 83 80 73 71 70 65 60 51 47 42 36 34 30 26 21 25 27 26 23 20 15 10 8 9 11 12 14 12 13

GFSGL_250_spd_063.txt.gz
Wind_Speed
100 102 105 108 110 113 115 117 118 118 117 116 115 114 114 113 111 110 108 106 103 100 98 96 96 95 91 91 89 87 85 86 83 85 85 85 85 86 85 85 88 87 89
107 109 112 117 121 121 118 116 114 114 115 115 116 115 113 111 109 108 105 104 102 99 98 96 92 92 92 90 86 84 84 80 82 81 82 87 90 91 89 88 90 93 94
102 101 102 106 107 106 105 102 103 103 102 102 103 103 103 102 102 101 98 97 97 94 90 89 91 90 88 85 73 79 70 80 82 82 84 86 87 91 91 92 92 96 96
73 76 82 94 97 98 98 97 98 95 92 92 90 90 91 93 90 89 88 85 83 84 84 84 83 78 73 67 71 73 77 84 85 86 89 91 93 95 94 95 97 98 100
60 67 81 89 86 89 87 87 86 86 84 82 79 77 76 78 78 77 75 76 76 78 79 76 63 56 64 68 72 74 80 85 87 89 89 89 91 93 95 95 95 97 101
44 48 48 50 52 49 49 53 52 51 51 51 51 56 62 64 61 58 60 63 61 62 61 61 58 70 75 78 79 80 80 80 78 78 81 82 85 89 92 96 99 101 107
40 40 32 26 21 23 26 29 31 34 34 30 30 37 41 45 49 51 51 51 52 54 62 65 64 65 71 75 78 77 76 76 76 78 81 87 91 94 98 104 106 105 105
35 38 45 41 28 16 14 14 10 9 6 8 14 16 19 26 34 40 45 49 51 54 56 55 59 66 69 69 69 68 71 76 81 84 86 90 94 97 95 96 101 107 113
30 29 34 36 39 32 26 21 12 14 12 9 7 4 6 11 15 21 27 33 35 37 37 41 46 51 56 60 66 73 80 84 86 88 89 89 93 97 100 104 109 112 112
25 26 26 29 32 30 31 30 29 25 20 16 9 3 3 5 9 14 20 24 30 36 41 46 51 57 62 69 75 79 81 82 84 89 93 96 100 103 108 111 110 104 96
19 22 21 21 23 23 23 23 22 23 23 21 20 18 17 16 18 25 31 35 38 44 49 53 57 61 66 72 76 79 81 86 92 96 98 103 106 107 107 99 92 88 81
21 19 18 17 17 16 17 19 20 22 21 20 19 20 21 24 26 30 33 37 41 45 50 55 59 65 70 75 80 84 88 93 97 100 104 105 103 93 89 85 76 71 66
20 18 17 18 18 21 23 22 22 23 23 24 24 25 27 30 33 37 40 43 45 51 54 58 64 70 76 82 86 89 94 97 100 104 99 91 85 80 74 69 63 60 55
9 11 13 14 16 18 20 20 18 20 22 25 28 31 34 37 40 43 45 47 51 55 58 63 68 74 81 86 90 93 97 100 97 89 82 76 70 62 58 56 54 53 51
14 16 16 18 20 21 21 20 20 20 25 26 28 33 35 38 40 42 45 49 53 58 63 66 71 80 87 91 94 98 94 87 81 77 70 62 56 51 49 51 49 47 45
19 20 22 23 23 23 24 24 25 26 30 33 34 37 41 43 42 43 47 51 56 61 66 71 77 85 91 93 92 86 78 73 68 62 56 51 46 46 47 45 43 39 34
22 22 24 25 25 26 27 29 30 32 34 36 40 42 44 45 45 48 53 57 61 66 72 78 85 91 92 83 77 71 66 61 55 51 45 42 42 44 43 40 35 29 28
23 24 25 26 28 29 31 33 33 35 37 40 42 45 49 51 52 55 59 65 69 74 80 84 86 85 76 70 65 62 59 51 47 42 39 41 42 39 36 32 27 25 25
27 27 26 28 30 33 35 35 35 37 40 43 46 50 53 55 58 63 67 72 78 81 84 83 78 76 66 61 57 54 49 44 39 36 37 39 38 34 29 24 23 25 25
27 27 30 32 35 36 37 38 39 42 45 47 51 55 57 60 65 69 74 78 81 83 81 73 73 67 59 55 53 47 42 38 34 35 37 37 33 29 23 21 21 21 22
28 31 33 34 37 38 40 41 43 46 48 51 55 58 61 65 69 74 77 81 81 78 71 71 70 60 54 51 47 41 37 33 31 34 36 33 29 24 20 19 19 19 20
33 35 36 37 38 40 42 44 47 50 52 56 58 61 64 69 71 77 80 80 76 70 68 70 66 55 50 48 41 35 32 30 30 33 32 30 25 21 18 18 18 18 19
36 36 37 39 41 44 46 48 51 53 56 58 61 64 68 72 77 80 77 74 69 68 69 68 59 52 49 44 37 31 28 26 28 31 28 25 22 19 16 16 15 16 17
36 38 40 41 44 46 49 51 53 56 59 60 63 67 72 77 78 76 72 67 68 68 69 65 54 48 45 39 34 28 26 25 28 28 26 22 19 17 14 13 13 13 12
40 41 41 44 47 50 53 56 57 58 60 62 66 69 75 78 76 70 67 68 68 69 70 59 49 46 42 36 30 25 22 23 27 26 23 19 17 14 11 11 12 11 10
41 42 45 48 50 53 57 58 59 61 63 66 70 73 78 76 68 65 67 69 68 70 65 54 49 45 37 33 26 22 19 21 25 25 22 17 15 11 9 9 10 8 6

GFSGL_250_spd_066.txt.gz
Wind_Speed
86 88 91 94 97 99 103 106 110 112 113 114 115 117 118 118 118 118 117 117 118 114 109 105 102 97 105 98 97 102 105 104 103 101 104 99 96 90 96 92 91 87 86
96 97 101 104 107 111 116 119 122 124 124 125 126 124 124 125 125 122 119 116 114 111 108 106 105 105 105 104 105 106 105 103 98 100 104 97 91 90 91 89 89 89 91
98 99 99 99 101 103 105 108 108 106 104 105 106 105 105 108 110 112 114 112 111 108 107 107 106 104 104 104 101 96 92 90 90 94 93 89 85 85 88 89 92 95 97
77 77 79 81 84 87 97 96 94 92 92 94 93 89 88 88 87 92 96 102 101 100 98 95 93 92 89 90 90 91 93 93 93 92 91 87 87 87 90 91 92 90 86
65 63 63 68 68 76 86 82 80 79 81 81 81 80 77 73 72 73 78 89 93 93 88 82 81 80 80 83 83 85 86 83 80 82 85 90 95 96 91 87 81 83 88
51 51 50 51 52 54 50 45 45 41 46 48 48 52 49 48 46 47 53 66 76 80 77 71 64 66 69 74 76 76 77 75 80 87 91 93 97 87 79 82 85 87 92
42 39 38 38 43 39 30 29 28 26 27 31 33 33 33 29 27 29 36 45 54 59 59 57 56 63 64 64 69 73 71 71 72 76 76 76 77 79 82 86 88 90 94
33 32 31 30 30 26 29 28 30 31 26 19 17 14 12 11 10 9 13 19 26 33 39 45 51 56 58 59 56 55 58 61 66 70 73 78 80 82 85 88 91 94 99
29 28 29 31 28 23 20 23 23 23 25 28 27 28 24 22 17 15 13 10 9 12 16 22 28 35 41 48 54 59 63 67 72 76 80 83 86 89 91 94 96 99 103
27 27 27 29 28 21 20 20 21 24 25 25 24 23 21 20 19 17 17 19 21 24 27 32 37 43 48 54 60 65 71 76 80 84 86 89 92 93 94 97 101 104 101
29 30 29 27 25 21 21 20 20 20 20 21 23 24 25 26 26 26 26 28 30 33 37 41 46 51 55 60 66 72 78 83 87 89 91 93 94 96 100 101 98 89 82
34 33 32 30 24 21 19 19 21 21 21 21 22 23 23 25 26 28 31 34 36 39 42 46 50 55 60 65 70 76 82 87 89 91 95 99 101 101 94 81 76 73 67
29 30 29 25 23 22 23 23 23 21 21 22 24 25 26 29 31 32 34 35 38 42 45 49 53 57 63 69 75 81 87 91 94 97 99 98 88 77 74 71 65 59 54
19 20 21 23 23 24 25 24 24 25 27 27 28 30 33 34 35 38 39 40 41 44 48 51 55 61 67 74 79 86 91 92 94 91 84 77 68 66 63 58 54 51 48
22 23 23 24 25 26 26 26 26 29 31 32 34 36 38 39 40 41 43 45 47 50 53 58 63 68 75 79 85 89 87 84 80 76 68 63 60 54 50 49 47 47 46
27 27 26 26 27 27 28 28 30 32 34 36 37 39 40 41 43 46 49 52 55 58 62 67 71 76 81 85 82 78 75 76 71 65 61 56 49 46 43 42 43 43 39
28 28 27 28 28 29 29 30 32 35 37 39 41 41 43 46 48 52 55 57 60 65 70 74 79 83 81 73 72 70 70 65 61 58 53 48 43 40 41 41 39 36 34
28 28 28 29 29 29 30 32 35 38 40 42 43 46 48 50 52 55 59 62 66 71 76 80 84 78 70 69 68 65 62 58 54 50 46 42 38 38 39 37 35 32 30
27 26 27 28 29 31 33 35 37 41 43 45 46 49 52 54 56 59 62 66 71 76 79 83 77 70 70 68 63 59 56 52 50 44 41 37 35 37 36 33 30 29 27
30 31 30 29 31 32 34 38 41 44 46 48 51 53 54 56 60 63 65 71 75 80 81 76 70 69 68 67 59 54 52 51 45 41 36 33 34 35 33 29 27 25 24
31 31 30 31 33 36 39 41 44 47 49 49 51 54 57 59 62 66 70 74 78 82 77 68 68 68 66 62 55 51 50 46 41 38 31 31 35 33 31 27 24 22 22
27 29 31 32 36 40 42 45 48 48 48 50 53 56 59 63 65 68 74 77 80 76 66 67 68 68 65 57 52 49 47 41 39 35 27 30 33 31 27 23 21 21 19
34 35 35 37 40 43 46 48 48 48 51 54 56 59 62 65 70 74 78 79 75 64 65 67 66 67 59 53 51 48 41 36 35 31 25 29 31 29 24 20 19 19 18
38 39 41 43 45 48 49 48 50 53 55 58 61 63 65 70 73 76 78 73 62 62 66 67 67 61 55 51 48 44 37 34 31 25 25 29 28 26 20 16 17 16 16
43 46 48 49 50 50 51 52 55 58 60 61 63 66 69 73 76 74 69 59 61 66 68 68 65 58 52 48 45 37 33 30 28 23 24 27 25 21 16 15 15 14 14
43 43 45 47 49 50 51 53 56 59 61 63 66 69 71 74 73 67 59 60 66 68 68 67 61 55 49 45 39 33 28 26 24 21 24 25 21 16 13 14 12 13 13

GFSGL_250_spd_069.txt.gz
Wind_Speed
83 82 84 85 86 87 91 93 95 98 103 109 112 115 118 120 123 125 126 128 130 130 126 123 119 116 112 106 102 98 97 96 95 104 103 103 109 113 115 111 108 102 104
81 83 87 88 91 98 103 108 113 117 122 124 122 118 116 115 114 115 116 115 117 118 118 118 118 116 113 109 106 99 105 101 100 104 108 113 113 107 103 102 101 102 96
88 92 97 103 101 98 93 93 96 101 104 104 101 98 97 96 96 99 102 102 103 103 103 106 109 108 109 110 107 105 105 102 102 103 103 104 105 105 103 100 98 94 95
92 89 87 84 82 80 81 84 86 88 92 89 87 86 84 84 82 79 80 85 88 91 95 93 97 99 98 100 97 95 92 91 91 93 96 96 96 96 96 95 94 90 91
77 74 74 75 74 74 73 70 71 74 79 75 69 60 56 58 58 54 54 55 55 57 63 70 81 93 99 100 98 94 89 86 85 85 84 89 91 90 87 85 84 87 91
71 68 67 65 63 60 59 59 57 54 54 45 37 34 32 36 42 43 41 40 39 39 41 46 56 64 73 78 81 80 79 81 83 82 85 86 79 81 78 78 78 80 82
60 58 57 54 52 53 49 47 46 46 40 35 29 25 25 23 25 24 20 21 20 20 20 23 31 38 46 53 59 64 70 73 75 77 73 70 73 75 77 80 82 84 86
51 49 48 45 46 47 42 40 38 36 30 29 26 25 28 29 29 28 25 23 20 18 14 13 14 18 25 32 37 41 45 51 57 62 68 72 75 79 83 85 86 86 89
43 43 40 40 40 40 38 39 36 34 34 34 29 27 27 26 26 26 26 26 25 24 22 20 21 22 26 30 36 42 47 54 61 68 73 78 82 85 88 91 93 94 97
40 39 38 38 38 37 39 40 36 34 35 33 31 29 29 30 32 33 32 31 29 29 29 30 31 35 38 42 47 51 57 63 69 75 81 85 89 91 94 96 97 100 98
37 36 35 36 37 38 38 37 36 35 35 33 30 29 30 32 33 36 36 35 35 35 35 36 38 41 44 48 53 57 62 68 73 80 86 89 91 95 98 99 98 91 83
32 33 35 36 38 35 34 32 33 35 36 34 32 32 33 34 35 36 36 38 39 38 38 39 42 44 47 51 56 61 67 73 78 84 89 93 96 96 89 81 76 71 67
31 33 35 35 35 31 28 30 34 36 36 35 34 35 37 39 39 40 41 42 41 43 45 47 50 53 56 60 64 67 72 78 84 89 87 84 80 77 73 67 62 60 58
31 32 31 30 29 28 30 33 34 36 36 36 36 38 40 42 42 43 45 45 47 50 53 55 58 61 63 66 70 76 80 84 80 77 78 78 74 66 61 58 57 52 48
31 31 30 30 30 30 32 34 36 36 37 36 37 40 42 43 43 45 48 51 52 54 57 61 64 67 70 73 77 80 81 73 74 74 76 72 64 57 53 50 48 46 42
31 31 32 32 32 33 35 36 37 36 36 37 39 41 42 44 46 49 51 54 57 59 61 65 69 73 75 80 83 79 70 70 70 72 71 65 57 53 48 43 41 39 40
32 32 31 31 32 34 34 35 35 36 37 39 41 43 45 47 49 52 55 56 59 62 65 70 74 79 83 83 77 67 68 69 69 70 66 58 54 48 43 39 36 37 37
30 29 30 31 31 32 34 36 36 37 38 40 43 46 47 49 51 53 57 59 61 66 71 76 81 84 83 71 63 66 67 67 67 65 58 53 49 42 39 35 34 36 33
30 32 32 33 34 35 36 35 35 37 40 43 45 48 51 52 53 56 59 62 66 71 76 81 86 79 67 61 66 67 66 66 65 61 55 50 43 39 36 34 35 32 29
32 33 33 33 34 35 35 36 36 39 42 45 48 51 55 53 57 60 63 66 70 76 82 87 77 65 61 66 69 68 67 65 63 58 53 45 39 35 33 32 31 30 24
32 32 32 31 32 32 34 38 40 43 46 50 52 54 54 57 61 64 65 68 74 77 83 79 67 63 67 71 70 68 67 64 59 55 49 40 36 33 30 31 30 26 20
30 31 32 34 36 38 41 43 45 47 51 54 56 57 59 60 62 64 67 71 77 81 81 72 66 67 72 72 69 68 65 60 56 52 42 37 32 30 29 29 27 21 16
31 32 35 37 39 41 44 46 50 52 54 56 57 56 57 60 64 66 71 75 81 83 75 69 69 71 74 70 69 67 62 56 50 44 38 33 29 27 28 27 23 16 15
34 36 38 40 42 42 42 43 45 47 52 54 55 58 61 64 67 69 73 77 83 78 70 69 72 74 71 69 68 62 57 51 43 37 34 29 25 25 26 24 18 14 13
41 41 44 45 45 46 48 50 52 55 58 59 59 61 64 66 69 73 75 82 80 71 69 72 74 72 68 67 63 57 50 43 37 33 29 25 22 25 24 20 15 14 14
42 42 43 44 45 48 51 53 55 56 56 58 62 64 64 66 70 74 79 77 69 67 70 72 71 67 66 63 56 49 43 39 34 29 26 22 21 23 21 16 14 14 14

GFSGL_250_spd_072.txt.gz
Wind_Speed
110 112 112 109 110 108 107 104 96 94 92 96 101 106 109 112 110 106 107 108 108 108 108 107 106 106 106 105 105 105 103 102 103 100 100 95 101 100 99 104 107 107 106
112 111 109 106 105 99 91 91 91 92 94 97 106 114 110 102 100 99 96 96 98 100 101 99 97 99 101 101 99 100 102 101 102 102 100 104 104 107 110 109 108 107 114
98 102 96 89 83 89 87 89 93 94 102 107 96 95 96 90 86 83 83 82 79 77 76 74 75 76 78 90 97 95 93 93 95 100 100 98 98 99 99 99 100 103 103
87 85 82 85 86 88 89 92 98 103 93 85 83 79 76 74 75 73 69 61 55 49 50 55 56 56 59 65 72 83 91 99 98 95 95 95 94 93 95 97 100 103 101
81 82 83 84 86 92 100 99 87 81 80 74 69 66 61 61 55 53 48 45 49 51 51 46 41 38 41 45 51 59 67 77 84 87 90 93 95 98 99 98 96 97 98
83 85 89 93 97 91 83 77 72 70 67 64 59 54 52 52 51 51 44 42 39 41 42 37 30 27 25 24 24 30 36 44 52 58 65 70 74 78 81 83 86 89 90
86 88 86 79 75 71 68 64 63 62 59 52 51 52 47 52 52 47 41 39 39 39 37 36 33 31 28 25 23 22 22 25 30 36 42 47 54 60 67 72 78 83 85
75 72 69 69 66 62 58 57 56 55 51 45 45 46 45 46 46 44 42 41 41 40 40 37 35 33 30 28 27 27 29 33 37 41 47 53 58 65 71 76 80 83 83
67 67 65 61 55 52 51 51 51 51 48 45 43 42 43 45 45 43 43 43 43 42 43 43 42 41 40 40 41 41 42 45 48 52 56 61 66 71 77 82 87 90 96
64 60 52 49 49 49 49 49 49 48 46 45 44 41 42 44 44 43 44 45 47 47 47 47 46 45 45 45 46 48 50 53 56 60 64 69 73 77 83 89 92 95 94
48 46 46 46 47 47 46 45 45 45 45 44 42 41 42 43 43 42 43 45 46 46 47 47 47 49 51 53 55 57 60 62 65 67 70 73 79 83 86 86 84 81 78
44 44 44 43 42 41 42 42 43 40 38 38 39 41 43 43 42 43 44 45 46 47 48 50 53 54 56 58 61 63 66 69 71 73 76 80 80 78 75 79 78 76 71
35 35 35 36 37 39 40 39 37 33 34 37 39 42 43 43 42 43 44 46 47 48 49 52 54 57 60 63 66 68 70 74 79 80 78 74 68 70 75 76 73 67 59
32 33 33 35 36 36 35 34 34 35 37 39 41 42 43 42 43 44 46 48 49 51 53 55 58 62 64 67 70 73 77 81 76 69 63 64 69 72 74 71 64 57 54
31 32 32 34 33 34 34 35 37 38 40 42 42 42 43 42 44 45 47 49 52 54 56 59 63 67 70 72 76 77 79 70 61 60 65 68 69 72 68 61 55 53 48
32 31 32 32 33 34 35 35 35 37 39 40 42 43 42 44 44 46 48 51 55 57 59 62 68 72 74 76 79 80 71 62 63 67 70 69 71 69 62 54 51 46 42
31 32 31 32 33 35 34 34 34 37 39 41 43 43 43 44 46 48 50 54 58 59 63 68 72 74 76 78 80 76 68 66 68 73 71 70 68 64 57 52 45 40 36
32 32 31 31 31 32 34 35 36 38 41 42 42 43 44 46 48 51 54 58 60 64 68 71 72 75 78 79 80 71 68 69 73 73 71 69 63 58 54 47 39 35 31
30 30 30 31 32 33 35 36 36 39 41 41 43 46 48 50 52 54 57 60 64 64 67 71 74 78 80 80 73 70 71 73 73 72 70 64 58 54 49 40 35 29 29
29 30 30 31 32 33 34 35 36 38 39 42 46 47 49 52 55 56 59 61 63 68 71 73 76 79 80 75 71 71 73 71 71 71 65 59 53 48 41 34 30 26 28
29 28 29 29 30 31 31 33 35 38 40 43 46 49 52 52 53 58 62 66 67 70 71 74 78 80 78 72 73 73 69 69 70 64 59 52 46 40 34 29 25 24 28
28 29 30 30 31 31 32 33 35 39 42 45 47 50 52 56 59 63 65 66 68 69 73 76 79 80 74 74 73 70 67 68 64 58 50 44 39 34 30 25 21 25 26
29 30 30 32 33 34 36 39 42 46 48 48 50 53 56 59 61 64 66 66 68 71 74 77 80 76 74 73 71 67 68 65 59 52 45 40 35 30 26 20 23 26 25
35 36 37 36 38 40 42 43 42 43 44 49 53 57 60 62 63 65 66 67 70 73 77 79 79 74 73 72 66 66 66 61 54 48 42 35 29 27 22 21 25 25 22
37 38 38 39 39 39 42 44 47 49 52 55 57 61 64 63 62 64 65 68 71 74 78 80 74 73 72 70 65 65 63 57 50 43 36 30 27 23 20 24 27 23 19
39 41 42 44 45 46 48 50 51 54 56 58 61 66 67 64 64 65 67 69 73 77 77 71 70 71 71 67 63 63 59 52 45 38 32 29 25 21 23 25 25 21 17

GFSGL_250_spd_075.txt.gz
Wind_Speed
104 105 104 104 105 105 105 106 108 111 113 114 114 107 101 96 95 94 101 109 106 96 86 79 79 78 76 82 76 73 78 83 91 97 94 95 95 96 95 96 95 95 95
105 106 107 106 107 108 109 112 113 113 112 108 104 95 95 96 97 102 108 94 91 79 73 73 79 82 74 61 60 55 54 59 67 76 90 94 92 92 96 99 100 100 98
108 108 108 109 109 109 110 111 107 104 101 98 92 92 94 99 103 108 91 83 74 70 70 74 77 75 76 66 50 45 45 47 51 59 70 81 89 96 95 92 92 92 93
111 112 109 105 100 99 96 96 93 91 88 89 90 95 98 105 93 85 77 69 65 64 67 68 69 66 62 60 59 48 42 38 37 43 52 60 67 76 84 91 94 95 95
92 93 89 89 87 86 89 88 83 86 88 89 93 100 96 86 77 69 67 61 60 60 61 63 61 57 54 51 47 43 38 31 25 25 30 35 40 48 56 63 69 74 77
78 71 76 78 78 81 79 81 84 87 89 94 99 83 79 73 65 61 59 56 54 56 58 58 55 51 50 49 45 41 38 36 34 33 32 31 33 36 39 44 50 55 58
71 72 72 73 73 77 81 81 87 92 98 86 80 74 68 62 57 54 57 52 52 54 55 55 52 51 50 48 47 45 44 43 42 42 43 43 44 45 47 52 55 59 63
65 66 68 73 77 80 87 92 93 81 77 75 68 63 61 56 52 50 50 49 50 52 52 51 49 49 49 51 53 54 53 53 52 52 52 54 56 59 62 65 68 71 72
77 81 82 84 86 83 76 73 73 74 69 62 59 59 55 53 50 49 46 48 50 51 51 51 50 50 50 51 52 51 51 52 53 54 56 58 61 64 67 70 74 77 78
70 68 68 67 66 67 69 71 64 59 58 58 57 53 49 50 50 46 45 48 49 51 51 51 51 51 52 53 54 55 57 59 61 63 65 67 69 72 74 75 75 76 77
59 61 62 63 65 67 61 55 55 56 56 55 48 45 45 43 41 42 46 48 50 51 51 50 52 53 55 56 58 60 62 64 67 69 69 72 75 70 64 60 61 64 68
60 58 64 63 57 50 51 53 52 51 47 43 41 40 37 38 42 44 47 49 50 51 52 53 55 56 57 59 62 64 67 69 71 72 73 76 71 62 58 62 66 70 71
57 55 51 45 46 47 45 42 42 41 40 38 37 37 39 42 44 47 48 49 49 51 52 54 55 58 60 61 65 68 70 71 73 75 76 72 63 61 64 67 71 72 70
43 41 40 40 41 40 38 37 36 35 35 36 38 41 43 45 47 47 48 49 49 51 53 55 57 60 61 64 68 69 70 74 76 77 73 64 62 63 67 70 71 69 68
38 38 38 38 36 36 36 36 36 35 36 38 41 42 44 46 46 48 49 48 50 52 54 58 60 61 64 67 69 73 75 76 78 72 65 63 65 68 70 69 68 65 61
36 37 37 37 38 38 36 37 37 37 38 40 41 43 44 45 47 47 46 48 51 55 58 59 61 63 67 71 75 77 76 78 75 69 68 68 69 69 69 68 64 59 55
38 40 42 41 40 39 36 36 36 36 36 38 41 43 45 46 47 46 47 50 54 56 58 59 63 67 72 75 76 75 76 77 72 71 71 70 70 70 69 64 59 53 49
39 40 39 38 39 39 37 35 34 35 38 41 42 42 42 42 43 47 50 52 55 57 59 63 68 72 73 75 74 75 77 74 72 72 71 70 70 70 64 59 53 47 44
33 33 34 36 36 35 35 35 36 38 39 39 40 40 42 44 46 47 48 52 57 61 64 66 69 72 75 74 74 75 75 71 71 72 70 70 69 64 57 50 45 40 36
32 34 34 34 34 34 34 35 35 36 37 37 37 38 39 41 44 48 51 54 59 63 65 67 70 73 72 71 74 74 70 69 71 69 69 69 64 56 49 44 40 35 30
29 30 32 33 34 33 34 35 35 36 36 36 37 41 44 44 45 48 54 58 62 65 66 68 69 69 69 72 73 70 69 71 69 68 70 64 57 50 45 40 36 29 25
29 28 29 30 31 32 33 34 35 35 38 39 42 43 43 46 53 58 59 62 65 68 69 69 67 66 70 71 69 69 71 69 66 67 67 59 52 45 40 35 30 25 21
31 30 30 32 33 34 36 37 37 39 40 41 42 45 48 53 58 59 60 63 69 71 69 67 66 68 69 68 69 72 70 66 63 65 62 54 46 41 36 33 29 22 23
31 31 33 36 37 37 36 35 36 39 42 44 47 50 53 57 59 61 64 68 72 72 68 66 67 69 69 67 70 70 68 64 62 62 58 50 43 39 34 29 26 24 27
31 32 33 35 37 38 40 40 40 44 47 49 51 54 57 59 61 64 67 71 73 70 67 66 68 69 69 68 69 69 65 62 62 60 53 47 42 37 33 27 27 29 30
37 37 39 41 43 46 47 47 49 50 51 52 55 58 61 63 65 68 71 75 73 69 66 67 68 68 67 68 66 66 62 59 59 57 51 45 39 34 32 27 25 29 28

GFSGL_250_spd_078.txt.gz
Wind_Speed
112 111 109 108 106 104 105 105 104 104 104 105 104 107 107 109 112 112 111 104 100 95 95 98 103 92 83 77 77 77 82 85 83 68 61 54 55 63 74 83 91 97 97
112 112 111 109 109 107 107 105 104 104 103 103 103 109 109 109 110 103 96 94 93 94 98 102 88 80 74 72 72 74 76 74 74 71 59 49 46 49 60 64 77 91 98
107 107 107 105 107 105 105 104 103 102 101 105 105 106 107 97 93 88 90 91 94 98 102 86 77 71 68 68 67 69 68 63 59 58 54 45 36 35 42 50 56 70 85
104 103 102 102 103 104 104 103 101 104 100 103 99 91 88 84 86 88 91 94 98 97 85 74 70 66 64 65 64 63 60 57 54 50 46 43 37 32 29 28 31 40 51
97 99 101 103 105 104 106 103 103 100 90 85 82 81 80 83 85 90 94 99 91 83 70 66 63 63 62 61 61 59 58 54 53 50 46 41 37 35 35 34 33 36 39
88 89 88 90 92 88 85 82 76 74 74 75 77 79 82 85 90 93 98 85 77 67 64 60 61 60 61 59 59 58 58 57 56 55 53 51 51 49 49 49 50 51 53
77 77 75 75 72 72 69 68 68 69 72 75 78 82 85 90 95 91 82 70 65 63 56 56 58 58 59 57 57 58 58 58 58 56 56 56 56 56 56 55 55 58 61
71 67 69 64 63 66 63 63 66 70 75 76 79 86 91 90 82 75 63 62 60 57 56 56 55 57 58 57 57 58 59 60 60 60 59 60 59 59 60 62 64 65 67
63 59 60 59 57 60 62 67 71 73 77 82 89 80 77 76 67 60 60 57 55 55 50 50 55 57 58 58 59 60 61 63 64 63 63 64 64 66 67 70 73 72 69
64 62 60 63 66 65 67 72 76 83 81 73 71 73 68 61 60 57 51 52 49 45 49 51 54 57 57 58 58 60 62 65 66 65 65 65 67 70 73 77 76 69 63
70 70 74 70 70 74 81 81 70 67 68 67 66 59 59 58 53 48 48 45 45 48 51 53 56 58 58 58 59 61 65 67 66 66 66 69 73 73 76 76 68 65 62
57 60 63 65 66 65 59 59 63 62 59 53 54 53 50 46 44 44 43 45 48 51 53 55 57 58 58 58 61 65 68 68 68 69 71 73 74 75 78 71 69 68 68
48 51 51 52 54 58 57 59 55 48 48 47 46 43 40 40 41 43 46 49 50 52 54 55 56 56 58 61 65 69 69 68 71 73 73 75 76 78 77 71 70 71 71
51 49 50 51 55 54 50 44 44 42 41 42 41 40 40 40 43 45 47 48 50 51 53 54 54 57 60 65 67 67 70 72 74 75 77 76 79 79 72 70 71 71 71
48 51 52 50 45 41 41 41 40 40 41 41 41 42 42 43 45 46 47 48 50 51 51 52 56 60 61 63 65 69 71 72 73 75 75 78 79 71 69 71 72 72 72
43 42 40 39 40 41 40 40 40 42 43 44 43 42 43 44 45 46 48 48 48 48 51 54 55 58 61 64 68 70 69 70 72 73 77 77 70 70 72 72 72 73 70
36 37 38 40 40 40 41 43 47 46 45 44 42 42 44 45 45 46 46 46 47 49 50 52 54 58 63 68 69 69 70 71 71 75 73 69 71 71 72 73 72 67 61
36 39 40 40 41 44 45 46 43 42 43 42 43 43 44 44 43 44 45 45 46 48 49 53 59 65 68 72 71 69 69 69 73 72 68 70 71 72 72 72 66 59 54
37 39 41 41 41 39 39 39 39 40 40 40 41 41 40 40 41 43 44 46 46 48 54 60 64 66 69 72 71 69 67 69 72 69 69 70 70 70 70 66 59 52 47
37 39 40 37 35 35 36 36 37 38 38 38 38 38 39 41 42 44 45 45 49 53 58 62 65 67 71 72 70 68 68 69 70 69 69 69 68 68 68 59 53 46 41
38 39 37 34 33 34 34 35 35 34 35 36 37 38 40 42 43 43 45 49 53 57 61 64 66 69 71 71 70 68 69 69 68 69 69 68 66 66 62 53 48 43 40
38 39 37 35 34 34 33 34 34 35 36 37 38 38 38 38 42 46 50 53 56 60 63 65 67 69 72 71 70 69 70 68 67 69 69 66 64 64 58 49 45 41 36
39 38 38 35 34 34 35 36 37 38 38 36 36 38 40 45 48 50 53 56 59 62 65 68 69 72 71 71 70 71 70 67 66 68 69 64 61 61 56 48 43 39 34
39 35 36 36 36 36 36 35 35 35 36 37 39 41 45 49 50 54 57 60 63 66 68 70 72 74 73 70 70 70 68 66 67 67 66 63 60 57 53 47 41 37 32
38 36 34 35 36 37 37 39 40 41 41 42 45 47 50 53 55 59 62 65 68 70 71 72 75 75 73 71 71 67 66 65 66 66 64 61 59 56 50 44 39 36 31
38 38 37 38 39 40 43 45 47 48 49 51 52 54 56 58 62 64 67 69 71 72 73 75 76 74 72 72 69 66 66 64 64 62 61 58 57 54 48 42 36 32 30

GFSGL_250_spd_081.txt.gz
Wind_Speed
113 112 112 110 109 108 105 105 105 104 104 103 105 107 106 108 108 107 108 104 106 105 106 108 96 92 93 96 100 90 81 74 69 66 67 64 62 63 66 68 59 47 40
109 113 114 113 111 112 110 110 110 110 110 110 110 109 111 106 106 101 103 103 107 103 105 91 89 93 96 99 88 78 75 69 66 65 64 62 61 59 56 52 44 35 39
104 104 105 109 111 112 111 110 110 109 110 110 108 105 106 101 100 101 103 105 100 91 86 86 91 95 99 89 78 73 70 66 64 65 63 61 60 59 56 51 44 39 39
95 98 100 99 100 99 100 101 101 101 101 99 101 97 96 99 101 102 92 85 82 81 85 90 94 99 88 77 73 69 65 64 64 64 62 61 61 61 60 59 56 51 47
90 91 93 94 95 96 97 98 97 96 97 94 94 96 99 93 85 83 77 76 79 84 88 93 98 86 74 71 68 63 63 62 64 64 62 63 62 62 62 61 58 53 51
83 83 84 85 86 87 88 88 89 88 90 90 86 81 76 77 74 71 74 78 82 87 91 94 84 72 70 66 64 63 61 62 64 63 62 63 64 64 65 64 61 58 57
75 74 74 75 75 76 77 79 79 77 74 74 71 69 70 70 67 71 78 81 86 91 91 81 70 70 64 63 61 57 61 62 63 62 63 64 66 68 68 66 64 64 64
67 67 67 66 67 68 67 67 70 69 66 65 66 65 63 64 70 76 81 85 91 83 79 68 67 62 61 58 56 60 61 62 62 63 64 66 68 72 71 69 68 68 69
63 64 65 65 66 64 65 63 63 60 59 60 57 60 66 71 73 78 84 84 79 74 67 64 59 58 56 56 59 61 62 62 62 63 65 68 72 72 71 72 71 72 73
63 64 66 66 64 63 59 56 54 55 53 56 61 67 69 74 79 79 76 74 66 66 61 56 55 54 56 58 60 61 62 62 63 65 68 71 72 72 72 73 75 74 75
58 58 57 57 55 54 54 54 55 55 59 63 66 69 76 73 70 69 63 62 61 56 52 52 52 55 57 58 59 61 62 62 64 67 69 71 73 73 74 75 75 76 77
57 58 56 57 59 59 62 60 64 65 72 76 67 61 63 64 59 57 56 55 53 49 49 51 54 55 56 58 60 60 60 62 63 65 69 72 72 73 74 76 78 80 75
53 55 58 61 63 61 58 56 61 61 56 57 59 61 56 51 50 50 50 49 49 49 49 52 53 55 57 57 58 59 59 60 64 69 73 75 73 72 73 78 80 75 75
40 42 43 44 45 45 47 49 51 53 53 57 51 46 46 45 46 48 49 48 48 49 50 52 54 55 55 56 57 58 59 63 68 72 76 76 73 72 75 79 76 74 75
45 47 47 47 49 50 50 51 52 54 51 44 43 44 44 45 47 48 48 48 48 49 51 52 52 53 54 56 56 58 63 66 71 75 77 74 72 73 77 77 73 74 74
44 43 43 44 44 45 46 48 46 42 40 42 43 44 47 49 49 48 49 47 48 49 50 50 51 52 54 56 58 61 65 69 73 77 77 72 72 74 77 73 72 71 72
35 37 39 41 43 45 41 39 39 41 41 43 46 48 49 47 47 48 47 47 47 47 47 49 51 54 56 59 62 65 68 70 75 78 75 70 72 75 75 73 71 70 70
40 41 41 39 37 36 38 40 41 43 46 48 48 47 44 44 45 45 45 45 44 45 47 50 51 54 58 61 63 66 69 71 76 77 71 69 73 75 72 71 69 70 67
39 35 33 33 36 38 39 41 44 45 43 42 40 39 40 42 42 42 42 43 43 46 48 49 53 57 60 62 65 68 70 73 75 73 69 71 73 72 71 69 69 68 67
32 34 36 37 38 38 39 39 35 35 36 36 37 38 39 40 40 40 42 44 45 44 47 51 56 58 62 65 67 70 71 73 72 70 70 73 72 70 71 68 66 66 64
34 36 37 38 40 39 40 37 35 34 34 35 35 36 37 38 39 41 41 41 43 47 51 54 58 62 66 69 70 72 73 74 70 70 73 74 70 69 68 67 66 65 63
36 37 39 40 40 39 39 38 36 35 34 36 37 39 39 40 39 38 40 45 49 52 55 59 62 65 68 69 71 73 75 73 71 72 75 73 69 68 67 65 64 63 61
38 40 41 42 40 40 40 39 37 37 38 39 40 39 37 37 38 42 46 49 53 56 59 63 65 67 68 70 72 76 75 73 71 73 73 71 69 66 65 64 62 62 59
41 41 42 42 42 42 40 40 39 38 38 38 37 38 38 40 43 47 50 53 57 61 63 65 68 69 70 73 76 76 74 72 73 71 69 69 68 65 63 63 62 60 56
44 44 43 43 43 41 40 38 38 38 39 40 41 42 43 46 50 52 54 59 62 65 68 69 70 71 74 77 77 74 72 72 70 69 68 68 66 65 64 64 62 59 52
44 43 43 43 43 41 40 40 40 41 42 45 46 49 51 53 55 58 61 65 68 70 71 70 72 74 77 78 76 73 71 67 67 65 66 66 65 65 64 63 61 55 47

GFSGL_250_spd_084.txt.gz
Wind_Speed
108 109 109 107 106 105 104 103 102 102 103 104 103 104 105 105 105 107 107 110 109 109 102 104 101 100 101 101 95 89 89 90 94 94 83 76 67 62 60 61 61 61 62
99 103 106 107 108 108 108 107 107 108 107 109 108 109 109 108 108 109 107 106 104 100 98 97 98 98 93 92 87 86 90 95 98 88 77 69 61 60 61 61 60 60 60
97 97 99 101 104 105 106 107 107 106 107 105 106 104 103 101 99 101 99 98 97 98 97 94 93 84 86 84 86 88 93 98 88 78 71 64 61 59 62 62 61 60 60
97 100 99 97 98 99 99 98 98 98 98 98 97 96 93 94 94 95 96 95 95 94 89 86 81 82 81 85 87 91 98 89 80 73 64 57 58 62 63 63 62 61 61
96 96 95 95 95 95 95 94 94 94 93 92 92 90 90 93 92 93 89 88 84 82 79 79 79 79 81 86 90 96 90 81 75 66 58 59 62 63 64 64 64 64 65
88 90 91 92 92 91 89 87 86 86 84 82 84 85 85 84 80 81 79 75 74 74 75 74 75 78 84 89 92 87 79 76 66 60 60 62 64 64 65 64 65 67 70
79 80 81 81 80 79 79 79 78 77 79 79 79 79 77 75 74 71 69 70 70 70 70 72 76 83 88 91 84 76 73 65 59 60 62 64 64 65 64 65 67 68 71
70 72 72 72 72 72 73 72 74 75 75 73 72 70 66 65 63 65 66 68 65 65 70 78 81 84 86 80 74 69 63 59 60 61 62 64 64 63 65 66 68 70 73
65 66 66 68 68 67 67 68 69 70 66 64 62 60 60 61 60 62 61 61 64 69 76 81 81 79 73 70 66 60 58 59 60 62 63 63 63 64 65 70 73 74 76
59 61 63 62 64 63 62 64 62 59 61 59 59 59 58 56 54 54 57 63 68 74 77 71 74 68 66 64 58 57 58 59 61 62 61 62 63 66 70 73 76 78 78
58 59 60 60 60 60 61 61 61 60 59 57 53 50 50 53 55 59 63 71 75 71 70 67 62 62 60 58 57 58 59 60 60 59 60 61 65 70 72 76 78 79 77
55 56 56 57 58 58 59 57 55 53 50 51 52 52 55 59 63 66 70 72 66 66 59 56 57 57 57 57 57 57 59 60 59 59 61 65 69 72 76 79 81 80 76
49 50 51 50 50 50 49 50 50 50 50 52 57 61 65 61 60 59 60 63 58 54 53 54 54 55 55 55 56 57 59 58 58 60 63 68 72 74 78 82 83 80 77
43 44 46 47 49 50 51 51 52 53 58 63 60 53 52 56 56 57 58 52 51 51 52 53 54 53 53 54 56 56 56 57 59 62 66 69 71 75 80 83 84 77 77
36 38 39 40 41 43 43 44 44 47 47 48 50 52 54 55 56 51 49 49 50 53 54 53 53 53 53 53 53 54 56 57 59 64 67 70 73 77 80 83 80 76 75
36 35 36 36 37 39 41 45 47 48 50 49 49 50 52 50 46 46 48 50 53 53 51 51 51 51 50 51 53 54 56 58 61 65 69 72 76 78 81 81 75 75 73
40 41 44 46 47 47 45 43 42 43 44 45 49 47 45 44 45 48 51 53 51 48 48 49 49 48 48 51 53 54 57 60 64 69 73 74 77 80 81 76 74 72 70
34 35 36 35 35 34 36 37 40 43 45 43 41 42 44 47 50 52 50 46 45 46 47 47 47 47 49 49 54 57 60 63 68 72 74 75 78 81 78 73 73 70 70
35 35 36 37 39 40 41 41 39 38 37 38 41 45 48 47 45 44 42 42 43 44 44 44 47 46 47 52 57 60 63 66 71 73 74 75 79 79 74 73 72 70 69
41 41 41 42 42 40 37 35 36 36 37 40 41 39 40 39 40 40 40 41 41 42 44 44 44 47 52 57 59 63 66 69 71 73 75 78 79 75 73 72 71 71 67
42 42 41 39 37 35 36 38 39 39 40 40 37 36 38 37 36 38 40 41 42 43 41 44 48 51 55 58 62 66 70 71 72 74 77 78 74 72 72 70 71 68 66
38 37 36 35 35 38 39 41 42 41 41 41 39 37 38 39 38 40 41 41 40 41 44 48 51 55 58 61 66 70 71 72 75 76 78 76 72 71 70 70 69 67 65
35 35 36 37 38 38 41 42 44 45 43 43 41 40 40 40 40 40 39 39 42 45 49 52 56 59 62 66 69 71 73 75 76 78 78 74 72 70 71 70 67 66 65
37 38 40 40 41 42 44 44 45 46 45 44 43 43 41 42 42 42 42 43 47 50 53 56 60 64 67 69 71 74 75 76 78 78 75 73 70 69 69 69 67 66 65
43 43 44 45 45 45 45 46 47 46 46 46 45 44 44 44 46 46 46 48 51 54 57 61 64 67 69 72 74 74 76 78 78 74 74 72 70 70 70 68 66 65 65
48 48 49 48 48 48 48 48 48 47 47 47 47 46 47 48 49 50 52 54 56 59 62 65 67 69 71 74 75 77 78 78 73 70 71 71 70 70 68 67 64 63 61

GFSGL_250_spd_087.txt.gz
Wind_Speed
103 104 104 108 110 109 107 107 106 104 103 102 100 99 99 100 99 101 101 103 105 106 107 107 106 101 98 98 99 96 93 92 87 87 88 88 89 92 81 74 65 59 58
101 102 103 101 104 110 111 110 110 108 107 106 106 104 105 105 106 106 107 107 108 106 103 99 97 95 96 99 92 89 87 84 85 86 85 87 91 85 74 66 60 60 62
95 94 95 98 99 101 105 110 112 112 112 111 109 109 109 109 109 108 107 105 103 101 99 97 95 96 87 86 84 81 80 82 83 83 86 90 88 74 66 61 60 62 62
85 88 90 91 92 91 94 99 101 104 105 106 104 104 104 102 101 100 99 98 96 94 93 93 87 80 79 80 78 79 78 79 81 83 88 88 74 66 62 59 62 62 63
82 83 86 88 89 91 93 95 96 96 96 95 96 97 96 96 97 98 96 94 94 89 88 77 75 77 77 76 77 77 76 78 83 86 86 74 65 61 61 63 62 62 62
78 78 80 82 87 91 93 94 93 94 95 95 95 94 93 93 95 91 90 86 87 81 75 75 74 72 72 74 75 72 75 82 85 78 73 66 61 61 62 62 62 60 63
73 74 76 78 80 82 85 88 90 90 91 92 90 89 87 86 88 84 82 80 75 74 73 70 69 69 71 71 68 71 79 84 79 71 66 61 60 61 62 62 60 62 63
67 67 69 71 73 73 74 76 78 79 79 80 78 78 78 76 76 75 73 72 71 67 67 66 67 69 66 65 69 79 83 77 70 65 61 60 61 61 62 61 62 63 66
61 63 66 68 68 69 70 70 70 70 71 70 71 70 71 70 70 70 68 66 65 63 63 65 63 60 64 68 76 82 74 67 65 61 60 60 61 60 60 60 62 66 70
58 60 62 64 63 65 66 67 66 65 64 65 65 66 68 67 65 63 60 59 60 61 58 57 58 64 69 75 77 69 62 63 62 59 59 59 59 58 60 62 65 69 71
55 57 59 60 60 59 60 62 62 62 62 63 62 63 62 62 58 58 59 58 53 54 55 59 64 70 74 68 65 60 61 60 58 58 57 57 57 59 60 64 67 71 74
54 56 57 57 58 56 57 59 59 60 61 61 59 59 61 59 58 56 52 50 53 57 62 67 66 66 66 61 58 59 59 59 57 57 57 56 58 59 62 66 70 74 77
50 51 51 50 52 53 53 54 56 57 56 57 58 56 54 51 48 47 51 56 60 64 61 64 64 63 57 56 57 59 58 56 57 57 55 57 58 60 65 68 74 78 79
43 45 46 47 47 47 48 49 49 49 48 47 47 46 47 48 50 52 58 60 58 58 60 61 59 54 54 56 58 56 55 55 56 55 56 57 60 64 68 72 77 79 81
38 40 42 43 44 46 46 46 46 46 44 46 47 48 50 54 55 53 53 55 56 57 58 53 51 53 54 56 54 53 53 54 55 56 56 58 62 67 70 74 79 81 85
34 34 36 37 38 40 41 42 44 44 45 46 45 44 44 47 49 52 52 53 55 53 50 50 52 54 55 52 51 50 51 53 55 55 57 61 65 68 72 75 79 83 86
32 34 36 36 36 37 37 38 37 39 39 40 43 47 48 48 49 49 51 51 47 49 50 53 54 52 49 49 47 48 51 53 53 57 60 64 68 70 74 76 80 84 84
37 37 38 40 42 43 42 43 44 44 46 46 44 43 43 44 46 46 44 46 49 52 52 50 47 47 48 46 47 51 51 50 55 58 62 66 69 73 77 78 81 82 76
39 39 39 39 38 39 40 41 41 39 37 40 41 43 44 42 39 40 45 46 46 45 44 44 46 45 45 47 49 49 49 52 56 61 65 68 72 76 77 79 80 75 71
39 38 38 36 36 36 36 37 38 40 43 44 45 40 38 37 38 41 41 40 40 40 41 42 43 45 47 47 47 50 52 54 59 65 67 71 75 77 78 79 75 71 69
41 41 41 42 41 43 44 46 45 46 46 44 40 37 37 39 39 39 39 40 40 41 42 44 45 45 44 46 49 52 55 58 63 67 70 74 76 77 78 74 70 70 70
41 43 43 43 44 45 46 47 47 46 44 42 40 39 40 42 39 39 39 39 41 43 43 44 44 45 47 50 52 56 59 63 66 69 73 76 77 78 75 68 69 69 69
42 43 44 45 45 45 44 44 43 42 43 43 43 43 43 44 44 44 43 43 43 43 43 44 46 48 50 53 56 60 63 66 68 72 75 77 78 77 71 68 68 69 68
38 40 41 43 43 42 41 42 42 43 44 46 45 46 46 47 48 47 47 47 47 47 47 48 49 52 54 57 60 63 66 69 71 74 76 79 78 73 70 69 68 67 66
39 38 38 40 41 41 41 43 45 46 47 48 47 47 48 50 51 52 51 49 49 50 49 50 53 56 59 61 63 65 69 72 73 75 78 79 75 71 69 68 67 65 63
45 44 45 45 45 45 46 47 49 50 50 50 51 50 51 52 53 53 53 53 52 52 53 55 58 60 63 64 66 69 72 72 74 76 79 75 71 69 68 67 65 62 59

GFSGL_250_spd_090.txt.gz
Wind_Speed
105 105 105 106 106 108 112 115 114 113 112 112 111 109 109 109 106 105 104 103 103 103 103 104 105 108 108 110 113 113 110 104 99 96 87 85 85 85 85 84 85 87 78
102 104 105 107 107 106 106 107 108 108 111 113 114 113 114 112 109 108 107 107 106 106 106 110 112 111 114 114 110 104 104 99 92 85 83 83 82 83 83 83 87 78 72
101 103 104 104 106 106 108 107 106 106 107 108 110 114 115 113 112 112 110 112 112 111 112 115 115 115 111 103 101 100 97 91 85 81 79 79 81 80 80 85 80 72 64
103 103 103 104 104 103 103 102 103 104 104 105 104 107 108 110 114 115 115 117 117 116 115 114 110 105 103 100 96 93 87 83 80 77 77 78 77 78 83 83 73 66 62
97 98 100 100 102 102 100 100 99 100 101 101 101 104 106 107 108 110 112 112 109 107 105 103 102 99 94 95 91 84 80 79 75 74 76 73 76 80 86 75 67 62 63
89 90 92 91 94 93 94 94 93 92 95 97 96 98 100 99 101 103 103 102 100 101 100 96 96 93 90 88 83 78 77 73 73 73 70 74 76 85 76 69 63 62 63
80 82 83 83 83 84 86 85 84 85 88 91 92 94 95 96 97 98 98 98 98 97 96 92 89 85 81 79 75 75 71 69 71 69 73 77 82 73 69 67 63 61 63
72 73 74 75 76 76 76 79 78 76 78 81 83 86 88 90 91 93 92 92 91 88 84 82 79 77 75 73 69 67 68 66 66 70 75 78 72 66 67 62 61 63 62
63 66 68 69 71 72 71 73 72 71 75 75 77 79 80 82 83 80 80 78 77 77 76 75 71 70 67 64 66 63 59 63 68 74 75 71 65 65 64 63 62 62 62
57 58 60 62 64 65 66 67 69 69 70 72 72 70 72 71 71 70 69 70 69 70 68 67 63 62 62 65 59 59 63 68 74 71 69 65 64 64 62 62 62 61 62
55 54 56 57 59 61 62 63 65 65 67 69 69 69 68 68 66 66 65 65 64 62 60 60 59 62 61 58 60 63 69 70 70 67 62 63 64 62 61 61 60 61 63
54 55 56 57 58 59 60 59 62 62 63 65 65 65 65 63 63 59 61 60 59 60 59 62 59 55 56 60 62 68 68 67 66 60 62 63 60 60 60 60 60 62 65
51 52 53 55 56 56 57 58 57 57 59 58 58 57 56 55 56 57 58 58 59 61 57 53 51 57 61 63 65 64 64 61 58 60 62 59 59 59 59 59 59 64 67
40 42 44 47 52 51 51 51 52 51 50 51 52 53 53 54 56 56 57 55 53 50 50 52 58 61 60 61 63 62 58 56 58 61 57 57 57 57 57 58 63 66 70
35 36 38 40 43 45 45 46 45 46 47 46 46 47 46 48 48 48 48 46 48 52 57 59 57 57 59 60 60 56 56 57 59 55 55 56 55 54 56 61 65 69 73
33 33 33 36 38 40 41 43 44 44 45 45 45 46 46 45 46 48 49 51 51 50 51 54 56 58 59 56 54 55 57 56 52 53 54 53 53 54 58 63 67 72 75
34 33 34 35 38 37 38 38 38 40 43 44 46 48 49 50 50 48 47 46 48 51 52 53 55 56 54 54 56 54 51 49 50 51 52 51 53 57 61 65 70 75 77
40 40 39 39 41 40 40 39 39 38 38 39 40 41 42 42 43 45 48 51 50 48 49 50 50 53 54 51 49 47 47 48 49 51 49 51 56 60 64 69 73 76 80
45 44 45 45 44 45 45 45 45 45 45 44 45 45 45 46 49 48 47 46 46 48 44 47 50 49 46 45 44 44 46 48 48 48 50 54 59 64 67 72 75 78 82
44 46 46 46 46 46 46 46 46 47 48 49 50 49 48 46 44 44 47 48 45 41 43 45 46 45 44 43 44 46 46 43 46 50 53 57 62 65 70 74 77 80 82
43 44 44 46 46 46 46 45 44 43 43 43 45 44 45 46 48 48 48 45 42 43 44 42 40 41 43 44 47 47 45 47 49 52 56 60 64 68 73 77 78 80 81
42 43 44 46 46 47 47 46 47 46 47 48 49 49 50 53 53 50 47 45 44 44 44 44 44 43 44 45 46 46 47 49 52 56 59 63 67 71 75 77 78 80 77
44 44 45 46 46 47 48 49 50 52 52 53 54 54 54 56 55 49 47 47 46 46 47 49 48 48 48 48 48 49 52 53 56 59 63 67 69 73 76 77 78 78 74
43 45 46 47 48 48 49 50 51 52 53 54 54 53 52 51 52 50 48 48 49 51 52 53 53 52 51 51 53 54 56 57 59 62 66 69 72 76 76 76 78 76 72
44 42 42 43 45 47 47 49 50 51 51 52 52 51 49 49 50 52 52 51 53 54 55 56 57 55 54 55 56 57 59 60 62 65 68 71 75 76 75 77 77 73 69
53 51 48 47 46 46 45 45 45 47 47 49 49 49 49 50 51 53 54 55 56 56 57 59 60 59 59 60 60 60 61 63 65 68 71 75 77 75 76 77 74 70 67

GFSGL_250_spd_093.txt.gz
Wind_Speed
97 100 101 102 102 101 105 109 110 109 108 108 109 107 108 106 106 109 110 109 111 111 111 111 112 112 113 113 113 113 115 114 116 120 120 115 108 104 97 90 84 82 81
99 100 104 103 103 106 105 104 108 113 113 111 112 110 111 113 111 114 114 113 112 114 114 115 116 117 115 115 116 119 119 120 120 118 113 108 102 97 89 84 82 80 79
98 100 100 101 104 105 105 104 104 105 107 109 111 113 115 117 118 118 119 119 119 121 120 120 119 119 118 119 117 118 117 116 116 112 107 102 94 88 82 81 79 77 78
97 99 100 101 103 103 105 106 108 107 105 106 107 108 109 109 109 111 111 110 110 111 111 112 111 112 113 112 112 113 112 112 108 106 99 94 86 80 79 77 76 75 78
97 97 98 99 101 102 104 105 106 107 107 107 107 107 110 109 109 109 109 110 109 110 108 111 111 112 111 113 111 108 108 104 102 99 90 82 77 76 76 74 74 77 79
91 95 99 100 100 101 102 105 107 108 108 109 108 107 108 107 106 106 107 107 106 108 108 110 110 109 108 107 106 103 101 97 94 85 77 74 74 74 70 70 75 78 74
80 84 88 92 96 100 103 105 106 106 107 106 105 104 105 105 106 105 103 104 103 106 105 105 103 103 102 99 97 95 89 86 80 75 73 72 72 67 69 73 77 74 66
75 76 78 82 84 87 90 93 93 95 97 97 96 96 98 98 99 100 100 96 95 93 91 92 93 92 89 87 85 80 77 73 71 70 68 69 64 67 72 75 73 69 64
71 73 73 75 76 78 80 83 84 85 86 86 86 87 88 91 92 91 91 91 88 87 83 84 81 80 78 77 73 69 67 68 66 65 66 63 66 70 74 73 69 64 66
69 69 68 69 70 71 73 75 76 77 78 79 79 80 81 83 83 82 83 83 84 81 76 75 74 70 68 67 66 64 61 63 63 65 63 64 69 72 71 68 63 65 65
64 63 63 62 63 63 66 68 68 69 71 72 73 74 75 77 75 76 75 76 76 73 69 70 68 65 64 63 62 62 63 63 60 59 63 69 71 69 67 62 64 64 62
59 59 59 59 60 60 60 61 63 65 66 67 68 69 70 70 71 72 71 70 70 68 67 65 61 63 61 60 61 60 64 57 58 62 67 68 68 66 61 63 63 59 59
52 53 53 55 56 58 60 60 61 61 63 64 63 63 64 64 63 63 63 63 62 61 58 59 61 58 58 60 60 55 53 56 62 64 65 65 65 60 62 62 58 57 56
43 44 46 46 47 49 53 54 54 55 55 55 55 54 54 55 55 56 56 55 56 56 56 56 56 56 59 52 51 52 56 62 60 63 64 62 59 60 60 56 55 54 54
40 41 41 42 42 42 44 45 47 47 49 49 49 49 49 49 50 51 52 52 52 54 54 56 56 51 48 51 54 57 57 58 62 62 59 59 60 58 54 52 53 53 56
39 39 40 40 40 40 40 41 42 44 44 45 46 47 46 46 46 47 48 47 48 47 47 46 47 49 52 52 52 54 56 59 59 57 59 57 54 52 50 51 51 54 58
43 41 40 41 41 40 40 40 40 41 40 41 44 46 46 46 44 44 44 45 45 46 47 49 51 51 49 51 52 54 56 55 56 55 52 50 49 49 49 49 52 56 60
45 45 44 43 42 42 41 40 40 40 39 39 40 41 42 44 46 47 48 49 50 52 51 48 46 48 52 51 51 51 52 54 52 49 47 46 48 48 48 51 54 57 62
45 47 49 49 48 47 46 44 44 45 42 43 43 43 42 41 40 42 43 43 42 44 44 47 50 49 47 49 47 48 50 49 48 47 47 48 49 50 51 54 56 60 65
44 45 46 48 51 52 51 50 50 50 51 50 50 49 48 48 47 47 47 47 48 48 50 49 46 47 49 46 45 45 44 44 44 45 47 48 50 52 54 57 59 64 67
43 44 45 47 47 48 50 53 53 53 53 53 53 51 52 53 53 53 54 54 53 50 48 48 49 49 47 47 47 46 47 45 43 45 47 49 52 54 56 59 62 66 69
45 44 44 45 45 47 48 49 51 52 53 53 53 52 50 49 49 49 49 50 50 50 52 53 52 50 49 49 49 50 49 48 47 49 50 53 55 57 59 62 65 68 71
46 46 46 46 46 46 47 49 50 51 52 53 53 52 50 52 52 52 53 54 55 56 57 57 56 54 53 52 53 52 52 51 51 52 54 57 58 60 61 64 66 70 73
45 44 44 45 47 49 49 49 50 50 51 52 53 53 54 56 58 59 59 60 60 60 60 60 57 56 56 57 56 55 55 55 55 56 58 59 61 62 63 66 68 72 74
51 51 49 47 46 45 45 47 49 51 52 52 53 53 54 56 58 60 60 60 59 59 58 57 56 57 57 57 58 59 58 58 60 61 60 61 64 65 66 68 70 73 75
54 55 55 54 53 52 50 49 48 47 47 48 49 50 52 52 53 55 57 57 56 56 55 55 55 56 58 59 60 61 61 63 64 64 63 65 66 67 68 70 72 74 76

GFSGL_250_spd_096.txt.gz
Wind_Speed
90 91 93 96 99 100 99 100 98 100 100 105 104 102 104 104 105 104 104 106 104 103 102 103 105 105 106 108 111 114 116 117 117 122 118 113 113 115 111 109 105 100 98
87 89 92 93 98 102 103 103 102 102 103 104 105 107 107 109 109 109 110 110 110 109 110 109 111 111 113 114 113 118 119 120 121 113 115 116 114 109 107 104 100 97 89
87 88 90 92 96 100 102 104 106 103 103 107 105 106 107 107 110 113 114 113 113 113 114 114 115 115 117 119 121 120 115 112 112 114 113 113 113 106 105 98 95 86 78
86 89 91 93 96 97 97 100 103 103 105 102 102 105 106 107 107 108 112 115 117 118 118 119 121 119 117 113 110 109 111 111 112 112 110 110 107 104 96 90 82 76 72
88 89 90 92 94 96 97 97 98 101 102 102 102 103 103 105 106 107 107 108 110 110 111 111 110 108 109 110 110 108 109 108 109 108 108 107 99 91 85 77 74 71 69
84 90 93 93 94 95 96 96 96 96 98 100 101 101 101 103 104 105 107 107 108 106 109 110 109 109 108 109 106 106 106 106 104 101 95 90 84 79 71 69 67 65 65
75 77 81 85 90 95 97 98 98 98 99 100 100 99 100 101 103 104 105 106 107 107 108 108 108 107 107 105 105 103 97 94 92 90 85 79 73 69 66 65 64 65 67
72 72 73 75 78 81 85 90 95 97 99 101 102 102 102 103 103 103 104 103 104 106 106 107 107 106 104 104 102 97 93 88 86 82 73 68 65 65 62 61 63 62 68
71 72 71 71 72 73 76 78 80 83 86 90 92 94 96 98 100 100 101 101 101 102 102 102 99 99 97 96 91 89 85 84 75 71 66 64 61 59 61 63 61 65 69
69 69 69 68 69 69 71 72 74 77 78 80 82 83 84 85 86 86 87 87 88 90 91 89 88 86 86 84 82 78 77 71 70 66 64 62 59 60 62 59 63 67 67
68 69 68 68 68 68 68 68 69 71 73 75 76 77 78 77 78 78 79 80 80 80 80 80 76 74 72 71 69 68 65 64 64 62 61 59 60 62 57 62 65 64 64
63 65 66 68 69 69 67 67 66 66 66 67 70 72 73 72 72 73 73 72 72 72 70 69 68 67 65 62 60 59 59 60 59 58 59 61 62 57 59 64 64 64 59
58 60 61 63 64 64 63 63 63 62 62 63 65 65 66 67 67 66 65 64 63 63 62 62 60 59 58 57 56 55 57 57 56 59 60 56 55 58 61 62 62 59 59
55 55 54 54 57 57 55 55 56 55 54 53 54 57 58 58 59 57 56 57 58 56 55 56 55 53 55 56 53 53 55 56 58 58 54 54 57 58 60 59 58 57 50
51 51 50 51 51 49 49 48 47 47 47 47 47 49 49 48 50 50 49 49 50 50 50 51 52 53 54 55 54 56 57 58 54 51 53 54 56 58 56 56 52 49 49
50 50 50 48 48 47 46 45 44 43 43 43 44 45 44 44 45 45 44 45 47 48 49 50 51 52 54 54 54 52 51 50 50 51 51 54 55 53 53 50 47 48 48
46 46 46 46 47 46 46 45 45 43 43 43 42 42 42 43 44 45 43 43 44 45 47 48 47 47 48 48 48 50 49 51 49 49 53 52 51 52 49 47 47 48 49
47 48 48 48 47 47 46 46 45 45 45 44 43 41 41 41 41 43 44 46 46 45 45 45 45 45 45 46 48 51 48 47 49 49 50 48 49 48 47 46 47 48 49
47 47 47 47 48 49 49 48 48 47 47 47 45 43 43 42 41 40 41 42 43 46 47 48 49 49 49 48 46 46 47 49 47 47 46 46 46 44 44 45 46 48 51
45 45 46 46 46 47 49 51 54 54 53 51 50 47 47 47 46 45 44 44 43 43 43 44 44 45 46 47 48 49 49 48 48 48 47 48 47 46 48 49 50 51 53
45 45 45 45 46 46 47 48 50 51 52 55 55 53 53 53 52 53 52 51 51 52 51 50 50 51 52 53 53 50 49 50 50 50 50 50 50 51 51 52 53 54 56
42 44 45 47 47 46 47 47 46 47 48 51 52 54 55 57 56 57 57 56 55 54 55 54 53 52 51 50 51 52 53 55 53 52 53 54 54 54 54 56 56 57 59
44 43 42 43 45 46 48 49 48 47 47 48 50 51 52 53 54 55 56 56 55 54 53 52 52 51 51 52 53 54 58 60 58 56 56 56 57 57 57 58 58 59 61
48 48 48 47 46 46 44 44 45 46 48 49 49 50 51 52 54 56 56 56 55 55 54 55 55 56 57 59 60 61 62 63 61 60 57 59 60 58 59 61 62 63 63
53 52 51 50 50 50 50 49 48 47 46 46 46 48 50 51 53 53 55 57 57 56 56 57 59 61 62 62 62 62 61 59 58 57 57 58 60 61 62 64 65 66 67
54 53 53 53 53 52 51 52 53 53 53 52 51 50 49 48 49 50 53 55 57 57 57 57 58 59 60 60 59 58 56 54 54 55 57 59 61 62 64 65 67 69 69

GFSGL_250_spd_099.txt.gz
Wind_Speed
89 90 91 92 92 92 94 97 99 98 98 97 98 96 97 94 95 99 95 95 96 98 99 101 103 104 103 102 102 104 105 106 109 111 112 113 117 118 121 116 113 111 108
85 86 88 89 90 91 93 95 98 99 100 100 102 101 100 97 95 98 101 105 106 105 106 106 106 107 107 107 107 109 107 110 112 115 115 114 118 121 112 112 111 109 105
82 82 84 86 88 88 89 90 93 96 100 103 103 106 102 101 99 98 100 101 103 105 107 107 110 111 113 114 114 115 114 114 115 116 119 121 116 111 111 109 107 103 99
80 80 80 82 84 85 86 88 91 93 96 98 101 104 102 103 101 101 99 101 102 104 106 106 108 109 110 110 112 113 115 115 117 115 111 108 107 108 107 106 104 95 87
80 80 80 81 83 84 85 85 87 89 92 94 96 97 99 101 102 102 103 104 103 102 103 105 105 106 108 107 108 109 108 108 108 106 106 106 106 106 103 103 94 86 79
76 78 81 82 84 85 86 87 87 88 89 92 93 93 96 98 99 100 101 101 101 102 103 104 103 103 103 104 104 105 105 104 106 105 104 103 102 100 97 93 86 76 67
73 73 74 77 79 82 85 87 89 90 91 92 93 94 95 96 97 98 98 98 98 100 100 98 98 100 101 101 102 102 104 102 102 101 103 100 99 96 92 83 76 69 65
70 70 70 71 72 74 76 78 81 84 87 90 93 95 96 97 98 99 98 99 99 100 99 99 98 99 98 99 100 100 102 101 100 99 97 92 90 85 78 72 65 64 61
69 70 70 70 70 71 73 74 75 76 78 81 83 86 88 90 91 93 94 97 99 100 101 101 101 101 99 99 97 97 96 93 89 87 85 83 76 71 66 64 61 59 58
69 70 69 70 69 69 70 70 71 73 75 77 78 79 81 83 84 85 85 86 86 88 88 89 87 87 85 86 86 85 84 81 79 78 74 69 64 60 59 60 57 60 59
68 68 68 68 67 67 68 68 68 68 70 72 74 76 77 78 78 79 80 81 82 80 79 79 78 79 76 76 76 75 74 72 71 66 62 59 56 56 56 56 57 59 61
69 68 67 65 64 65 66 68 68 68 67 67 67 68 69 71 71 72 72 73 75 75 74 72 71 69 68 67 65 65 63 62 59 58 56 52 52 54 53 54 57 60 58
67 66 65 64 61 61 64 64 65 66 65 63 63 63 63 64 64 64 65 65 66 66 66 65 63 61 59 59 59 58 55 54 53 53 50 50 52 52 53 56 56 55 55
63 61 59 58 59 60 61 60 59 59 58 58 57 57 56 55 55 56 56 56 57 57 57 56 56 55 54 52 52 51 51 51 51 49 47 50 51 51 53 56 53 53 52
59 60 59 58 58 57 56 55 54 52 52 52 50 51 51 49 49 49 48 48 50 50 49 50 50 50 49 49 49 49 49 49 49 50 50 52 52 51 50 51 52 51 51
58 58 57 56 55 53 52 51 50 49 49 49 48 47 45 45 45 45 45 45 47 46 45 46 46 47 48 47 47 48 49 48 50 51 52 49 47 47 49 50 49 49 49
50 49 49 48 48 49 49 47 46 47 48 47 48 45 43 41 41 42 42 42 43 44 43 43 43 44 45 45 45 46 45 46 47 47 45 44 48 50 50 49 47 47 46
49 48 49 49 50 50 50 49 49 48 47 47 46 45 44 44 42 41 41 41 41 41 42 43 43 41 41 41 41 42 43 44 45 45 46 50 49 47 50 47 48 46 46
50 49 49 49 49 49 49 49 49 50 50 49 48 47 46 46 45 44 42 40 39 39 39 40 41 42 43 44 45 46 45 45 47 49 47 45 47 51 48 48 49 47 49
49 47 47 48 48 48 48 49 49 50 49 49 49 48 48 50 49 49 48 45 44 42 40 40 40 40 40 41 42 43 45 47 46 45 47 48 50 50 50 50 51 52 52
48 47 46 46 46 47 49 47 47 48 49 48 47 47 48 53 53 54 54 51 51 49 47 46 46 46 46 47 47 48 48 49 50 51 52 54 54 52 51 51 52 55 56
47 45 45 45 43 42 43 45 46 46 46 47 47 47 46 47 49 50 53 56 57 56 54 54 54 55 54 53 53 54 56 58 58 57 55 54 55 55 54 56 57 57 59
48 47 47 47 46 45 44 43 42 42 43 45 46 47 47 47 47 48 49 51 53 56 57 58 58 57 56 56 56 55 56 56 55 53 53 53 54 56 59 61 60 58 58
51 50 50 50 50 50 49 47 47 47 46 46 45 44 44 44 46 48 49 49 51 52 53 54 55 56 56 57 56 56 56 56 56 56 56 58 60 62 63 63 58 55 55
55 54 53 53 53 53 52 51 51 51 51 50 50 50 49 48 48 48 47 48 50 52 53 53 54 55 57 57 57 57 58 59 60 61 61 63 63 62 61 58 54 53 53
55 55 54 55 55 54 54 54 54 53 53 53 54 54 54 55 55 54 54 53 52 51 51 52 54 55 57 56 56 56 57 57 58 58 59 59 59 57 55 54 52 52 54

GFSGL_250_spd_102.txt.gz
Wind_Speed
98 98 100 98 99 97 95 95 97 96 96 97 98 99 100 99 97 98 99 97 96 94 96 96 98 102 103 103 101 103 104 103 104 105 108 106 107 105 110 113 112 112 112
91 92 92 94 97 98 96 97 97 97 97 96 96 97 99 101 102 101 101 100 100 98 98 96 96 96 97 97 99 101 104 105 105 105 105 108 109 109 110 110 107 105 102
88 88 88 90 91 92 93 92 94 95 96 96 96 97 99 99 99 100 101 103 103 100 98 100 98 98 98 98 98 100 102 102 104 106 109 107 106 107 104 104 102 99 99
85 84 85 85 86 87 88 89 90 91 93 94 94 95 95 96 98 99 100 101 102 103 102 100 99 99 99 98 98 100 103 102 103 103 103 104 106 104 103 100 97 97 98
79 81 81 82 83 83 84 84 85 87 87 88 89 91 93 94 94 94 96 97 99 100 100 100 101 100 98 98 99 100 101 101 101 100 101 101 102 101 98 95 95 95 95
80 78 78 80 80 81 82 83 83 83 84 85 85 86 87 89 90 91 92 93 95 96 95 96 98 98 98 98 98 100 100 100 100 99 97 97 96 96 98 93 92 92 92
77 76 78 78 77 77 78 80 82 84 85 86 87 87 88 88 88 89 91 91 92 93 93 94 96 96 96 97 97 97 97 98 96 95 94 94 95 94 95 93 92 88 84
76 78 77 76 75 75 74 74 76 77 78 80 82 84 86 88 90 91 93 94 95 95 94 95 96 97 97 97 97 98 97 97 96 95 96 96 96 97 92 88 82 77 73
76 76 74 74 74 72 71 70 70 72 73 75 76 77 79 81 82 83 85 87 88 89 90 90 91 92 94 96 97 97 95 93 93 93 92 89 87 84 81 78 73 69 67
73 71 71 72 72 71 70 69 69 69 69 72 74 75 76 77 78 80 81 82 84 84 84 84 83 83 82 84 85 84 82 82 81 81 79 78 75 74 72 70 66 64 61
70 70 70 70 70 69 67 65 66 67 68 69 71 72 72 72 74 76 78 80 82 82 81 81 81 81 80 79 77 76 75 74 71 70 70 68 68 65 63 61 59 57 53
68 67 67 68 68 68 67 65 65 65 67 66 69 67 67 68 68 70 71 73 74 75 74 74 74 74 74 73 72 71 68 66 64 63 61 60 58 58 56 55 53 51 51
68 68 68 68 67 66 66 65 64 64 64 65 66 65 65 64 62 63 62 63 64 64 63 64 65 65 64 63 62 61 59 59 58 56 56 55 54 52 52 51 48 49 47
68 69 68 66 67 68 68 66 65 63 62 62 62 61 59 58 55 54 54 53 53 53 54 54 55 55 56 56 56 56 54 54 53 53 52 51 50 50 48 45 46 45 47
66 65 66 66 67 67 68 66 63 61 61 60 57 55 52 50 49 48 47 47 46 47 48 48 48 49 51 51 51 51 51 50 51 50 49 50 50 47 47 45 46 47 46
61 62 63 63 64 65 66 62 59 58 57 55 50 47 46 46 45 46 46 45 44 44 44 42 43 43 44 44 44 45 46 47 48 48 46 46 48 48 48 47 46 44 42
60 60 60 61 61 61 59 55 51 49 47 45 44 44 44 43 43 44 43 43 41 41 40 39 39 39 40 39 38 39 41 42 43 43 43 44 45 45 44 41 40 40 44
57 56 56 55 53 51 48 48 48 48 47 46 45 46 45 45 44 44 42 41 40 40 39 39 37 37 37 38 38 38 38 39 39 39 40 41 42 42 41 42 44 49 48
50 49 49 48 47 47 47 48 48 49 48 47 46 45 45 46 46 46 46 44 43 42 40 38 38 38 35 35 37 38 39 40 40 41 42 44 44 44 45 48 49 45 44
50 50 49 48 49 48 47 47 47 49 49 48 47 45 46 48 47 47 48 47 47 46 45 44 42 40 40 39 38 38 37 37 39 43 45 47 48 48 48 46 46 47 48
52 52 51 50 50 50 49 49 49 47 47 47 48 47 46 47 47 47 47 48 48 49 50 50 51 50 47 45 44 42 42 43 43 44 45 46 46 47 48 50 51 52 54
53 52 52 53 52 51 50 50 48 46 45 46 46 46 46 46 47 48 48 48 48 48 49 49 50 51 53 53 50 50 50 51 51 51 51 52 53 54 56 58 58 54 52
54 53 53 53 53 53 52 51 51 50 50 49 48 46 44 44 45 47 49 50 50 50 49 49 49 50 51 52 54 55 56 57 56 56 55 54 54 56 56 54 53 52 53
56 56 55 55 55 55 54 54 53 53 53 53 52 51 50 49 48 48 48 48 48 49 50 50 50 51 51 51 52 54 56 57 56 55 55 55 55 55 53 53 54 55 57
60 60 60 59 58 57 57 57 56 56 57 57 56 55 55 54 55 54 54 54 54 53 53 52 51 52 54 54 54 55 56 57 58 58 58 58 58 57 56 57 58 59 61
62 62 61 61 60 59 58 58 58 59 58 58 58 57 57 57 57 57 57 57 57 58 59 59 58 57 56 54 54 56 58 59 59 59 59 58 58 59 58 58 60 60 61

GFSGL_250_spd_105.txt.gz
Wind_Speed
108 106 105 102 100 97 97 100 103 101 95 97 96 99 99 96 95 95 96 98 100 102 103 103 104 104 104 102 99 99 100 99 95 94 96 95 95 96 97 98 98 98 96
97 101 96 104 106 109 108 108 110 108 105 102 104 102 101 98 99 100 100 101 102 103 104 104 103 103 103 102 100 98 98 96 95 95 94 94 95 96 95 96 96 97 97
83 88 89 92 99 103 102 104 104 106 106 108 108 107 105 104 102 102 102 101 102 104 105 105 105 104 104 104 103 102 99 96 92 94 94 95 96 95 96 96 94 94 93
77 80 85 91 96 97 97 97 98 99 100 101 101 102 102 101 101 101 101 101 102 103 104 104 105 105 103 102 102 102 101 99 97 95 94 93 93 94 95 93 92 91 91
79 81 84 86 88 91 93 93 94 95 96 95 95 94 94 95 96 97 98 98 99 99 99 101 102 103 102 101 100 99 99 98 98 97 95 94 93 93 92 90 90 89 89
79 82 84 85 87 87 87 87 88 89 89 89 88 89 90 90 90 92 93 94 95 95 96 97 97 96 96 97 96 96 96 94 94 93 91 91 91 93 91 90 90 88 86
77 78 79 79 79 80 82 84 86 85 84 84 84 84 86 87 89 91 92 93 93 94 94 95 95 95 95 94 94 93 93 92 93 92 92 91 92 92 92 92 90 91 92
74 74 73 73 75 77 80 82 80 81 80 79 80 81 82 83 85 87 87 87 88 90 91 92 93 94 95 94 94 94 93 93 92 91 93 93 93 92 91 90 87 85 83
68 69 71 72 75 78 78 79 79 79 78 77 77 78 79 79 81 82 82 81 82 84 85 86 86 87 87 87 87 86 86 86 86 86 85 84 83 82 80 79 78 77 75
68 69 72 74 76 76 78 78 79 77 76 74 74 74 75 77 79 81 82 81 81 82 84 84 84 84 85 85 84 83 82 81 79 79 79 76 77 75 74 73 70 68 66
69 71 73 74 76 77 78 77 76 74 74 73 74 74 75 76 77 78 79 79 78 79 80 80 81 81 82 82 80 80 78 77 74 73 72 69 68 67 66 65 63 61 58
69 71 72 73 75 76 72 71 72 73 74 73 73 74 74 74 74 73 75 74 73 73 73 74 74 75 75 74 72 71 70 69 68 67 65 63 62 62 61 59 57 55 53
65 67 68 70 69 71 72 72 73 71 72 71 71 71 70 69 68 67 68 66 65 65 64 65 65 64 64 63 61 61 62 61 60 59 59 56 54 54 53 53 51 50 50
65 67 69 70 71 72 72 71 70 69 70 71 70 69 68 64 62 62 60 59 58 57 55 55 54 53 52 51 51 51 51 53 53 52 52 51 50 50 50 49 47 47 45
66 68 68 70 70 70 71 71 71 72 71 71 70 67 62 60 57 56 55 53 51 50 48 48 48 46 45 44 44 45 44 45 46 46 46 47 47 46 46 46 45 44 44
68 69 69 70 71 71 72 71 70 69 70 69 66 62 58 56 54 52 51 49 48 46 45 43 42 41 40 40 40 40 40 39 39 39 40 42 42 42 42 43 44 44 42
66 67 68 68 68 67 67 68 69 68 67 65 62 57 52 49 47 47 45 46 44 44 43 41 39 38 38 38 38 37 37 36 35 36 37 38 39 39 41 42 42 43 44
64 65 65 65 64 64 65 66 66 64 62 59 51 49 49 49 48 46 46 46 45 45 44 43 40 39 36 37 36 35 34 34 35 34 35 35 36 38 40 41 41 42 42
63 63 64 64 63 63 63 61 59 56 52 49 48 47 48 48 47 47 46 47 46 45 46 45 44 43 42 38 37 36 37 36 36 38 38 38 38 39 40 39 38 38 39
58 57 57 58 56 56 56 56 53 51 50 51 50 48 47 49 49 49 48 47 46 45 46 45 46 46 45 45 43 41 39 39 40 39 38 39 40 41 42 41 42 44 46
59 58 57 57 56 56 56 55 54 54 53 52 51 49 48 50 49 48 48 47 47 46 45 45 46 46 47 48 48 48 47 46 45 44 43 42 41 40 40 42 44 45 46
60 60 59 58 57 57 57 57 57 56 55 54 53 51 50 50 50 49 47 47 47 48 48 48 48 48 48 48 48 49 51 52 51 51 49 48 49 49 50 50 50 50 50
63 62 62 61 60 59 59 58 57 57 56 55 54 53 52 51 51 51 50 48 47 48 48 50 51 51 51 51 51 50 51 52 52 53 55 55 55 55 55 56 55 55 54
65 65 65 64 62 61 61 60 59 58 58 57 56 56 55 54 54 53 53 53 53 53 53 52 51 52 52 52 53 54 54 54 54 54 54 55 56 57 58 58 58 58 57
65 66 66 66 65 65 64 63 62 61 61 60 60 60 60 59 59 59 58 57 57 57 58 58 58 58 57 57 56 55 55 56 56 56 56 56 57 57 57 57 58 59 59
64 65 65 66 67 67 67 67 66 65 65 64 64 64 63 63 63 62 62 61 61 61 61 61 61 60 61 61 61 61 61 61 60 59 59 58 58 59 58 59 59 59 59

GFSGL_250_spd_108.txt.gz
Wind_Speed
95 94 90 87 92 89 85 87 88 94 99 100 104 105 102 102 103 105 104 100 98 97 97 97 98 101 104 104 104 102 103 103 103 102 99 98 99 98 97 95 91 91 89
103 102 96 97 103 101 95 102 106 105 105 105 106 110 110 112 111 106 106 104 104 103 104 106 106 106 108 108 107 107 108 106 104 103 103 103 102 101 100 98 92 89 90
120 120 117 115 114 113 112 116 115 120 119 118 119 124 121 117 114 115 114 113 112 112 111 114 114 115 112 111 109 109 108 108 106 105 104 102 102 101 98 96 93 91 91
113 118 121 124 124 124 124 123 122 123 125 124 125 124 121 121 119 119 117 114 113 112 111 111 111 109 108 107 105 104 103 102 102 101 100 100 98 98 97 94 90 89 87
106 109 110 115 117 119 119 116 116 117 115 117 117 115 114 113 112 110 107 106 106 107 107 107 107 106 104 103 103 101 99 99 98 96 96 95 94 93 92 90 89 86 84
93 98 100 96 98 98 96 101 106 108 105 105 109 104 105 106 106 105 103 102 103 104 104 104 105 103 101 99 98 97 96 96 95 94 93 93 92 90 89 88 87 86 86
85 84 85 84 85 87 88 89 93 94 95 97 99 98 98 99 99 99 98 98 97 98 98 98 97 95 93 92 92 92 92 92 93 93 92 92 91 90 89 87 86 85 85
85 83 83 85 83 85 83 84 85 84 88 90 92 94 94 92 94 92 91 90 91 90 92 91 90 88 87 87 86 86 85 84 83 83 83 83 82 81 81 80 78 76 74
86 83 85 87 86 85 83 84 85 85 86 86 86 87 90 90 87 86 84 86 86 87 88 87 85 84 84 84 84 84 84 82 81 81 79 78 77 76 76 75 74 72 70
87 83 84 84 83 80 80 79 79 80 81 82 83 84 84 84 80 79 82 82 83 84 83 83 84 81 80 82 82 81 81 82 81 79 78 75 73 72 72 69 69 68 67
76 76 77 75 73 75 79 77 75 76 77 78 79 80 80 81 78 80 79 80 81 81 81 82 82 81 80 79 80 79 79 78 76 75 73 70 68 66 65 64 64 62 61
73 73 74 75 75 75 75 76 76 76 75 77 80 80 81 77 78 77 79 80 79 81 78 78 78 75 73 72 71 69 70 68 66 65 63 60 60 61 61 60 59 57 55
71 72 72 74 74 75 76 76 76 77 78 79 80 79 76 77 76 78 80 80 79 78 74 72 71 69 66 64 64 62 60 56 55 53 51 50 50 51 52 51 50 50 47
73 72 72 73 73 73 72 73 74 75 76 77 76 76 78 77 78 79 80 79 75 70 70 66 63 61 59 57 55 54 50 48 47 45 43 43 42 43 43 41 42 42 42
71 71 72 73 73 73 73 73 74 74 75 75 76 77 77 78 79 76 77 73 68 65 65 61 59 59 56 53 48 49 46 45 43 42 40 39 39 39 39 38 38 38 37
70 70 71 71 72 71 72 72 74 75 75 75 77 76 76 76 76 76 72 68 64 62 60 54 53 52 51 50 46 45 43 41 40 39 37 36 35 35 35 35 34 34 34
69 70 71 72 72 72 73 73 74 74 74 73 74 75 75 75 73 71 67 64 61 55 53 51 50 49 49 47 45 43 41 41 38 37 37 36 34 33 33 33 34 35 35
71 71 72 73 73 74 74 75 75 75 74 75 74 74 73 71 69 66 61 57 56 54 53 51 49 50 51 49 47 45 42 41 40 37 36 34 35 34 33 32 33 34 35
70 71 72 73 72 73 73 73 74 74 73 73 72 70 69 68 64 59 55 55 55 53 51 50 48 48 49 48 48 48 47 45 43 42 40 37 36 36 38 36 35 36 35
70 71 72 73 73 73 73 74 74 74 73 72 71 69 65 61 59 57 56 56 55 53 52 51 50 50 49 49 49 48 49 49 48 47 44 43 41 40 39 38 39 41 41
69 69 71 71 71 70 70 70 68 67 65 64 63 62 60 59 58 58 57 57 56 54 53 52 51 50 51 50 49 48 49 48 49 51 49 48 47 46 44 44 44 43 43
70 70 69 69 69 69 68 67 66 65 64 63 63 64 62 61 61 61 61 59 56 55 53 52 51 49 49 50 50 51 51 50 49 49 49 50 51 53 53 53 52 50 49
68 71 70 71 70 70 69 68 68 67 65 64 64 63 62 61 60 60 60 58 56 55 54 53 52 51 50 50 49 50 52 52 52 52 52 51 51 51 52 53 56 57 56
61 64 67 70 71 71 70 70 70 69 68 67 66 65 64 63 61 61 60 60 58 57 56 55 54 54 54 54 54 54 54 54 52 53 52 53 54 54 53 53 53 55 58
57 61 63 66 68 70 72 72 72 71 70 70 69 68 67 67 65 64 62 61 60 60 59 58 59 59 59 58 58 59 60 59 58 58 57 57 57 56 54 54 55 56 56
53 57 60 63 65 66 67 69 71 71 72 72 71 71 70 69 68 67 66 65 65 64 64 64 64 64 64 64 63 62 63 63 63 63 62 61 61 62 61 60 59 57 57

GFSGL_250_spd_111.txt.gz
Wind_Speed
97 99 86 93 94 90 93 82 86 90 86 88 89 84 83 88 88 92 92 90 94 100 96 99 105 111 105 102 105 113 114 109 109 111 111 112 111 111 110 110 107 103 101
106 109 105 95 100 99 92 96 92 93 96 97 98 95 87 90 91 94 97 100 103 107 106 114 114 109 111 118 123 121 121 118 113 111 109 108 108 107 104 103 102 100 97
122 116 116 108 102 107 107 107 104 104 104 105 101 95 98 103 103 103 107 114 114 117 120 117 116 123 129 131 129 125 118 114 112 109 107 105 103 102 99 96 94 91 90
108 117 120 113 114 111 106 104 104 100 102 102 104 108 106 106 108 112 121 123 121 122 124 128 132 136 133 131 125 118 115 112 108 105 104 103 102 99 95 91 88 87 87
113 111 114 113 113 115 113 110 106 106 109 108 106 107 111 115 112 120 124 127 132 135 137 138 138 134 128 123 120 118 111 108 105 103 102 99 94 90 88 86 85 85 83
123 120 118 119 117 114 114 114 112 114 113 115 117 116 118 121 126 134 136 138 145 141 138 135 130 125 122 121 116 111 108 102 100 96 93 89 86 83 81 79 78 78 77
127 123 123 124 124 123 121 119 118 119 120 124 123 128 134 134 138 144 145 146 143 138 131 126 118 119 112 107 108 104 101 96 93 90 87 84 81 79 78 77 75 73 72
123 125 128 129 129 130 131 132 133 135 136 135 134 133 135 138 138 139 139 139 135 126 120 119 107 106 105 100 98 97 96 93 89 86 84 81 79 78 75 72 71 70 69
99 107 112 120 123 125 127 125 127 126 123 121 123 119 119 125 124 118 118 117 115 109 101 103 102 99 95 94 93 93 91 88 85 82 81 79 78 77 75 72 69 66 65
86 88 88 91 96 102 103 105 104 106 105 103 104 108 107 109 106 101 99 98 100 100 98 95 94 92 90 90 89 87 87 85 83 81 80 78 76 75 72 68 63 61 59
91 92 94 95 91 93 95 100 100 99 99 98 97 99 102 101 96 96 95 95 94 91 91 91 88 87 87 86 86 83 85 83 80 77 74 71 69 68 65 61 57 53 51
88 91 90 92 95 93 93 93 95 96 95 96 97 100 102 97 94 92 87 90 89 89 89 87 84 84 84 84 82 83 82 78 75 71 66 62 60 57 55 53 49 46 43
86 86 87 89 95 96 99 96 96 95 93 95 96 98 97 91 88 87 86 86 85 86 86 84 82 84 83 82 79 79 76 71 66 63 59 55 52 51 50 46 44 41 39
81 83 85 88 91 94 91 90 90 90 90 90 89 87 86 85 85 84 84 83 82 82 83 83 83 82 82 78 76 72 69 65 62 59 54 50 48 48 47 43 39 37 36
78 79 82 84 87 87 86 85 85 84 84 83 84 84 83 83 82 83 83 82 81 81 81 81 82 81 77 73 70 66 61 56 53 51 48 46 44 43 42 39 36 35 35
77 78 80 82 82 82 82 81 82 82 83 84 85 84 84 84 84 83 82 81 80 81 81 80 79 76 72 70 66 58 54 53 50 49 47 44 43 42 40 37 36 34 33
76 78 78 79 81 82 82 82 82 82 83 83 84 83 82 82 82 82 82 81 80 80 80 80 75 70 69 65 58 55 54 53 51 48 46 45 43 41 39 36 34 35 34
76 77 79 80 80 80 81 81 81 81 82 83 83 83 83 83 83 83 80 80 81 80 77 76 71 68 65 58 55 55 54 53 51 50 48 46 45 42 40 38 35 35 35
76 77 78 78 79 80 80 81 81 81 82 83 82 83 82 81 80 81 81 79 78 75 74 73 70 65 61 58 56 55 53 52 51 50 49 49 47 46 44 42 40 36 37
75 79 80 80 80 80 80 80 81 81 81 81 82 81 79 79 79 79 79 78 78 76 73 70 66 62 60 59 57 54 53 52 52 50 50 49 49 50 50 48 45 44 41
66 72 78 80 82 83 83 82 81 80 80 79 79 78 78 79 79 79 79 78 74 71 67 65 63 61 60 58 58 56 54 51 51 51 50 50 49 49 51 52 52 50 48
61 65 68 72 76 79 80 81 81 81 81 81 81 80 79 78 77 76 72 69 67 66 65 64 64 62 61 60 58 57 54 52 50 48 50 50 49 49 50 50 51 53 54
57 60 62 65 68 72 76 78 79 80 79 79 78 78 77 76 74 72 71 69 69 68 67 66 66 64 62 59 59 58 56 55 53 52 51 49 49 49 49 50 51 52 53
50 54 57 60 63 66 69 73 76 78 79 79 79 78 77 75 74 73 72 71 70 69 67 66 65 64 63 62 60 59 59 58 56 55 55 55 54 52 51 51 50 50 53
45 48 52 55 58 62 64 67 70 73 75 77 78 78 77 76 76 75 74 73 72 71 69 68 67 66 65 63 62 62 62 61 60 59 58 58 59 59 58 58 57 56 56
42 43 46 49 53 56 59 62 64 67 70 72 74 75 77 78 78 77 77 75 74 72 71 70 69 68 68 67 66 66 66 65 63 63 62 61 61 62 63 63 63 62 62

GFSGL_250_spd_114.txt.gz
Wind_Speed
83 76 72 65 62 63 65 71 75 77 77 63 70 71 71 74 73 74 74 73 74 73 74 79 84 89 93 95 97 102 100 99 101 103 109 113 117 123 133 127 115 105 99
92 85 84 80 78 75 71 64 73 74 80 74 71 70 71 74 77 78 80 84 87 89 94 95 96 101 105 106 110 109 112 114 111 113 115 122 131 133 120 113 102 100 94
102 93 96 95 92 89 83 88 80 77 76 75 80 83 85 82 82 83 87 91 91 97 99 105 108 112 111 113 117 118 119 120 121 125 125 139 140 128 117 107 106 96 91
105 98 99 91 90 96 95 93 96 93 91 87 86 90 93 94 94 94 94 97 104 106 106 108 112 112 116 122 125 130 131 130 132 136 141 145 135 125 115 108 98 92 87
107 107 101 105 98 98 104 104 95 102 107 106 102 98 99 99 102 102 103 105 107 112 113 114 114 116 120 126 130 135 135 139 141 145 149 140 128 118 111 101 94 88 83
115 115 111 106 109 109 108 107 109 109 108 105 104 104 101 101 105 107 112 118 119 118 116 117 120 124 130 133 138 141 143 147 149 149 146 132 123 112 103 95 90 86 82
119 115 115 115 115 113 117 118 116 118 118 118 116 118 117 117 117 118 118 116 119 120 122 126 130 132 138 139 144 148 150 151 150 145 136 121 113 101 96 91 89 83 78
127 125 125 127 127 128 127 125 124 128 124 125 127 127 126 126 126 125 125 126 128 128 130 134 137 140 146 148 149 146 150 152 139 134 122 111 100 96 91 89 84 78 74
132 131 129 129 128 127 126 126 129 134 135 128 129 127 128 128 130 130 133 133 133 133 139 141 144 148 147 150 148 148 146 135 121 111 104 99 94 91 88 84 79 75 69
131 132 132 130 131 134 134 135 132 131 130 132 132 135 137 137 137 135 135 140 145 147 147 149 152 153 152 149 148 140 127 117 109 99 96 94 91 88 84 79 74 67 63
122 126 128 132 131 131 133 132 134 136 133 132 132 134 135 138 140 145 146 146 151 150 151 156 159 158 151 144 131 125 111 102 97 93 92 91 87 83 78 72 66 61 57
102 110 119 122 125 133 141 144 143 141 144 144 146 149 150 152 150 149 151 155 155 157 158 152 142 134 131 125 110 104 99 96 92 92 88 86 83 78 71 66 61 56 50
104 99 98 101 104 106 109 121 130 133 138 138 132 138 147 152 152 152 152 150 144 145 141 133 131 122 110 103 97 92 94 92 90 88 84 81 77 70 64 58 53 49 45
99 100 107 105 105 104 103 106 112 119 124 126 126 128 130 137 138 140 143 136 131 128 122 118 109 101 98 95 92 93 91 90 88 85 80 75 68 62 55 50 48 46 43
94 99 102 104 109 112 115 115 115 116 116 117 121 124 125 125 124 122 124 118 114 109 104 99 96 95 94 92 90 89 89 87 86 79 75 67 60 54 50 48 47 45 42
89 95 99 102 102 102 105 104 109 112 113 113 113 114 114 111 111 108 104 101 100 98 96 95 92 91 90 89 89 87 85 84 80 73 66 60 54 52 50 47 46 44 43
82 86 89 91 94 97 98 98 99 101 99 103 102 104 103 102 99 98 96 95 94 94 91 90 90 88 88 87 85 84 81 80 73 66 61 56 53 51 49 47 46 45 43
78 82 84 86 88 91 92 93 94 95 94 95 96 95 95 94 93 93 92 90 88 89 88 85 86 85 84 83 82 81 77 72 68 64 58 54 53 52 49 48 47 46 45
66 73 79 83 86 88 89 90 91 91 91 92 92 92 91 90 89 88 88 87 86 87 86 85 84 82 81 81 80 74 73 70 67 62 57 54 53 52 50 48 48 47 47
57 62 68 73 79 83 87 89 90 91 91 91 91 91 89 88 88 87 86 86 86 85 85 83 81 81 80 77 74 72 71 67 62 58 56 54 53 52 49 49 49 48 48
51 56 61 66 72 77 82 85 88 89 90 90 90 89 88 88 88 87 86 86 86 85 84 82 79 77 75 74 73 71 66 62 58 56 56 56 54 52 50 48 48 49 49
46 50 54 60 66 71 75 78 81 85 88 90 89 89 88 88 87 85 85 83 83 83 83 81 80 79 77 74 71 67 64 62 59 58 58 58 57 55 52 51 49 48 49
44 47 50 53 58 63 68 71 74 77 80 83 86 88 89 89 89 89 88 88 87 85 85 83 81 80 77 73 68 66 66 64 62 61 60 59 57 56 56 54 53 51 50
42 44 46 48 52 55 58 61 65 69 73 76 78 81 83 84 85 87 87 86 87 86 85 82 80 79 76 74 70 68 67 66 64 62 61 60 60 59 59 58 57 56 54
40 41 42 44 46 49 53 56 59 62 66 69 72 75 76 78 79 80 81 82 82 83 82 80 79 78 77 75 74 72 69 67 66 65 63 62 61 62 63 63 61 60 59
41 40 41 41 42 44 46 50 53 56 60 63 66 69 72 74 74 75 77 78 78 80 80 81 80 80 79 78 77 76 74 72 70 69 67 66 66 66 65 65 66 65 65

GFSGL_250_spd_117.txt.gz
Wind_Speed
62 69 81 67 62 66 64 64 64 63 63 59 65 62 61 64 65 78 77 77 74 74 77 77 81 76 76 76 76 79 81 84 91 99 101 107 111 115 115 113 122 124 131
66 74 78 75 77 72 68 70 68 72 72 74 76 72 75 79 83 86 86 84 85 85 87 85 80 83 77 82 84 86 91 98 100 105 110 115 122 123 124 129 134 136 139
73 79 74 78 79 79 70 75 86 80 78 79 79 78 80 83 82 83 82 85 89 86 88 87 85 86 87 86 91 98 99 102 106 112 120 125 124 129 134 136 137 142 148
84 84 86 82 82 80 80 80 84 82 82 83 88 88 89 93 93 94 93 92 92 92 86 87 90 91 95 99 101 102 106 110 116 121 126 128 132 134 139 140 145 147 153
90 90 92 88 85 81 84 83 85 85 85 87 92 93 94 94 92 89 92 91 89 88 91 93 95 95 99 102 107 109 116 121 122 126 129 133 135 139 139 145 149 150 156
93 94 94 88 89 90 88 88 86 87 86 94 96 97 95 93 94 93 94 92 93 96 99 100 100 105 107 110 115 119 122 123 128 135 133 136 142 146 150 152 153 155 155
98 95 93 101 93 99 101 101 98 97 95 93 91 93 98 99 100 97 96 100 101 103 104 107 108 109 112 115 119 123 126 131 137 139 141 142 146 146 150 154 157 159 139
113 111 107 106 110 109 101 105 110 110 108 107 106 106 108 107 106 107 105 109 110 112 113 115 118 122 124 126 126 130 135 138 141 144 146 147 151 153 151 155 161 152 129
122 124 124 121 121 120 120 126 121 122 124 124 120 119 118 117 118 120 120 121 122 122 123 124 126 128 129 134 134 140 143 144 146 148 150 149 151 153 156 161 151 133 107
131 129 133 135 130 131 127 125 130 131 130 128 123 122 124 124 124 127 129 131 132 131 131 132 135 138 139 142 146 146 150 151 150 147 148 151 160 160 161 155 135 104 96
138 134 136 138 139 137 139 137 135 137 139 137 138 134 132 130 130 131 134 134 136 138 139 142 145 148 149 148 148 149 151 155 150 152 152 161 160 157 147 127 108 95 89
144 141 149 155 154 146 139 138 139 144 143 142 143 142 143 141 140 139 139 141 142 144 147 148 148 147 148 150 148 150 150 155 155 157 155 154 155 137 132 104 94 88 83
140 150 151 146 144 147 151 151 146 144 145 147 147 146 147 149 149 150 150 151 150 149 146 150 153 155 153 151 150 149 149 155 163 160 151 142 132 118 98 91 87 83 77
107 108 113 120 128 144 163 155 158 152 154 154 156 159 156 158 157 156 154 154 153 154 155 159 160 160 157 156 159 161 164 155 154 138 127 127 107 97 92 85 82 76 67
110 116 115 111 115 122 127 134 136 140 146 149 153 156 157 158 156 156 156 158 161 162 162 159 159 156 153 152 152 154 150 138 136 119 104 97 95 91 86 81 75 66 59
107 113 119 121 120 120 121 124 126 122 128 131 134 135 139 146 146 147 145 143 138 142 146 145 143 141 147 144 135 134 129 116 107 99 94 92 89 85 82 74 68 60 52
90 99 105 110 115 121 124 125 126 128 131 133 135 139 137 140 143 142 139 145 144 140 136 131 126 123 126 125 117 110 104 99 96 90 86 84 83 80 77 67 61 55 48
65 74 82 93 103 110 112 116 123 129 132 135 135 137 136 135 135 135 135 132 129 124 120 117 115 113 110 105 103 99 94 92 89 84 81 80 79 75 71 64 57 51 47
51 58 65 72 78 86 94 101 107 113 120 125 127 127 128 126 125 121 119 116 113 110 109 107 106 102 98 94 91 89 87 85 84 80 78 77 74 70 66 60 54 48 45
43 49 55 61 67 74 79 85 92 97 103 107 110 112 113 112 112 111 109 106 104 103 103 101 98 94 91 89 87 85 84 83 81 80 78 73 69 66 62 55 51 49 46
42 45 49 54 59 64 69 74 79 83 89 92 96 100 103 105 106 106 104 103 101 100 97 95 93 90 88 85 84 82 81 80 78 75 72 70 67 64 59 54 51 50 49
45 46 46 49 53 57 61 65 69 73 78 82 87 90 92 93 96 98 98 98 98 96 95 94 92 89 86 83 81 79 78 76 75 75 73 71 68 64 60 56 55 55 53
48 45 44 45 47 50 54 58 61 65 69 73 77 80 83 85 88 89 91 94 94 94 93 93 91 90 88 86 84 82 81 81 79 76 75 71 68 64 62 60 59 57 56
51 46 43 42 43 45 47 50 54 57 61 64 68 70 73 76 79 83 86 87 89 90 91 91 91 91 89 88 87 85 84 81 79 77 75 72 69 66 65 63 61 60 58
51 46 41 40 40 41 43 45 47 50 53 56 59 61 64 68 71 75 78 81 83 85 86 86 87 87 85 84 84 82 80 80 77 76 75 73 71 67 67 66 65 64 63
51 46 41 38 38 39 40 41 43 44 47 49 53 55 58 61 65 68 71 73 75 77 79 81 81 81 80 79 78 78 77 76 76 76 76 74 73 72 71 70 70 69 69